GFSSGP_500_spd_000.txt.gz
Wind_Speed
23 23 25 23 20 17 19 22 24 24 25 21 19 17 15 16 18 18 18 16 16 16 16 15 16 14 13 15 15 15 15 16 16 18 18 18 16 15 14 13 14 16 16 16 16 18 17 17 18
24 23 24 24 20 18 21 24 25 20 20 20 18 15 15 18 20 20 18 17 15 15 13 11 12 13 14 14 16 15 14 14 15 16 19 19 17 16 16 17 16 18 18 17 16 16 18 19 18
26 24 25 24 21 22 25 26 21 17 17 18 16 14 14 18 20 21 20 18 16 12 9 10 12 13 14 15 15 15 13 13 13 15 19 19 19 19 18 18 16 21 22 21 18 18 19 21 20
27 26 25 25 23 25 26 25 21 18 18 17 15 14 15 18 20 22 19 17 14 12 11 11 12 13 15 15 16 16 15 13 12 16 17 19 20 20 20 20 21 21 22 23 21 20 19 21 20
29 27 26 26 24 27 29 26 21 19 18 16 12 13 18 22 21 16 17 16 13 13 12 12 13 14 15 17 17 17 16 15 15 13 16 19 20 22 23 24 24 24 22 21 21 20 18 20 21
32 29 28 28 28 27 31 29 22 21 19 15 14 11 19 25 23 19 16 16 13 11 12 13 12 13 14 17 17 17 18 18 17 18 17 17 18 21 24 26 24 24 20 20 20 20 20 21 22
34 33 30 28 30 30 31 29 24 21 21 17 15 16 18 21 24 20 15 15 13 12 13 12 13 14 14 16 17 17 18 20 22 22 21 22 22 22 22 24 24 24 23 21 22 23 24 26 28
36 35 32 29 32 34 31 27 25 23 23 19 16 17 16 13 19 18 15 13 14 13 14 13 13 13 14 15 16 18 19 20 23 25 26 25 25 25 25 24 24 24 25 25 26 28 31 32 33
38 36 33 30 33 36 33 26 23 23 22 18 16 17 15 11 14 17 18 16 14 13 14 14 12 11 12 13 14 17 19 21 23 25 28 29 29 28 27 27 27 27 28 29 31 32 35 37 38
42 37 31 31 36 36 34 26 21 23 21 19 15 17 17 14 15 15 16 15 16 16 15 13 10 10 9 12 14 17 19 22 24 25 26 28 28 28 28 28 28 29 30 33 34 36 38 41 43
45 36 33 35 39 34 34 29 20 23 21 19 17 19 18 19 18 17 17 17 20 19 17 13 12 12 13 16 17 19 21 23 22 23 24 25 25 26 27 27 28 30 32 35 38 40 42 44 46
47 37 36 37 39 35 34 29 23 20 20 20 19 24 25 21 19 20 19 19 23 22 17 16 16 15 16 18 20 22 24 23 21 20 20 20 21 22 24 26 29 31 34 37 40 42 45 46 45
45 39 38 40 41 35 33 28 27 18 26 22 23 24 28 21 18 21 21 21 25 22 20 21 22 21 19 18 20 22 24 24 23 21 21 22 23 25 28 30 33 35 37 40 41 42 39 38 38
44 41 41 45 41 36 31 29 22 32 26 22 21 23 25 23 20 20 24 25 25 24 22 21 23 27 26 24 24 25 27 26 24 24 25 27 28 30 32 34 36 36 36 36 35 35 35 35 36
49 46 45 45 41 36 34 27 27 32 24 24 22 21 25 26 22 22 23 24 22 22 22 22 23 23 24 24 24 27 27 28 28 27 28 31 33 35 36 36 36 35 35 35 34 34 35 35 37
52 50 50 41 39 36 38 28 33 30 29 22 23 20 23 27 25 25 24 22 21 21 22 23 23 25 26 26 24 27 28 29 30 31 34 36 38 38 38 36 35 35 35 35 36 37 39 41 41
56 54 45 42 37 40 37 31 32 29 28 24 22 19 25 28 28 27 23 23 22 22 22 23 26 28 30 29 27 28 28 28 31 35 38 39 40 38 36 35 35 35 36 38 40 42 44 45 47
60 54 43 38 39 39 40 31 32 28 26 23 21 22 26 28 28 26 25 25 24 24 26 28 32 28 28 28 26 27 29 31 34 36 37 37 36 35 35 35 36 38 40 42 44 46 49 50 50
54 44 40 37 40 39 38 30 31 31 27 24 23 21 27 30 28 27 26 27 28 29 31 31 25 26 27 28 27 30 31 33 35 35 34 34 35 37 38 39 40 42 43 46 47 47 46 47 50
51 47 41 41 38 36 36 28 34 34 27 26 26 24 27 28 29 27 26 27 30 32 32 24 22 25 26 27 28 30 32 34 35 34 35 36 38 39 40 41 43 44 45 45 46 48 49 51 54
53 46 42 37 34 35 32 28 32 32 29 30 27 27 26 26 25 25 27 28 30 28 25 22 21 25 28 28 29 30 32 32 34 35 37 38 39 39 41 42 43 43 44 45 47 48 51 55 57
49 45 43 35 34 34 31 28 29 31 30 30 29 28 27 27 25 25 27 30 28 27 27 27 28 29 29 30 32 32 33 34 35 37 38 38 40 41 42 42 43 45 47 48 51 53 58 62 67
45 46 40 36 35 32 29 26 28 33 30 30 30 30 29 28 27 27 28 26 26 27 27 28 29 29 30 31 34 35 34 35 37 37 38 38 39 41 42 45 46 49 51 54 58 63 67 71 73
49 46 41 35 33 30 27 26 28 31 31 30 31 31 30 29 30 31 28 28 27 27 27 29 30 30 31 33 34 34 35 35 36 37 38 40 41 44 46 48 50 53 57 61 65 69 71 73 76
49 43 37 34 34 27 26 27 24 32 30 31 30 31 31 31 30 32 31 30 27 27 29 29 30 32 33 34 33 34 35 35 36 38 40 42 44 46 51 53 56 59 62 65 69 70 73 75 79
49 43 39 34 29 27 27 27 24 26 31 30 29 27 28 30 30 31 30 29 29 29 29 30 32 33 34 33 34 34 34 35 37 39 41 44 48 51 53 57 60 63 65 67 70 73 77 81 84
44 43 39 33 27 27 25 26 23 24 26 27 26 25 26 27 30 30 31 30 30 30 30 31 32 34 34 33 33 34 35 36 38 42 46 51 52 55 58 61 63 65 68 71 75 78 82 85 89
39 38 37 32 27 26 23 25 24 23 23 25 23 24 25 27 30 32 32 31 31 31 30 30 31 33 32 32 34 35 37 39 44 48 50 53 57 59 62 64 66 68 72 76 80 82 86 90 94
46 42 38 31 30 28 22 22 23 22 22 22 24 26 28 31 33 31 30 30 30 29 28 30 31 30 32 33 35 38 41 45 49 51 54 58 61 63 65 67 69 73 77 80 82 86 90 94 97
38 38 31 35 33 27 24 22 21 22 21 22 24 25 27 31 31 29 26 26 26 28 30 30 30 31 33 36 38 42 46 49 52 55 59 61 64 67 68 70 74 77 80 83 87 90 93 97 98

GFSSGP_500_spd_003.txt.gz
Wind_Speed
25 24 25 24 23 18 18 26 27 25 27 23 22 18 18 20 23 25 21 21 19 18 18 20 17 14 13 14 15 16 16 17 17 18 19 20 20 19 17 16 16 17 17 18 17 18 18 17 18
26 26 25 24 22 19 19 28 25 28 21 20 20 19 21 24 23 25 24 21 20 18 16 16 11 13 13 14 15 16 16 16 16 16 16 19 20 19 18 18 18 18 19 19 20 21 19 18 19
26 26 27 24 23 21 25 26 28 21 19 17 18 19 20 26 25 26 25 23 21 19 16 11 10 13 14 14 15 16 15 14 15 15 16 19 20 20 20 19 20 20 19 21 22 23 21 20 21
28 27 29 25 25 25 28 26 23 22 17 17 16 17 20 24 26 25 24 20 19 18 14 12 11 13 15 15 15 17 16 15 14 15 16 18 21 22 22 22 22 22 22 22 23 23 23 22 21
31 28 29 28 26 26 29 28 26 23 19 19 16 18 22 23 26 25 23 21 19 16 14 12 12 14 15 15 16 17 18 16 15 16 16 16 20 22 24 24 25 25 25 24 24 22 22 21 21
34 30 29 29 28 29 29 31 28 25 21 20 19 14 22 24 26 26 21 18 16 15 13 12 13 14 13 14 15 16 17 17 18 19 18 19 20 20 22 22 24 24 25 24 23 23 22 21 22
38 34 31 32 31 29 32 30 31 28 24 25 17 20 24 23 25 25 25 20 15 14 12 12 14 14 13 13 15 16 17 17 18 20 21 23 24 24 25 25 24 23 23 24 24 24 24 25 26
40 38 34 34 31 31 36 32 30 29 29 22 23 25 28 15 21 22 25 21 16 15 12 13 15 14 13 12 13 14 15 16 18 20 22 24 26 27 27 28 27 26 26 26 27 28 29 31 32
42 43 37 33 32 32 39 34 28 27 29 29 24 25 23 19 18 19 21 20 17 16 15 17 16 13 11 11 11 12 15 17 18 20 22 24 26 26 27 27 27 28 28 29 30 31 33 35 36
47 44 38 33 35 37 41 33 31 25 30 31 28 26 22 22 20 18 21 21 20 19 18 18 16 14 12 11 12 14 16 18 21 21 22 23 23 23 24 25 26 27 29 30 33 34 36 37 40
49 48 39 36 38 40 42 33 32 26 27 31 31 27 22 23 23 22 22 21 21 20 20 19 17 15 14 16 17 19 21 22 23 22 21 20 19 19 21 23 25 28 30 32 34 36 38 40 43
48 49 42 40 39 42 41 35 31 28 25 32 29 26 23 26 27 24 23 22 21 22 20 20 19 18 16 18 18 20 22 23 25 25 23 21 21 22 23 25 27 29 31 34 36 38 41 44 44
54 45 44 42 42 44 42 35 31 26 29 34 31 28 25 27 26 24 23 23 23 22 22 20 22 23 23 24 26 24 24 26 28 29 26 25 25 26 28 30 32 33 35 37 39 39 39 38 36
54 47 46 46 47 46 42 36 36 25 40 30 26 27 26 27 28 26 24 23 24 22 22 22 22 22 26 28 28 29 27 29 30 30 29 28 29 29 31 34 35 36 37 37 36 36 35 35 34
55 51 49 49 49 47 43 39 34 34 37 32 28 27 25 26 28 28 24 23 24 24 24 24 25 27 29 28 28 29 28 29 31 31 31 30 31 33 35 37 38 38 37 36 36 35 35 35 37
59 55 53 49 49 46 45 35 37 38 31 31 27 27 26 23 25 28 25 24 23 23 24 24 27 30 30 28 30 30 31 30 30 31 31 32 34 36 37 37 36 35 34 35 36 37 38 40 41
58 60 54 53 51 46 49 37 38 38 33 30 30 27 25 22 25 30 30 26 23 22 23 25 28 28 30 33 34 32 31 29 28 30 33 35 36 35 34 32 32 33 34 36 37 38 40 41 42
59 59 56 53 54 47 45 39 40 40 35 29 30 28 26 24 28 33 33 27 24 26 26 27 28 31 33 37 33 30 32 32 31 32 34 34 33 32 32 33 34 35 36 37 38 40 42 43 44
55 58 55 51 50 48 42 40 39 39 36 30 26 29 27 27 29 33 32 29 29 29 29 30 32 34 37 34 29 30 31 33 34 34 35 34 33 33 34 36 35 36 37 39 40 40 42 43 45
62 57 51 49 52 45 41 38 37 39 35 30 28 28 27 28 30 33 31 30 29 29 31 31 33 36 34 29 31 33 34 34 36 36 36 36 35 35 36 36 37 39 40 41 43 44 46 48 49
61 52 52 51 52 42 42 36 33 35 36 31 30 30 28 29 30 33 32 32 30 30 30 33 35 32 24 29 32 33 33 34 36 37 37 36 37 37 37 38 40 41 43 45 47 48 49 51 54
58 57 41 53 47 42 41 33 36 34 33 32 30 31 30 29 30 31 32 30 29 30 32 34 33 31 32 34 34 33 35 37 38 39 37 37 38 39 40 41 42 44 45 46 48 51 55 58 62
52 33 53 54 46 44 40 35 28 31 33 32 29 32 31 30 31 33 32 30 29 30 31 30 30 30 31 32 34 35 36 38 38 37 38 39 40 41 42 43 44 45 49 50 53 56 59 62 65
51 47 45 49 47 42 35 31 30 31 32 32 30 30 30 31 32 34 33 32 31 32 31 28 29 31 32 34 35 37 38 37 37 38 39 40 40 41 42 43 47 50 52 55 58 61 63 64 66
48 53 56 49 45 39 36 31 25 31 30 30 29 30 30 32 33 34 34 32 33 33 31 30 31 33 35 35 36 37 37 37 37 38 38 40 41 43 46 49 51 54 56 60 62 64 66 68 71
61 40 43 51 43 36 29 29 31 28 27 30 26 30 31 32 33 34 35 35 36 36 34 33 33 34 35 36 36 37 37 36 37 38 39 41 45 48 50 52 55 58 61 64 66 68 70 73 76
50 36 48 45 40 32 32 27 28 28 28 27 28 26 31 33 32 34 37 38 37 35 33 33 34 35 36 35 35 36 36 36 37 39 42 45 48 50 53 57 60 63 65 67 69 71 74 76 80
39 41 44 43 35 29 28 27 28 26 24 25 25 28 32 33 34 32 33 35 33 35 35 33 34 33 33 34 35 35 35 38 40 43 46 48 51 55 58 61 64 67 68 71 73 75 78 81 84
46 41 42 38 34 28 21 23 28 23 24 23 23 27 29 31 30 32 33 33 35 34 34 33 31 31 33 33 34 35 38 40 43 46 49 53 56 59 63 65 68 70 71 73 75 79 82 85 88
24 41 38 35 32 29 25 24 23 22 22 22 25 27 28 29 31 32 33 34 34 33 31 29 30 32 32 33 35 38 41 43 47 50 54 57 61 64 67 69 70 72 73 75 78 81 84 88 92

GFSSGP_500_spd_006.txt.gz
Wind_Speed
24 23 21 22 21 21 19 20 27 25 27 23 21 19 19 23 24 26 24 23 22 21 19 19 18 18 16 15 15 14 14 14 13 14 16 18 18 18 18 16 17 15 16 17 15 18 18 19 18
26 25 24 22 22 19 20 21 28 29 21 20 20 20 21 28 25 27 27 26 24 22 19 18 17 13 13 14 15 15 16 16 15 13 14 14 17 17 16 16 17 16 18 18 19 20 20 21 20
30 27 26 22 21 21 23 31 32 22 19 20 20 20 24 30 25 26 27 27 25 21 18 17 15 12 13 14 15 14 15 16 15 13 13 12 14 16 17 17 18 18 20 20 20 20 21 23 23
31 31 28 25 22 22 25 29 22 18 22 19 18 22 27 29 25 25 27 28 26 21 18 16 13 12 13 13 14 13 16 17 16 15 14 14 13 17 19 20 20 22 22 22 23 23 23 23 23
33 34 30 26 25 24 23 29 22 24 21 20 19 25 24 22 22 24 26 28 23 18 16 14 11 12 14 14 13 13 13 14 15 15 16 14 15 15 17 20 22 23 24 25 24 23 23 22 22
35 34 33 28 25 26 26 28 25 24 24 21 23 19 25 23 22 25 26 25 20 18 15 12 11 14 15 13 12 14 13 14 14 15 16 17 18 18 19 20 21 21 21 21 22 21 22 21 21
38 37 35 31 28 28 30 28 25 29 26 24 21 20 31 22 21 23 24 22 21 17 13 13 13 14 14 14 12 13 12 12 13 15 16 17 18 21 22 24 23 22 22 23 23 23 24 25 26
37 41 38 35 31 28 28 32 26 28 25 29 21 25 36 14 23 23 22 21 23 20 15 15 14 15 15 13 13 12 11 12 12 14 15 17 19 21 23 24 25 25 25 26 27 28 29 29 31
41 40 42 36 33 30 30 35 29 28 25 28 26 29 35 23 23 23 22 22 23 21 17 18 16 16 16 14 12 10 11 12 14 15 16 18 19 20 21 23 24 26 28 28 28 29 30 31 32
46 42 37 37 35 36 36 38 29 27 26 28 29 32 37 28 27 24 24 24 23 22 20 21 19 17 16 15 13 13 15 17 18 18 18 19 19 20 20 21 22 23 25 26 27 28 30 31 33
45 43 37 39 38 40 41 36 30 29 26 28 31 36 37 29 22 26 25 24 24 24 22 22 21 19 17 15 15 16 18 21 23 24 23 21 21 21 21 21 22 23 25 26 28 30 32 34 36
44 43 43 37 41 44 42 37 35 29 24 30 32 34 31 27 24 28 28 26 25 24 22 24 21 21 19 18 17 19 20 23 26 28 29 27 25 24 24 25 26 27 29 31 32 33 35 37 38
47 45 45 42 42 45 45 41 35 31 27 31 36 33 31 29 27 27 28 27 27 23 22 22 21 22 22 24 24 26 28 30 29 31 32 32 31 28 28 28 29 31 33 33 34 35 37 38 38
50 49 46 45 43 46 48 41 40 28 31 34 37 30 25 27 28 24 29 29 26 23 22 23 22 23 24 23 24 27 30 31 31 31 33 34 34 32 31 32 33 35 36 36 37 36 36 36 36
55 54 50 47 48 46 49 46 42 29 35 37 33 31 27 27 26 29 27 29 29 22 23 23 22 24 24 26 30 31 33 33 32 34 34 33 32 32 33 36 37 37 36 34 32 32 31 32 33
57 53 52 44 51 49 49 50 39 37 40 34 30 33 30 26 28 26 27 29 29 23 22 23 25 25 26 27 32 31 33 34 36 33 31 30 31 33 35 37 36 33 32 30 30 30 31 32 33
59 58 49 48 50 51 48 48 39 38 40 34 31 31 31 28 29 26 26 28 30 24 21 22 23 24 26 28 30 33 36 38 32 30 31 33 34 36 37 37 34 32 31 32 32 33 33 33 34
58 59 53 50 47 49 49 48 41 41 38 34 32 32 26 29 27 27 27 30 32 26 22 22 24 27 28 30 33 36 38 32 30 32 32 33 35 37 38 38 37 37 35 34 34 34 35 37 37
50 54 52 50 47 50 49 47 41 41 39 38 34 33 30 29 29 28 28 30 32 28 26 26 28 30 32 33 35 38 33 32 33 34 35 36 36 38 39 39 38 37 36 36 37 37 38 40 42
52 52 48 49 44 49 51 48 45 42 41 37 34 33 31 29 30 29 28 30 31 29 28 28 28 31 33 35 35 34 33 33 33 35 35 37 39 41 41 38 36 37 39 40 40 41 42 44 46
51 50 44 47 42 45 50 50 44 42 41 36 35 32 30 30 29 27 29 29 30 29 29 29 31 32 35 39 36 31 32 37 37 37 38 40 41 40 38 38 39 40 41 42 43 44 47 48 51
55 46 46 51 47 53 51 49 43 40 39 37 33 35 29 32 30 27 29 29 30 30 30 30 31 34 37 36 31 31 35 37 37 38 40 42 41 41 40 40 40 41 42 43 46 50 51 54 58
57 48 59 54 37 48 49 45 42 46 41 33 32 32 30 30 30 28 30 28 27 29 30 30 32 34 34 33 34 35 37 38 39 40 41 40 40 40 41 40 41 43 46 50 52 54 57 60 63
56 58 61 43 49 56 47 46 44 46 34 33 33 32 28 29 31 30 29 29 27 30 31 31 32 34 36 36 38 39 39 39 40 41 41 39 39 38 40 42 44 48 50 52 55 58 61 63 65
66 58 56 46 46 36 50 32 37 41 36 32 29 29 28 29 31 31 29 29 29 30 31 33 35 37 39 40 40 38 39 40 40 40 39 39 39 40 43 46 48 50 53 55 58 62 65 68 70
65 61 45 51 47 56 44 45 40 38 28 26 28 27 26 29 31 29 28 28 29 31 33 35 37 38 39 39 38 38 40 39 38 38 38 39 41 44 46 48 51 53 57 60 63 66 69 71 72
60 56 43 21 23 39 41 40 36 35 29 26 25 21 23 28 29 28 26 28 30 33 35 36 37 37 38 37 38 39 37 37 38 39 39 41 44 46 49 51 54 58 61 64 67 69 71 73 73
51 42 36 28 35 32 37 37 35 30 25 23 21 21 21 24 27 28 28 26 28 32 33 34 35 36 37 36 36 35 36 36 37 39 41 43 46 49 52 56 59 63 65 68 70 72 73 74 75
41 39 46 22 35 38 38 32 32 26 21 21 19 20 24 24 26 29 29 30 32 33 32 33 34 36 36 34 34 36 36 36 38 41 44 47 50 53 57 61 64 66 69 71 72 72 73 75 77
31 37 38 32 36 36 32 27 25 23 19 20 21 23 24 24 26 28 28 29 31 31 33 34 34 33 32 33 35 35 35 38 41 44 47 50 54 58 62 65 68 70 70 70 70 71 74 77 82

GFSSGP_500_spd_009.txt.gz
Wind_Speed
25 23 21 20 18 17 17 17 24 28 25 19 20 22 25 26 24 25 24 22 21 20 18 17 16 17 17 15 13 12 11 10 12 13 13 13 16 17 16 15 15 14 13 14 15 16 17 19 19
28 26 23 23 18 16 18 26 30 26 17 19 19 22 27 28 25 25 25 22 21 22 20 17 15 16 15 13 13 13 10 9 11 11 12 13 14 15 16 15 14 14 14 15 17 18 19 21 22
31 30 27 24 21 18 20 24 27 21 19 17 20 21 28 28 21 25 25 23 23 22 20 17 15 16 14 12 12 12 11 11 10 10 11 12 10 12 15 16 16 15 16 17 18 19 19 21 21
34 34 31 26 24 23 21 22 26 20 18 18 18 25 27 27 23 25 25 24 23 22 19 17 14 15 13 12 12 12 11 11 12 11 12 12 12 11 12 17 19 19 19 20 21 22 23 23 23
33 36 34 30 26 25 20 23 21 19 20 18 20 25 25 25 20 22 24 23 22 22 16 14 16 15 13 12 12 12 12 12 12 11 12 13 14 14 15 16 17 19 21 22 23 23 23 23 23
30 35 36 31 28 28 27 25 23 19 24 20 22 24 24 25 24 24 25 23 20 19 15 17 17 16 13 13 12 12 13 12 12 12 13 13 15 16 18 20 20 21 22 22 23 23 23 24 26
34 30 36 33 32 33 30 27 20 20 22 22 22 23 26 26 24 24 23 23 17 17 17 17 17 17 15 14 12 14 13 11 10 10 12 13 14 17 18 20 22 24 26 26 26 26 27 26 26
36 37 30 38 30 31 31 29 19 21 21 23 22 25 28 26 24 24 23 24 19 17 21 17 19 18 17 15 13 14 13 11 9 10 11 12 13 14 16 19 21 24 26 27 27 27 27 28 29
37 37 33 27 33 26 32 32 28 23 20 22 23 26 34 30 30 23 23 22 21 21 23 20 20 21 18 17 15 15 15 13 12 13 14 14 15 16 17 18 18 20 22 24 25 26 27 28 29
36 33 31 31 31 33 35 37 34 25 20 20 23 26 38 33 30 23 27 26 23 22 22 22 22 23 20 18 16 16 16 16 17 18 18 19 20 20 19 20 21 21 21 22 22 24 26 28 30
38 33 33 32 33 35 38 42 37 27 22 22 24 29 37 35 26 24 25 26 25 24 24 24 24 26 23 21 19 18 18 19 20 22 26 27 26 25 24 23 23 24 25 25 26 27 28 30 32
40 39 37 33 38 36 40 44 38 33 25 24 25 28 34 33 27 23 30 27 24 25 24 24 24 25 25 22 22 20 19 22 24 25 28 31 31 31 29 27 27 28 29 29 30 32 33 34 35
42 42 41 36 38 40 39 46 38 37 30 27 28 32 33 33 27 26 32 28 24 24 24 24 24 25 25 25 26 25 25 25 27 26 30 32 33 34 34 33 31 30 31 32 35 36 36 37 37
46 46 43 42 39 41 44 41 44 35 33 32 30 32 30 30 25 25 30 26 27 22 24 24 25 25 25 27 27 26 25 26 29 30 32 33 34 37 36 34 32 33 35 36 37 37 34 33 32
48 48 46 44 43 42 47 45 40 34 37 37 36 31 29 29 26 26 29 28 25 25 24 25 25 24 25 26 26 25 27 29 31 30 34 36 33 29 32 32 32 35 36 37 36 34 32 30 30
47 50 50 48 47 45 52 38 40 36 41 42 35 31 27 30 27 24 28 26 23 25 24 25 24 25 25 25 24 24 26 29 30 33 36 31 29 29 29 31 32 35 36 36 35 34 34 34 33
53 54 55 52 49 49 54 45 40 34 44 43 38 32 30 27 28 26 27 26 25 25 25 24 22 24 23 22 23 25 27 30 33 35 30 29 30 30 32 33 34 36 37 36 35 36 35 35 34
54 55 56 54 48 51 52 48 41 36 44 45 39 36 31 26 25 29 27 28 26 27 26 25 23 22 21 23 25 26 29 31 33 30 29 32 32 35 36 36 38 40 39 36 34 34 36 36 37
47 49 51 51 50 51 50 49 41 39 43 42 40 37 33 25 26 27 28 26 26 28 27 26 25 23 22 25 28 30 30 33 31 30 31 34 37 37 37 39 42 41 39 37 37 37 38 39 39
49 51 51 51 49 52 51 49 40 43 43 40 39 39 32 26 29 26 29 27 28 28 27 26 27 25 25 27 30 31 33 34 30 30 34 38 40 39 40 42 41 39 39 40 40 39 39 42 44
49 51 47 49 45 46 48 52 44 44 41 40 40 40 31 26 29 26 27 29 29 28 27 27 27 27 29 30 31 33 34 29 28 32 36 38 40 41 42 42 42 40 39 39 40 42 43 46 50
49 43 42 42 43 45 46 53 44 44 42 42 41 39 30 26 30 28 26 28 29 28 27 28 27 28 30 30 31 31 30 30 31 34 37 40 42 42 43 41 40 40 40 41 44 47 50 52 54
38 41 43 41 44 43 44 46 40 38 44 46 41 38 31 27 30 29 28 29 28 27 27 27 28 30 30 30 31 31 31 35 38 39 40 40 42 43 40 40 40 41 43 45 48 50 53 56 58
43 40 43 41 44 47 42 47 42 40 41 39 39 37 29 27 29 30 30 30 28 27 27 27 28 30 30 32 33 34 36 37 38 38 39 40 40 39 40 40 42 44 46 48 50 53 55 59 62
50 49 44 44 47 56 38 44 40 34 38 37 38 34 28 27 28 29 30 30 28 28 28 29 30 31 32 33 35 37 39 39 38 39 40 39 38 39 39 42 44 47 49 51 53 56 60 63 65
47 50 49 50 58 44 38 47 30 37 40 40 35 33 25 26 28 28 29 28 28 27 29 31 32 32 34 35 37 39 37 38 38 39 37 38 40 40 42 44 46 49 51 53 57 61 64 66 68
45 56 46 47 46 45 46 35 31 25 23 36 29 28 25 25 24 27 26 27 26 27 29 31 32 33 35 37 37 36 37 38 37 36 38 39 40 42 44 47 49 52 55 59 62 65 67 67 66
44 50 55 51 41 51 59 46 39 25 24 22 23 21 22 19 22 22 24 26 26 26 28 31 32 33 34 35 35 36 37 35 36 38 39 40 41 44 47 50 53 57 60 64 66 67 66 64 63
38 54 59 58 24 34 35 30 29 25 22 20 19 18 18 18 19 19 22 23 24 26 28 30 31 32 33 34 36 35 34 35 38 39 40 42 43 46 50 54 58 61 64 67 66 65 62 64 68
20 40 64 56 20 21 42 29 31 27 22 18 18 20 20 19 17 19 21 23 26 27 28 30 31 33 34 36 33 32 35 38 39 40 42 43 46 51 54 58 62 65 68 68 64 62 65 69 73

GFSSGP_500_spd_012.txt.gz
Wind_Speed
29 25 24 21 18 16 18 21 26 27 24 20 20 21 24 26 27 26 24 25 21 18 19 20 18 16 15 16 14 12 11 11 10 9 10 9 10 14 17 19 19 18 16 16 16 16 16 18 20
32 29 28 25 21 17 20 21 24 24 21 21 20 22 24 25 27 25 24 23 22 20 19 20 18 16 16 15 14 11 12 11 10 9 8 10 11 12 16 20 20 19 17 17 17 18 18 19 20
34 32 30 28 24 21 22 22 21 22 18 18 22 24 26 23 23 25 25 23 23 22 20 18 17 17 17 16 13 11 12 11 13 11 10 11 11 10 14 19 20 20 20 19 20 20 21 22 22
37 36 33 31 27 26 24 23 21 20 18 19 26 25 27 22 22 22 23 20 21 21 20 18 18 19 18 16 12 11 12 12 11 12 13 14 14 13 14 13 19 22 24 24 24 25 25 26 27
28 34 40 33 29 28 27 25 24 20 20 24 25 26 28 25 23 21 21 20 21 19 18 19 18 19 19 16 13 11 12 13 12 14 13 14 15 16 18 18 18 19 20 23 24 25 25 27 28
33 31 32 37 30 33 31 31 27 22 23 25 25 26 25 26 24 21 20 20 20 19 18 19 20 20 19 17 15 13 13 13 13 13 13 15 16 17 18 20 21 23 23 24 25 25 26 27 28
35 35 32 30 33 35 33 31 28 23 24 23 23 25 25 26 24 21 21 21 19 17 17 19 21 22 21 19 16 15 14 13 12 12 12 12 13 14 16 19 21 22 24 26 28 28 29 30 30
31 35 33 31 31 32 34 34 31 24 25 23 22 25 25 27 26 24 22 19 19 19 18 20 22 22 21 21 18 16 15 13 14 12 10 11 12 11 13 14 16 19 21 23 25 27 29 31 32
30 32 28 29 29 27 33 35 36 28 27 24 21 23 27 31 30 29 24 21 19 18 19 22 25 24 24 23 20 18 16 16 16 14 14 14 15 17 17 17 18 19 20 21 22 23 25 27 29
34 30 26 25 29 29 37 39 38 34 29 24 22 24 28 31 31 29 25 24 23 20 21 22 28 26 25 24 21 21 19 19 18 16 17 18 20 22 22 22 23 23 23 25 25 25 26 27 29
34 28 28 26 28 36 35 43 41 36 29 24 25 26 27 30 28 28 27 25 24 21 22 22 27 29 26 26 23 23 21 20 21 21 24 26 30 31 31 30 27 28 28 29 30 30 30 31 33
37 34 33 29 30 34 40 39 44 39 30 30 28 28 30 30 28 28 28 27 22 26 23 21 24 29 26 27 27 25 24 23 24 23 26 29 31 29 32 34 33 31 32 31 32 33 35 36 37
40 39 38 36 34 36 39 43 41 41 37 32 31 30 31 35 26 27 27 26 28 25 26 24 21 26 27 28 28 27 28 27 26 25 27 28 29 31 34 36 36 36 33 32 32 35 37 36 37
43 42 43 42 38 38 41 42 46 38 37 39 35 31 34 37 24 24 28 24 27 26 26 25 25 25 23 26 27 28 30 28 27 28 29 31 31 30 32 31 29 30 33 33 33 36 37 35 34
43 43 42 44 44 43 43 42 40 40 35 42 38 37 35 33 26 24 29 25 27 26 26 26 27 27 25 24 25 27 31 29 27 28 28 27 32 28 26 27 27 27 30 32 33 35 36 35 34
43 44 44 44 46 48 48 37 40 42 40 38 42 41 37 34 27 28 28 26 27 24 25 24 27 27 26 25 25 24 27 25 27 27 28 30 29 24 25 26 28 30 32 33 36 38 38 36 35
48 46 46 47 48 48 49 42 42 44 40 41 41 41 38 33 28 27 29 28 25 26 26 25 25 25 24 21 23 23 24 24 26 26 28 29 26 25 27 29 33 33 35 38 40 40 39 36 37
47 47 46 48 45 48 47 47 45 45 44 40 43 42 41 34 29 28 28 30 27 27 28 26 24 24 24 23 22 23 23 26 27 28 30 29 28 29 32 34 37 37 39 40 41 42 41 38 38
49 47 47 49 53 53 55 52 52 47 45 44 46 40 43 36 34 30 27 29 31 29 29 27 23 25 28 24 22 22 24 28 28 32 32 31 28 32 35 38 39 40 40 40 43 44 43 41 39
49 49 48 50 53 55 54 55 56 52 47 46 48 43 41 37 34 31 28 26 30 29 28 27 26 26 29 26 24 25 27 28 30 31 28 28 30 34 37 40 41 42 42 44 43 40 39 41 42
53 53 51 51 48 54 56 57 57 53 49 48 49 45 41 37 35 30 28 29 28 30 29 29 27 26 27 28 27 29 28 29 28 26 27 30 34 37 40 41 42 43 43 40 38 40 42 44 47
50 47 46 46 48 51 49 57 57 52 50 51 48 47 41 36 33 29 29 30 29 30 30 30 28 27 28 29 30 30 30 28 29 29 32 36 38 40 40 42 43 42 39 40 41 43 45 47 49
47 43 46 47 48 49 47 56 55 53 52 51 47 43 39 35 29 31 30 30 28 29 29 28 28 28 29 32 31 31 29 30 31 33 37 39 39 40 42 43 41 40 41 42 45 48 50 52 55
46 44 45 47 46 52 47 52 53 48 50 49 44 44 36 35 30 30 30 29 29 30 29 29 28 29 30 33 33 31 31 32 34 37 40 40 40 42 42 40 41 43 43 45 47 50 52 55 58
45 46 45 46 49 58 47 50 52 43 44 43 44 44 36 32 30 29 30 30 31 31 32 30 29 30 32 33 33 33 34 35 38 39 39 39 41 40 40 41 43 44 45 47 49 52 56 60 63
41 43 46 47 47 45 42 50 47 38 38 39 44 41 34 32 28 29 30 30 32 32 32 31 30 31 33 33 34 35 36 39 39 39 39 40 39 39 41 43 44 45 48 50 54 58 61 64 67
34 43 35 45 42 37 42 45 44 30 38 41 43 37 34 27 26 29 30 30 31 30 30 31 30 31 32 33 35 36 39 38 38 40 40 40 39 41 43 44 46 48 50 55 58 61 65 69 71
38 33 42 45 46 44 47 50 42 29 32 39 39 29 28 28 26 25 28 30 30 30 29 29 29 31 33 33 35 37 37 37 38 40 39 39 42 43 44 46 48 51 56 58 62 67 70 72 70
33 41 37 42 46 44 35 42 35 33 35 28 30 25 22 24 25 27 27 27 28 29 29 28 28 29 31 34 36 35 35 38 38 37 39 42 44 45 47 49 52 56 59 63 68 72 72 70 68
25 33 37 43 46 35 31 32 32 37 33 23 22 26 25 23 24 24 25 25 25 26 27 27 28 30 32 33 34 35 37 35 36 38 41 44 45 48 50 51 56 59 63 68 72 73 70 68 69

GFSSGP_500_spd_015.txt.gz
Wind_Speed
31 30 29 26 22 19 20 21 24 23 23 23 23 23 21 23 24 27 21 22 20 18 17 17 18 17 17 17 18 18 15 12 12 10 11 11 11 11 14 16 19 20 21 21 21 21 21 21 22
34 31 31 30 26 22 23 22 25 23 21 23 26 24 21 22 23 26 25 22 21 20 18 19 20 20 19 18 17 16 14 12 13 12 11 11 12 12 15 17 20 21 22 23 22 21 21 21 21
37 34 33 33 29 25 25 23 23 23 21 23 26 23 22 23 24 25 23 22 21 21 20 20 22 21 20 18 17 16 15 13 12 12 13 12 13 15 12 13 17 20 22 22 22 22 23 23 24
29 39 38 36 29 29 28 28 25 24 21 21 25 27 25 25 24 23 21 22 20 21 22 22 21 20 19 18 17 16 14 13 12 13 13 12 14 17 16 16 15 16 18 24 25 26 26 27 28
28 27 37 40 31 30 31 31 30 25 21 22 27 28 27 25 24 24 21 22 22 21 21 21 20 20 20 18 17 16 15 13 12 13 13 13 14 16 17 17 18 20 20 21 22 23 25 26 27
34 32 31 28 36 35 35 34 32 29 24 23 27 28 28 25 24 23 22 23 21 18 18 19 20 20 20 19 18 17 17 14 13 13 12 12 13 15 17 19 19 20 22 24 26 27 28 28 29
38 38 35 30 28 39 36 37 34 32 30 26 27 28 29 29 25 23 22 21 20 17 16 17 19 21 21 21 19 18 18 17 15 14 12 12 10 10 12 14 17 18 20 23 26 27 29 30 32
38 38 35 32 31 28 36 39 35 34 34 30 27 28 29 30 28 24 24 21 19 16 17 19 21 22 23 22 21 21 20 18 17 15 14 13 11 11 11 14 16 18 19 21 22 24 25 27 28
34 38 28 25 27 26 31 36 38 36 33 33 30 28 27 29 31 28 25 21 18 19 18 17 20 23 24 23 23 23 22 20 18 17 16 16 15 15 17 21 22 23 22 23 24 24 25 27 28
36 35 25 21 23 27 37 38 40 39 35 33 29 29 28 29 30 30 25 22 20 21 21 19 20 22 26 26 25 25 24 22 20 20 19 19 19 20 24 27 30 30 28 28 28 28 29 30 31
36 33 30 27 27 29 37 43 39 41 38 32 31 32 32 30 30 27 24 23 24 23 20 22 23 23 25 29 26 27 26 25 22 21 21 23 23 26 30 33 33 33 34 33 32 32 31 32 34
43 37 34 29 29 29 33 40 41 39 39 36 34 35 34 33 30 27 27 26 24 24 22 26 26 24 25 26 28 27 27 25 25 23 24 25 25 29 33 34 36 36 36 36 36 34 33 35 37
47 39 38 35 33 33 33 37 39 39 38 41 37 37 35 33 29 28 26 26 22 22 28 29 27 24 23 23 25 26 26 26 27 27 27 27 29 30 34 33 33 34 34 32 28 28 30 34 35
47 47 44 43 38 38 38 37 41 38 41 36 40 38 37 35 32 30 26 23 22 22 27 28 27 26 24 24 24 25 25 26 28 28 27 30 30 30 30 32 31 27 25 26 27 29 31 33 36
42 47 48 46 43 42 42 41 40 37 40 37 37 40 39 40 35 29 27 24 26 23 29 29 29 27 27 25 23 23 24 25 26 27 26 28 29 28 31 30 26 25 25 28 30 31 32 35 37
42 44 46 47 46 46 44 38 39 41 40 40 38 38 41 42 38 31 28 29 25 25 28 30 29 26 28 25 24 23 24 24 25 25 26 28 29 29 31 26 24 26 28 32 33 35 36 38 39
45 44 43 45 45 48 49 42 40 42 44 40 38 41 41 45 40 32 31 31 27 27 27 30 30 26 25 24 26 24 24 24 24 26 27 28 29 30 31 30 29 31 33 36 36 37 39 41 42
45 48 49 50 51 51 50 48 48 45 48 46 39 39 44 43 42 35 33 30 29 29 29 29 29 26 23 24 27 25 23 24 25 27 28 29 31 32 32 28 31 33 36 39 41 43 43 42 42
47 54 55 54 54 54 54 53 51 49 48 49 42 42 43 43 41 41 34 31 29 29 32 30 30 27 24 26 29 27 25 24 26 26 28 30 33 29 27 30 33 36 39 42 43 45 45 43 38
48 51 53 54 53 56 56 56 55 53 49 49 48 44 46 43 41 42 38 34 30 30 32 32 31 30 27 28 30 28 27 27 27 27 29 30 28 26 28 32 36 39 41 42 45 47 42 37 38
48 50 52 53 52 53 58 55 54 52 53 51 49 47 48 48 42 41 40 37 31 31 28 32 32 29 28 27 29 31 31 30 30 31 30 31 31 30 33 37 39 40 42 45 47 42 39 41 43
50 49 52 54 57 57 56 60 52 51 49 50 51 51 47 49 41 41 40 37 32 34 30 30 33 32 28 29 29 30 32 33 33 34 33 35 34 34 38 40 41 42 45 47 43 42 43 44 46
56 53 54 56 58 60 58 64 55 54 51 50 51 52 51 50 41 42 37 38 36 34 33 31 32 32 30 29 30 30 32 33 35 36 36 37 37 39 41 42 43 45 46 45 44 44 46 47 49
55 54 55 56 57 64 58 60 58 51 49 50 53 53 51 49 40 40 36 39 35 34 33 31 30 30 29 31 31 32 33 36 37 38 39 40 41 42 43 43 45 46 44 44 45 47 48 50 53
54 50 51 53 57 67 62 60 59 49 48 51 50 48 48 46 40 39 38 36 35 34 33 33 31 30 30 31 32 33 34 36 37 39 41 42 43 43 43 45 45 44 44 46 47 49 52 56 60
42 41 46 50 54 58 54 65 56 50 45 43 48 47 49 48 41 39 39 36 37 34 34 33 32 32 31 32 33 34 36 36 38 41 43 43 43 43 45 44 44 44 46 47 50 53 56 60 63
40 41 33 40 46 47 48 52 51 42 38 37 42 45 50 43 40 40 37 36 37 34 34 33 33 32 31 32 34 35 37 38 40 42 42 42 42 44 44 43 44 46 48 50 53 56 60 63 67
38 37 34 37 38 43 40 39 39 33 31 38 40 40 42 38 38 39 38 36 36 34 34 33 32 31 32 32 34 36 37 39 40 40 39 42 43 42 42 45 47 48 51 53 56 60 65 67 72
32 34 39 39 42 37 39 38 30 32 32 31 38 38 34 32 34 38 37 36 36 34 33 32 31 31 32 32 34 35 36 37 38 38 41 41 41 42 44 47 48 50 53 56 61 64 67 72 76
35 32 34 41 36 40 36 35 25 21 32 25 34 39 35 36 39 37 34 35 33 31 32 31 32 31 32 33 33 34 35 37 36 39 38 39 42 44 46 49 51 54 56 61 63 67 72 77 75

GFSSGP_500_spd_018.txt.gz
Wind_Speed
34 33 31 29 27 24 20 20 23 23 23 23 23 24 24 22 21 23 20 19 17 16 17 17 17 17 16 17 16 17 17 17 15 14 13 12 11 11 11 12 14 16 17 19 20 21 21 21 22
33 36 35 31 31 27 24 22 24 23 21 22 24 26 25 24 22 21 21 20 19 17 16 18 19 18 18 17 17 17 16 15 14 12 12 11 10 10 11 11 13 17 19 20 21 21 21 21 21
27 36 38 37 32 26 27 25 25 23 22 20 22 27 26 25 25 23 22 21 20 19 18 19 20 20 20 19 17 16 15 15 14 11 10 10 10 11 12 13 12 12 13 16 20 21 21 21 22
27 28 37 40 31 29 29 28 27 26 23 20 22 26 26 24 26 26 26 25 21 20 20 20 21 21 20 18 18 16 16 14 13 12 11 12 13 12 12 12 15 16 17 16 16 19 23 26 27
32 29 28 31 34 27 30 31 28 27 26 23 22 25 26 25 26 28 26 25 22 22 21 22 22 21 19 17 17 18 17 15 13 12 12 11 11 12 12 13 15 17 19 20 21 22 23 25 26
37 34 32 22 22 34 36 34 30 29 29 27 26 25 25 27 26 27 26 24 24 22 21 22 21 20 19 18 18 18 18 17 15 13 12 11 11 12 12 13 14 17 19 20 22 23 25 27 29
38 38 36 29 23 28 33 39 34 32 33 31 30 27 26 27 27 27 23 22 23 20 20 19 19 20 20 20 20 20 19 19 18 14 13 12 12 11 10 10 10 12 14 16 19 21 23 24 26
38 40 39 32 27 27 30 32 37 36 35 34 32 30 26 28 29 27 27 23 20 19 20 20 20 20 21 21 21 22 21 21 19 16 16 15 14 13 13 15 15 18 18 20 21 22 23 24 25
36 40 34 30 30 27 33 36 36 36 38 37 34 31 29 29 30 30 28 24 20 19 19 22 20 17 19 21 22 23 23 22 20 19 18 17 17 16 17 19 20 23 26 28 28 28 28 28 28
35 34 26 24 27 29 35 41 42 38 39 38 36 35 34 31 31 31 29 24 21 21 21 20 22 21 20 21 24 24 24 24 23 22 21 20 20 18 20 23 25 29 31 34 37 35 32 34 33
37 35 29 27 30 30 33 38 42 41 37 38 40 40 37 35 33 31 29 25 25 25 22 24 25 24 24 23 22 25 25 25 25 25 24 22 21 21 22 25 29 32 34 36 36 35 35 36 35
41 39 36 31 34 34 34 37 39 37 35 37 40 42 38 36 33 30 29 27 28 29 25 25 25 28 27 24 23 22 26 26 26 27 27 25 22 23 25 28 30 33 36 34 32 30 31 29 31
36 36 42 38 37 37 36 35 35 34 33 36 37 40 40 38 36 32 30 27 27 27 27 29 29 31 31 27 24 22 23 25 25 29 29 26 25 27 29 30 31 32 32 30 25 23 24 27 28
33 35 35 43 40 39 38 35 39 28 33 34 34 36 40 39 38 36 32 27 25 27 27 30 31 34 32 29 25 23 20 22 24 26 28 28 27 27 29 29 30 31 30 25 24 26 28 30 31
32 35 35 37 40 42 43 42 39 34 37 38 34 32 36 41 40 39 36 29 25 26 30 27 30 34 32 30 26 24 22 22 23 25 26 26 27 26 28 29 29 31 28 26 27 28 30 33 35
34 34 35 36 39 45 48 45 40 40 41 40 40 33 34 37 40 41 39 32 28 28 28 31 30 31 32 30 27 24 25 23 24 24 25 26 26 26 27 29 30 32 31 30 30 32 34 36 39
34 34 35 38 42 46 50 54 48 47 43 42 42 38 35 34 36 41 41 36 33 31 28 31 32 31 31 29 27 25 26 26 25 25 25 25 26 26 28 31 33 34 31 31 33 34 37 40 42
36 38 39 39 43 49 50 55 52 50 46 43 45 42 37 36 36 40 42 40 37 34 31 30 32 29 29 28 28 26 26 29 27 26 25 27 28 28 31 33 35 30 29 33 35 37 38 40 42
39 41 44 44 43 49 53 53 52 52 51 47 45 43 41 37 37 40 40 40 40 35 34 32 33 31 26 29 29 28 29 31 28 26 27 28 29 30 31 32 29 29 31 34 38 39 39 41 43
42 44 47 48 47 48 51 54 56 54 52 49 49 48 45 42 41 41 39 38 41 39 35 33 33 34 30 28 31 29 29 31 29 29 29 30 31 31 31 31 32 33 35 38 40 40 42 45 44
46 46 48 51 51 52 53 50 57 54 54 53 51 49 48 46 45 45 39 39 38 41 37 34 35 35 35 32 30 29 29 30 32 31 31 33 33 34 34 35 37 39 39 42 42 43 46 46 45
51 52 53 55 56 55 54 56 52 56 54 53 51 51 51 45 45 48 41 39 38 41 42 36 37 34 36 34 30 29 30 30 31 33 34 36 37 37 38 39 42 42 44 44 44 46 47 45 44
55 54 56 56 58 58 56 61 51 50 49 50 48 49 50 49 47 48 43 41 42 41 41 38 38 37 33 34 32 31 32 31 32 33 36 38 38 40 41 43 44 46 47 46 47 48 46 44 46
56 56 58 60 61 65 60 65 52 53 47 45 48 48 48 48 48 48 45 42 44 41 41 39 40 38 35 32 32 33 33 32 32 34 36 38 40 43 43 45 46 48 47 47 48 47 46 47 49
54 53 55 59 63 66 64 66 56 54 46 47 46 51 50 50 51 46 43 41 41 39 40 39 40 38 36 33 32 32 31 32 34 36 37 39 42 43 45 46 48 47 48 48 47 47 48 50 53
52 51 50 52 59 63 63 68 59 58 54 48 42 46 48 50 49 46 42 41 40 40 40 40 41 38 37 35 34 33 32 33 35 37 39 41 43 45 46 47 46 47 48 46 48 49 51 54 57
34 42 39 44 45 47 55 67 65 64 56 52 46 42 47 46 46 42 42 43 42 40 38 41 40 39 36 35 34 34 34 35 36 39 41 42 44 45 45 45 47 46 46 48 49 52 54 57 60
31 33 31 36 44 48 46 44 46 49 47 47 43 45 47 48 45 42 42 42 42 41 39 39 40 38 36 35 34 34 34 35 37 40 42 42 42 42 43 45 45 45 47 50 52 55 57 60 65
37 36 34 37 44 45 45 40 31 30 27 33 36 44 47 45 40 40 37 40 41 41 39 39 39 38 36 34 34 35 36 36 38 38 38 40 39 42 44 44 45 47 50 53 56 58 62 63 64
35 39 42 41 36 36 37 41 31 30 23 31 35 41 38 36 38 40 38 40 41 41 39 39 38 37 35 34 34 35 36 36 36 36 38 38 41 42 43 44 47 50 54 56 59 61 60 64 70

GFSSGP_500_spd_021.txt.gz
Wind_Speed
27 32 33 32 30 28 24 23 23 22 21 20 21 24 25 23 22 19 17 18 16 17 17 17 17 17 15 14 15 14 14 14 13 13 12 10 9 8 9 9 10 12 13 14 16 18 20 20 20
24 26 34 36 34 29 26 25 24 22 19 18 20 22 25 26 23 20 18 17 16 17 17 17 17 17 16 16 16 17 16 13 12 12 12 11 9 9 10 10 9 11 12 16 18 19 20 21 20
28 27 27 35 36 28 27 26 25 24 21 18 18 22 25 25 25 22 21 20 22 18 20 19 18 18 17 18 18 17 16 14 13 13 12 10 9 10 10 12 13 12 11 10 11 14 18 20 21
31 31 29 28 30 30 28 30 28 28 24 21 19 21 23 25 25 26 26 26 24 24 22 20 19 18 18 18 18 17 16 14 14 12 12 12 10 9 10 11 13 14 15 15 15 16 17 18 20
33 33 34 26 20 28 30 33 30 29 27 24 22 22 22 23 25 26 26 24 27 27 25 24 22 20 19 18 18 17 16 15 14 13 12 12 11 10 10 11 11 12 13 15 16 19 20 22 23
35 34 34 26 19 23 34 34 31 31 30 28 27 25 22 21 23 26 27 26 25 25 25 24 24 21 20 18 19 19 18 16 16 14 14 12 12 12 13 12 12 12 13 14 14 17 18 20 23
33 35 34 30 23 24 27 37 37 33 31 32 30 28 26 24 24 26 27 26 25 24 25 23 23 22 20 19 20 20 19 18 17 16 16 15 14 14 14 12 12 11 11 13 14 16 18 19 20
31 34 35 30 26 26 29 30 30 35 39 37 34 31 30 27 26 26 27 26 24 22 22 23 22 23 21 19 20 22 22 20 20 18 18 16 16 17 16 16 15 16 18 20 20 23 25 27 27
32 34 30 27 29 30 34 37 36 35 34 42 39 36 34 32 30 29 29 28 25 22 23 23 24 24 23 21 20 21 23 23 22 21 20 19 19 19 20 19 18 19 22 25 26 30 31 32 29
33 34 25 25 29 34 38 41 43 40 37 36 40 42 38 37 34 33 31 28 26 25 26 25 26 26 23 22 21 20 22 23 23 23 22 23 21 22 23 21 21 21 25 28 30 31 33 33 30
31 30 27 23 25 31 37 42 46 43 38 36 37 37 42 40 37 34 33 30 28 28 28 28 28 26 25 25 24 23 21 24 26 26 26 25 25 24 25 22 23 22 26 30 31 33 29 26 23
24 24 27 26 28 30 33 39 42 41 29 33 35 37 34 41 39 36 33 33 30 28 30 30 29 29 28 29 27 26 23 24 27 27 27 28 27 27 25 23 24 26 29 29 31 30 23 18 18
24 23 23 25 30 32 33 35 38 38 29 33 33 34 35 33 39 39 37 32 31 28 30 32 33 33 32 31 31 28 25 24 25 29 28 27 28 28 25 25 26 29 30 30 30 26 21 21 22
25 24 24 24 25 30 37 35 46 35 34 33 30 27 30 34 33 39 37 34 31 31 29 31 32 34 35 34 35 31 26 24 24 27 26 27 25 26 26 26 27 29 29 29 30 27 25 25 27
26 25 24 23 24 27 35 44 42 37 40 36 35 30 28 28 33 33 37 37 33 31 32 31 33 33 33 35 37 32 27 26 27 26 27 27 26 24 24 27 28 29 29 30 31 29 29 29 31
29 29 25 25 25 25 29 34 42 41 41 41 38 38 33 30 30 34 37 39 38 33 32 33 34 33 33 35 36 31 31 28 28 28 28 27 25 24 25 27 28 29 31 33 34 32 31 33 34
28 28 28 29 29 28 26 29 37 46 46 44 43 42 39 34 34 34 37 40 41 39 34 33 34 32 33 35 34 32 31 28 30 30 29 28 26 26 26 28 29 31 33 36 36 32 30 32 35
31 32 33 33 31 32 30 33 29 40 50 52 49 47 43 37 35 36 37 40 38 41 39 36 34 33 34 36 34 33 31 28 30 31 32 29 27 28 29 29 31 32 33 35 30 29 31 34 38
31 33 34 36 36 35 36 42 39 34 41 50 52 51 48 44 39 38 39 40 39 34 40 40 37 35 34 35 36 34 32 31 31 32 32 29 30 31 30 31 33 33 34 32 32 33 35 37 39
33 35 37 40 41 47 46 50 48 43 39 44 49 53 52 48 45 40 40 41 40 37 36 42 40 38 35 33 36 33 33 31 32 31 32 32 34 33 33 34 34 35 35 35 36 39 41 41 42
39 42 45 48 49 50 55 59 52 48 45 43 48 50 49 49 48 44 41 43 44 37 38 38 42 39 36 35 33 35 33 31 32 31 32 35 35 35 36 36 37 37 38 39 41 43 45 46 45
48 48 50 53 57 58 54 62 57 50 44 46 46 50 49 48 50 45 42 44 48 39 40 38 40 41 38 36 34 35 36 31 33 32 32 34 36 38 39 39 39 40 41 42 44 47 49 49 49
50 53 55 58 60 62 62 66 61 58 49 44 45 49 51 50 51 49 45 44 47 40 40 40 39 41 41 38 35 35 33 35 33 33 35 36 37 39 40 40 40 41 43 46 48 50 51 51 50
53 56 58 60 61 65 61 64 59 56 56 47 44 47 49 51 50 52 47 47 45 41 43 43 39 39 42 41 36 36 34 35 34 35 36 37 37 38 40 40 41 43 45 49 51 51 52 52 50
57 59 61 63 65 67 65 65 58 56 56 58 50 48 48 51 47 49 48 48 46 42 42 43 40 40 41 41 39 37 35 34 35 35 36 38 38 39 41 42 43 45 48 50 51 52 52 51 51
30 32 37 42 49 56 59 69 62 58 61 59 56 49 48 52 50 46 47 46 44 43 43 45 44 39 40 41 40 37 36 35 35 35 35 38 40 41 42 43 44 46 48 49 51 52 51 51 53
37 39 35 39 37 42 40 40 55 60 59 61 60 50 46 45 52 49 48 44 41 41 43 46 42 39 40 41 40 39 37 37 37 36 37 39 41 42 42 43 43 45 47 49 50 50 51 53 56
46 45 42 43 42 46 48 43 32 23 35 32 51 55 46 47 45 49 48 45 40 40 44 46 44 40 41 42 39 38 36 38 37 38 38 38 40 41 41 41 42 45 47 49 49 51 53 56 58
43 45 47 48 49 50 50 45 31 29 26 28 25 33 48 47 48 42 45 42 38 40 43 45 43 40 41 39 37 37 37 38 39 38 38 38 39 39 39 40 43 46 47 49 51 54 56 59 59
34 33 39 43 40 45 47 31 31 29 24 30 30 29 34 48 46 43 40 37 36 39 43 45 43 40 39 37 35 36 37 39 39 38 37 37 38 39 40 42 44 45 48 51 53 56 56 57 61

GFSSGP_500_spd_024.txt.gz
Wind_Speed
23 26 30 31 30 29 27 25 25 23 23 21 20 21 22 23 24 23 18 19 18 18 19 18 18 18 18 18 16 14 14 15 14 12 10 10 10 11 10 11 11 12 14 14 16 18 18 18 19
22 23 26 29 32 30 29 29 28 26 24 22 20 21 23 24 23 24 22 21 19 19 19 20 21 20 20 18 17 17 16 16 15 14 12 10 11 11 11 12 12 13 14 16 18 20 20 20 21
24 24 26 27 26 30 30 31 31 29 26 23 22 21 22 22 23 22 22 20 21 21 19 20 21 21 20 19 19 18 17 16 15 14 13 12 12 12 12 12 13 14 15 14 12 13 14 16 18
27 28 28 28 22 23 31 35 33 32 28 25 23 23 23 23 22 22 23 21 20 22 24 21 23 22 22 21 20 19 18 17 16 15 14 13 13 13 14 13 14 13 15 16 17 17 17 17 18
30 30 31 27 21 21 27 35 34 35 32 30 28 27 26 25 22 22 24 24 25 24 23 27 26 26 24 22 20 19 18 18 17 16 16 15 14 14 13 13 13 13 13 14 15 16 17 18 19
33 31 32 25 22 24 26 33 36 36 35 32 30 29 25 24 23 22 24 26 27 25 25 25 25 25 25 23 20 19 19 19 18 18 17 17 16 15 14 14 14 14 13 13 13 13 14 13 16
33 32 32 29 24 28 28 30 32 37 35 35 32 31 29 28 26 25 24 26 26 25 26 27 26 26 24 21 21 21 20 19 20 19 18 18 18 17 16 16 15 14 12 12 13 16 17 18 20
32 32 32 27 24 26 30 32 29 30 39 37 34 35 34 31 30 29 27 27 28 27 24 26 27 26 25 23 21 21 20 20 20 21 20 20 20 20 20 18 17 17 16 18 19 21 24 27 29
32 32 29 23 24 27 32 36 35 32 32 35 39 40 35 35 34 33 31 30 29 29 25 26 28 27 25 25 23 22 21 22 23 22 22 21 22 22 22 22 21 21 20 21 21 23 26 29 30
32 31 24 24 25 30 36 39 40 37 37 36 35 36 40 38 37 36 35 33 30 29 28 27 29 28 28 28 26 23 22 21 22 23 23 24 24 24 23 23 23 23 22 23 23 25 30 29 27
32 29 29 28 29 31 35 39 42 43 40 38 37 38 35 36 41 38 38 36 35 33 30 30 31 31 31 30 30 27 25 22 22 23 26 26 27 27 27 26 26 26 25 24 25 27 29 29 22
30 29 28 29 30 29 30 34 37 42 39 40 36 36 36 35 34 39 40 38 36 34 32 32 33 35 34 32 33 31 28 26 23 23 27 30 30 29 28 28 28 27 26 26 27 29 29 29 24
30 28 26 26 27 29 31 30 33 39 38 38 33 31 31 32 33 33 38 38 36 35 35 34 33 36 37 37 35 32 31 29 26 26 29 32 33 30 29 29 29 27 27 28 28 29 29 28 27
29 27 26 25 24 26 28 32 40 31 36 37 36 32 30 29 29 31 32 37 38 37 35 36 34 35 35 37 37 36 34 33 29 28 29 31 33 31 29 28 29 29 28 28 29 30 30 30 30
29 28 27 25 26 24 26 26 28 32 42 38 37 33 32 28 28 28 32 33 37 39 38 36 35 34 35 35 36 36 36 36 32 30 29 30 31 30 29 29 29 30 29 29 31 31 32 33 34
32 31 28 25 26 26 26 22 27 31 41 40 41 38 36 34 31 29 31 34 36 39 40 38 36 35 36 36 36 36 35 37 35 33 31 32 33 31 30 29 30 30 30 31 32 32 34 37 38
34 33 31 31 31 30 28 26 22 28 30 41 44 43 40 38 36 33 33 34 38 40 42 41 38 37 38 37 35 34 37 36 34 35 33 33 34 34 32 31 31 31 31 33 33 34 35 36 31
34 34 32 32 31 32 31 32 26 26 26 27 36 45 45 44 43 40 36 37 39 41 41 43 41 40 39 38 35 33 37 37 33 35 35 35 36 36 33 33 33 33 32 33 34 34 34 33 34
28 29 31 31 32 34 35 37 35 32 31 31 30 35 45 51 48 47 41 37 40 41 42 40 44 43 42 39 36 35 35 38 36 35 36 35 35 37 36 36 35 34 33 35 36 36 36 37 37
26 29 32 34 35 38 38 40 39 37 35 37 38 38 40 46 53 55 51 44 41 42 44 41 40 45 45 42 39 37 38 38 37 34 35 35 36 36 39 38 37 37 36 38 38 38 39 40 41
28 32 36 39 42 44 46 47 47 47 48 45 44 45 42 44 47 52 55 49 42 44 44 43 40 43 47 45 41 39 39 37 36 33 33 36 37 37 38 40 40 40 40 41 41 41 43 44 44
34 36 41 45 49 52 53 59 57 58 54 53 49 47 46 47 47 51 54 53 46 42 44 45 39 43 44 45 44 41 40 38 35 35 34 37 37 37 38 39 41 42 43 43 44 45 45 47 48
38 42 46 50 54 58 59 67 64 63 61 57 57 55 53 51 50 49 53 53 49 46 45 46 41 42 43 42 44 43 41 39 35 33 36 37 38 38 38 39 40 42 43 44 46 47 48 49 50
44 48 50 54 58 65 65 69 68 66 66 65 61 59 58 55 52 51 52 54 52 51 46 46 41 44 43 42 42 44 42 43 36 34 35 39 39 39 39 40 41 43 44 45 47 49 50 51 52
43 46 50 53 54 60 59 65 66 62 64 63 63 60 60 58 54 52 51 54 54 51 47 45 41 44 43 42 42 42 43 42 38 36 36 37 40 41 41 42 42 44 45 46 48 50 51 52 53
38 32 32 40 46 47 41 33 20 30 45 61 71 67 61 58 54 49 49 51 54 51 49 45 41 43 42 42 42 40 41 43 39 37 37 38 39 39 40 41 43 45 46 47 48 50 51 52 52
30 36 44 51 52 55 54 49 47 36 39 45 46 68 67 59 52 50 48 46 51 51 48 45 43 44 43 42 42 41 41 45 39 37 38 39 40 41 40 41 42 43 44 46 48 49 51 52 53
38 43 44 45 49 50 49 45 44 47 44 42 38 35 56 62 51 50 46 47 47 48 47 45 45 46 44 43 44 42 42 44 40 37 38 39 41 42 41 41 42 42 43 45 48 50 51 52 53
38 37 41 42 46 50 47 40 36 34 37 32 34 28 27 42 49 49 45 46 47 46 44 42 43 45 44 42 43 42 42 42 40 38 37 40 41 41 42 42 42 42 43 46 48 50 51 53 56
35 36 37 39 38 38 39 31 33 31 33 31 24 26 28 32 43 48 45 42 46 42 44 42 43 45 44 43 43 42 43 41 40 40 40 39 40 41 42 43 43 42 45 47 49 51 53 56 58

GFSSGP_500_spd_027.txt.gz
Wind_Speed
25 26 26 28 29 29 27 28 27 25 24 25 21 21 24 24 26 23 24 21 22 22 20 18 19 20 21 22 21 21 19 17 17 15 15 15 14 15 15 14 14 14 14 14 15 16 17 18 19
24 23 24 26 28 29 26 31 30 30 27 24 23 23 23 26 26 25 25 22 23 24 23 21 21 21 21 21 22 21 20 19 18 17 16 15 14 14 14 15 15 15 15 15 17 18 20 20 20
25 24 26 26 24 24 25 35 32 31 29 27 26 24 27 28 23 24 24 23 22 24 24 20 20 20 22 22 22 22 22 21 19 19 17 16 15 14 14 15 16 17 17 16 15 15 15 15 15
28 28 31 28 23 20 25 34 35 31 31 30 29 26 27 26 25 24 25 24 21 22 23 24 22 21 22 25 24 23 22 22 20 19 18 17 16 15 16 16 16 16 17 17 18 19 19 19 19
32 32 32 30 23 23 27 30 28 34 35 32 31 32 31 27 24 24 23 23 24 24 25 26 27 26 25 25 25 24 24 22 21 20 18 18 17 17 17 17 16 16 15 15 15 15 16 17 17
35 33 33 29 23 25 29 30 29 30 35 35 31 34 34 29 28 25 23 24 27 24 27 27 27 27 27 25 24 24 24 22 21 21 20 20 19 18 18 18 17 16 16 15 15 15 15 14 15
37 35 32 31 27 27 29 35 30 29 32 34 37 32 39 35 30 28 27 26 27 29 30 27 26 26 27 25 24 24 23 21 21 21 22 21 21 19 20 19 18 16 16 16 15 15 16 17 20
39 37 35 33 28 26 30 35 33 31 27 36 33 34 39 34 33 32 31 30 29 28 30 28 27 26 28 27 25 24 24 21 20 20 21 23 23 22 21 21 19 19 18 18 18 19 21 21 23
40 41 36 32 26 25 35 33 37 34 31 29 32 38 39 32 35 35 34 33 32 31 30 30 28 28 28 27 27 25 24 24 22 22 22 23 24 24 23 23 22 22 22 22 23 23 24 24 26
40 41 36 29 29 32 36 35 41 35 35 35 32 34 36 39 38 36 36 35 35 34 32 31 31 29 29 28 28 28 26 26 24 22 22 22 24 25 25 24 24 24 25 25 26 27 27 26 27
39 40 34 35 31 32 34 33 41 39 38 36 36 36 37 33 33 38 39 38 37 36 34 32 32 32 32 32 30 32 29 28 26 24 23 24 26 27 27 27 27 27 28 28 28 29 28 28 29
40 38 37 37 32 35 33 33 39 38 40 38 40 40 33 33 34 34 35 40 42 39 37 36 35 34 34 35 34 34 29 31 29 27 27 27 28 30 30 29 30 30 30 30 30 29 30 30 30
38 38 38 35 34 34 35 34 33 40 39 39 37 35 33 33 33 33 34 36 38 40 39 38 38 36 35 35 37 36 33 36 31 30 30 30 30 30 31 31 31 32 33 31 32 31 31 32 30
40 40 35 34 31 34 33 34 35 35 33 38 38 33 32 32 32 32 32 33 35 36 39 39 39 38 38 36 37 36 36 36 34 33 34 32 32 30 30 31 32 32 33 33 34 34 31 32 32
41 38 37 33 32 32 31 30 32 31 34 37 39 38 35 34 33 31 30 30 33 36 37 41 39 39 38 37 36 36 37 37 35 35 36 34 33 33 31 31 31 32 33 33 33 34 33 33 33
41 39 37 36 33 33 32 29 31 31 31 34 37 39 38 35 34 32 32 31 33 36 37 38 41 41 40 38 37 37 36 35 35 35 35 35 35 34 34 33 33 34 35 34 34 34 35 35 35
41 39 38 38 35 36 35 32 30 29 30 30 33 33 36 37 36 35 35 34 32 34 37 39 39 42 41 40 39 38 36 34 34 35 36 35 36 36 35 35 36 36 36 36 36 36 35 36 35
40 42 40 39 38 37 36 35 33 33 32 31 28 28 28 30 36 38 38 39 37 37 37 40 39 41 43 42 41 39 38 35 34 36 36 36 36 37 38 37 38 38 38 38 38 37 38 38 38
38 38 37 37 38 39 40 39 38 38 35 34 33 32 31 31 36 40 42 42 42 40 40 40 42 41 43 44 44 43 40 38 36 37 35 37 36 36 38 39 38 40 39 40 40 40 40 40 40
32 32 34 34 36 38 39 38 39 38 37 39 39 38 35 35 35 35 37 41 48 45 42 42 43 43 44 43 46 46 45 39 39 38 36 36 36 37 38 38 39 39 40 42 42 42 42 42 44
26 28 29 31 32 34 38 39 39 41 40 39 39 41 42 41 41 40 42 42 43 50 49 44 44 45 44 44 45 49 46 42 42 40 39 38 37 37 38 38 39 40 41 43 44 45 46 45 46
25 27 30 33 36 38 40 47 44 47 48 48 48 50 51 51 50 48 48 47 46 46 52 51 48 48 46 44 44 45 45 47 44 41 41 40 36 39 39 38 40 41 42 43 44 46 47 48 48
28 30 34 37 41 44 47 54 48 54 55 58 61 61 60 60 59 57 53 50 49 48 49 53 50 50 49 43 42 45 46 44 44 41 42 38 37 38 41 40 41 42 44 45 45 46 47 48 48
29 33 37 42 46 49 53 57 51 59 63 69 71 72 70 66 63 62 59 56 53 50 51 52 53 51 49 46 43 46 44 43 42 43 43 39 39 38 39 41 43 44 45 46 46 47 48 48 49
33 35 39 44 47 49 51 58 56 48 57 56 61 66 70 69 67 66 65 61 58 55 52 50 52 51 50 48 45 46 44 43 45 43 42 42 41 39 39 40 43 45 47 47 47 48 49 50 50
32 34 34 42 44 46 51 50 50 54 51 53 48 39 40 50 61 64 64 64 57 55 55 50 52 50 48 47 45 47 44 44 45 42 42 42 40 39 41 41 42 44 45 46 47 48 48 49 49
29 33 36 39 44 51 54 54 53 57 52 51 59 61 55 52 46 51 61 60 57 54 54 50 52 51 47 45 45 46 45 44 44 44 43 40 39 40 42 43 43 45 46 47 47 47 48 48 49
33 34 36 41 49 51 54 54 58 48 42 44 52 48 40 48 51 43 53 58 55 50 51 49 50 51 48 47 46 45 45 45 44 44 43 41 41 40 43 44 44 44 45 46 47 48 48 49 50
32 35 39 42 46 49 54 44 46 42 46 48 41 43 28 31 35 42 42 56 54 50 50 48 48 49 48 46 45 46 47 46 45 43 42 42 41 41 43 43 44 44 45 46 47 47 48 51 52
34 34 37 43 43 50 55 37 45 44 44 37 38 37 32 31 33 34 36 51 54 48 49 46 44 43 44 44 46 47 46 46 44 43 41 41 40 42 42 44 45 45 46 46 45 46 50 52 52

GFSSGP_500_spd_030.txt.gz
Wind_Speed
30 31 31 31 32 31 26 23 27 23 22 24 22 20 19 22 29 25 26 23 23 23 21 21 20 21 21 21 22 23 22 21 20 19 18 17 17 17 17 17 17 16 15 15 15 15 15 15 15
28 28 29 30 29 28 23 25 32 26 30 22 22 22 22 27 26 26 24 22 21 21 23 23 21 21 22 22 23 24 24 24 24 23 21 19 18 18 17 17 17 17 17 16 16 16 16 17 17
28 29 30 28 25 21 20 27 33 31 27 26 25 25 25 32 23 23 26 25 23 23 23 23 22 22 23 24 24 24 24 25 24 24 23 21 20 19 18 17 18 18 18 18 18 17 16 15 14
30 30 29 28 21 18 20 27 34 29 26 28 28 25 31 29 24 21 28 26 25 22 22 24 24 23 22 23 23 23 23 23 23 24 24 23 21 20 18 18 18 18 18 18 17 17 18 18 18
33 32 32 28 21 20 23 27 32 23 28 31 28 28 35 29 24 24 26 26 25 24 24 24 25 26 25 24 24 24 26 25 25 25 25 24 22 21 19 18 18 17 17 17 16 16 16 16 16
36 35 34 28 22 22 25 28 30 25 27 29 29 32 39 29 28 26 27 27 27 25 25 26 27 26 27 25 26 25 25 26 25 25 24 23 22 21 20 19 18 18 18 17 17 16 16 15 15
37 37 35 31 26 26 25 26 33 28 29 26 28 32 38 37 29 29 29 30 28 28 27 28 27 28 28 28 26 25 24 24 24 24 24 23 22 21 21 20 18 18 19 18 18 18 17 17 17
37 40 39 35 30 23 26 32 36 30 29 30 31 24 37 38 31 33 32 30 30 29 28 28 28 28 28 27 26 24 23 23 24 23 23 23 23 22 23 21 20 20 20 19 20 20 19 20 21
40 42 41 33 31 24 29 35 40 29 34 33 29 24 37 37 28 31 32 32 33 31 31 29 29 28 28 28 27 26 24 23 23 22 23 22 23 24 24 24 23 22 22 22 23 24 23 24 25
42 41 37 34 31 32 36 38 39 31 37 35 32 32 30 32 31 32 34 35 35 33 34 34 29 29 29 29 30 29 28 27 25 24 23 22 21 22 24 24 25 25 24 25 25 26 27 27 27
43 42 37 34 33 38 35 36 34 35 37 33 36 34 35 35 30 30 34 37 39 37 35 34 34 31 30 30 31 29 30 31 29 26 24 23 24 25 24 24 25 26 27 28 27 28 28 29 29
42 44 42 36 36 36 34 35 37 36 34 39 39 38 38 34 31 30 31 33 34 37 39 38 37 38 32 34 32 31 29 31 31 29 26 26 27 28 28 26 26 28 30 31 31 31 31 31 31
42 45 43 39 38 34 35 37 37 36 37 34 37 37 37 31 32 35 34 34 35 34 34 36 40 42 38 37 35 34 32 32 32 30 30 30 29 30 30 28 27 27 30 31 31 32 33 33 33
43 45 44 42 36 34 37 37 39 39 34 36 39 36 34 33 29 36 33 31 33 35 35 35 38 39 42 38 37 36 34 32 31 31 33 33 33 33 31 30 29 28 27 29 30 31 32 33 34
44 41 43 44 36 38 38 37 37 38 38 37 36 36 33 33 33 34 34 33 32 33 35 35 37 36 38 39 38 37 35 33 32 33 34 35 34 34 33 33 31 30 29 28 30 32 33 33 34
43 45 43 42 40 40 40 34 33 38 36 34 34 34 33 30 32 34 34 34 32 31 36 34 32 34 34 36 39 39 37 34 31 34 32 34 33 34 33 33 34 34 33 31 33 33 34 34 35
43 43 42 43 42 41 41 37 36 38 33 30 32 32 29 25 27 31 34 36 36 33 34 34 33 30 35 35 36 39 39 38 31 35 31 31 33 35 34 33 34 35 36 35 35 35 36 36 37
39 42 43 41 44 42 42 39 39 38 35 32 32 31 30 28 26 26 31 36 37 36 36 37 34 30 34 38 37 36 40 39 34 34 32 30 34 34 34 34 34 35 38 38 37 38 38 38 38
41 41 40 39 40 42 41 41 40 40 39 35 35 36 35 34 32 29 29 32 37 38 40 42 39 35 36 37 36 37 38 40 39 37 34 33 34 34 33 33 35 36 37 38 39 39 39 40 41
36 36 35 35 38 43 41 41 42 42 40 41 40 41 40 39 38 36 34 32 33 36 41 44 45 41 38 41 38 39 39 38 40 37 36 36 35 35 35 34 35 35 39 40 39 39 40 41 43
33 35 33 34 35 36 41 42 41 43 41 41 42 42 43 43 44 43 41 37 36 36 37 41 45 47 45 41 44 41 36 38 40 39 41 41 39 37 36 36 35 37 38 41 40 41 42 43 44
29 30 28 26 28 30 32 41 36 36 40 41 42 45 46 47 48 47 45 43 43 41 39 39 41 44 50 48 46 43 40 40 42 41 42 42 41 41 38 36 36 38 40 42 41 43 44 45 46
23 23 23 25 28 29 31 38 38 39 41 46 51 53 55 55 55 55 54 53 53 51 48 45 45 45 48 53 51 48 44 41 41 43 43 40 42 43 39 36 37 38 40 41 42 43 44 45 47
20 22 25 28 32 35 37 40 36 48 48 52 57 61 64 66 65 65 65 64 62 59 57 54 50 46 47 48 48 51 49 43 43 44 43 42 42 41 41 39 38 40 42 41 42 44 45 47 49
22 24 29 33 35 37 43 45 40 47 48 52 52 49 50 56 61 62 63 68 69 67 63 60 56 51 45 46 47 49 49 48 45 43 44 44 43 41 42 42 41 40 42 42 44 45 45 46 47
24 27 29 35 39 42 43 45 42 40 43 49 54 55 52 52 54 59 61 55 59 64 67 63 61 58 50 49 46 46 51 50 47 44 45 46 44 43 43 42 40 41 41 43 45 46 47 48 48
25 28 32 36 38 44 45 40 39 44 44 47 47 51 53 51 54 59 57 58 55 57 62 63 61 59 54 52 47 49 52 47 47 46 46 46 44 45 45 43 41 41 41 43 45 47 48 48 48
30 29 31 34 40 43 43 43 44 46 40 43 48 51 54 57 55 53 53 59 50 49 53 60 58 58 57 51 50 50 48 46 46 46 46 46 44 45 44 43 41 39 41 43 44 46 48 48 50
28 30 32 37 39 45 45 47 49 38 43 48 48 50 54 52 53 46 44 48 52 52 46 53 51 56 54 51 49 48 46 47 46 46 45 44 45 42 42 43 40 40 41 43 45 46 46 50 52
29 27 32 38 38 44 46 48 35 37 45 48 53 49 52 44 45 42 33 41 46 49 47 42 48 51 54 48 44 46 48 49 46 45 43 44 42 42 42 41 39 41 42 44 45 45 47 51 51

GFSSGP_500_spd_033.txt.gz
Wind_Speed
34 35 35 35 34 31 25 22 27 24 23 22 16 17 16 20 22 23 21 20 21 20 20 21 21 20 21 23 22 22 22 22 22 21 21 21 20 20 19 19 18 18 17 17 17 16 15 16 17
37 37 36 38 36 32 24 28 32 31 27 22 19 22 21 28 23 21 21 20 21 20 20 21 21 20 20 23 23 23 23 24 24 23 23 23 23 23 22 21 20 19 18 18 18 17 17 17 18
36 35 34 35 30 24 21 32 32 34 30 25 25 24 28 31 19 21 21 21 22 21 20 20 21 22 23 23 24 25 25 25 25 25 25 25 26 25 23 22 21 20 20 20 19 19 18 18 17
36 34 33 32 25 21 20 30 33 33 25 27 28 27 31 31 21 23 27 22 23 21 20 21 22 23 23 23 22 23 25 26 26 27 27 26 26 26 25 23 22 21 21 20 19 19 20 20 20
35 35 34 31 23 20 20 27 28 26 21 22 26 29 33 32 24 26 28 24 22 24 23 24 23 23 25 25 25 24 24 26 26 26 26 27 27 27 26 24 23 21 20 20 19 19 18 18 19
37 36 34 28 23 23 24 26 30 25 22 26 21 31 35 31 28 27 31 26 25 26 26 25 23 24 26 25 25 24 26 26 27 27 26 26 26 26 26 24 23 21 20 20 19 19 18 18 18
36 36 33 30 27 26 21 26 31 30 26 26 26 30 34 30 30 31 32 31 28 26 26 26 26 26 27 25 24 24 24 25 25 25 25 24 23 22 24 24 23 23 21 21 20 20 19 19 19
36 38 36 33 28 21 22 27 34 35 28 27 31 30 30 27 27 31 34 32 28 27 28 29 27 26 25 25 25 25 25 23 25 24 22 22 21 22 21 22 22 23 23 23 21 21 21 21 22
40 42 36 29 28 20 25 30 36 38 30 28 33 27 30 30 24 27 29 32 31 29 29 29 29 27 26 25 25 26 26 24 24 23 22 21 21 21 21 21 22 23 23 24 23 23 24 24 25
42 40 33 31 30 27 31 35 38 39 28 27 34 29 30 32 26 25 29 33 33 31 31 32 31 30 28 28 29 27 27 25 25 25 24 22 23 21 20 20 21 23 23 25 25 25 26 27 28
44 40 36 36 35 35 35 35 37 38 34 24 35 30 33 34 32 26 26 28 30 32 32 32 32 32 31 31 31 29 27 26 26 27 25 22 24 23 23 22 22 23 24 26 27 27 28 28 29
44 42 41 38 38 39 35 33 34 35 36 30 33 37 31 32 32 28 26 28 30 30 31 30 32 34 34 34 35 33 31 29 28 28 28 26 25 23 24 25 26 26 26 26 27 28 30 30 31
46 45 44 40 41 42 37 32 33 35 36 31 32 38 35 30 31 31 30 31 31 31 31 31 32 32 32 37 37 36 34 32 31 29 29 28 29 27 27 28 28 28 29 28 29 28 29 29 30
48 48 46 43 40 41 37 33 35 36 35 33 36 38 37 33 29 31 35 34 34 32 32 32 33 34 32 32 35 38 35 34 32 30 30 31 31 32 30 31 30 29 29 30 30 28 28 28 29
48 47 45 42 40 40 41 38 38 36 37 36 36 39 38 34 32 28 33 38 35 34 35 32 32 34 32 32 32 33 34 35 34 32 32 31 31 31 32 31 30 29 29 31 30 30 30 31 31
47 47 45 39 42 42 43 37 37 37 37 37 37 37 37 35 30 29 30 38 36 34 37 35 30 32 29 28 31 31 31 31 33 34 31 30 29 29 31 30 30 30 28 29 30 30 32 33 33
48 46 44 41 43 44 43 41 39 41 39 37 36 34 35 35 31 27 27 31 35 35 34 38 33 29 30 29 28 31 31 27 29 32 30 28 28 30 30 30 30 30 30 30 31 32 33 33 34
40 43 45 44 45 46 45 44 41 41 40 36 36 36 37 35 31 31 31 31 32 35 36 37 38 32 28 32 31 29 32 27 30 29 31 29 28 32 28 29 29 29 29 31 32 33 35 35 35
43 44 42 43 42 44 43 42 41 40 41 40 40 39 39 37 36 35 33 32 33 35 39 39 39 37 34 32 35 34 34 34 31 32 29 28 31 34 32 30 30 30 32 32 33 33 34 36 37
41 39 35 37 40 43 42 41 42 42 41 43 42 42 40 40 41 41 39 37 37 37 39 42 41 41 39 37 36 39 39 38 34 33 29 28 32 36 35 33 32 33 33 33 34 36 37 36 38
31 34 34 36 36 36 40 39 37 40 41 41 42 43 44 45 46 46 45 44 41 40 40 40 43 44 39 40 41 43 42 39 36 33 32 35 36 35 34 35 35 36 38 36 36 37 38 39 39
26 28 27 27 27 31 35 41 33 36 39 41 42 45 46 47 49 48 48 48 47 45 45 45 45 46 43 40 41 44 46 44 42 39 36 38 37 37 34 34 37 37 39 38 37 37 37 39 41
22 22 21 23 25 26 27 37 33 29 34 37 38 40 43 44 45 48 48 48 50 50 49 48 48 46 46 43 39 40 42 45 46 44 40 40 41 40 39 36 36 37 39 39 37 39 40 40 41
18 18 19 20 21 26 24 30 34 33 35 37 42 46 49 52 54 55 56 56 56 56 55 54 52 51 51 50 46 43 41 42 48 50 48 45 44 43 40 40 37 37 40 41 41 41 42 41 42
16 16 18 21 22 25 27 30 29 35 40 41 46 46 47 51 54 57 57 56 58 62 67 68 66 63 60 59 54 51 45 43 44 50 52 50 46 46 44 41 40 40 40 42 40 41 41 42 43
16 17 20 23 25 28 32 33 35 37 40 43 43 44 47 47 48 50 53 54 53 56 54 57 64 66 68 66 62 55 51 45 45 48 49 50 48 48 46 42 42 41 42 42 42 41 41 41 43
15 18 20 25 29 32 34 35 37 38 38 40 44 48 49 48 48 44 45 44 45 48 52 55 55 59 65 67 67 60 52 48 48 47 47 49 48 48 46 44 44 43 45 43 42 40 40 42 43
18 20 22 25 30 33 35 36 34 35 35 39 41 44 47 54 56 52 45 49 46 51 55 58 56 56 60 65 65 62 57 54 52 49 46 48 50 46 45 45 44 44 44 44 40 39 41 42 44
18 21 25 27 29 34 33 35 37 32 36 38 42 48 52 55 59 56 52 52 49 44 47 52 55 56 55 57 64 62 57 55 52 49 48 49 48 44 45 45 43 43 45 43 41 40 41 43 45
20 22 23 26 28 29 36 32 27 27 32 36 43 45 49 53 57 57 53 48 40 37 40 44 52 59 51 46 55 58 52 50 50 48 49 47 44 44 44 42 40 43 44 43 41 41 42 45 46

GFSSGP_500_spd_036.txt.gz
Wind_Speed
33 33 33 32 31 29 26 26 30 26 27 22 20 23 23 23 23 21 16 20 19 20 18 19 20 20 20 21 21 22 22 21 22 22 22 22 21 21 22 21 20 19 19 19 19 19 19 19 19
36 35 35 34 34 31 27 31 33 32 30 26 25 27 28 26 21 22 21 20 20 17 17 18 21 20 21 21 20 22 23 23 23 24 24 24 24 24 24 24 24 22 21 20 20 21 20 20 20
38 37 37 38 37 31 26 38 38 35 32 28 30 30 32 25 21 21 20 19 20 18 18 18 20 21 23 24 23 23 23 25 24 24 25 26 27 27 27 27 26 24 23 22 22 22 22 21 20
40 40 39 39 31 26 28 38 38 38 36 32 34 34 34 28 25 23 21 21 21 19 19 19 20 21 22 24 24 22 22 22 23 24 25 27 27 28 27 27 27 26 24 23 23 22 23 22 23
43 42 41 38 26 25 29 34 34 33 29 29 31 34 35 33 29 28 26 26 23 22 22 22 22 21 21 22 23 23 24 24 24 24 24 24 26 26 26 26 27 27 26 25 24 22 22 22 22
45 44 42 33 26 26 27 31 34 31 28 26 27 33 34 32 28 28 27 27 27 26 25 24 22 23 23 22 22 21 22 22 23 24 26 26 25 24 25 25 25 26 25 24 23 22 21 21 21
45 44 39 31 29 31 25 32 33 32 29 25 27 31 29 28 26 27 28 30 30 28 25 25 25 25 24 25 23 21 20 19 20 21 23 23 23 24 23 22 23 23 23 23 22 22 22 22 21
45 45 42 35 31 26 27 32 32 34 29 29 30 30 29 27 27 26 28 29 28 28 29 28 27 26 25 24 23 23 23 22 20 20 20 21 21 21 22 22 21 22 22 23 23 23 23 22 22
44 46 41 33 31 25 28 31 33 35 34 30 29 29 27 29 27 26 27 29 31 30 30 30 28 28 27 26 26 27 26 25 23 22 21 21 20 20 20 21 21 21 22 23 23 24 24 24 25
46 46 38 33 30 29 34 38 38 37 33 28 28 29 30 29 30 27 26 28 30 31 32 33 32 31 29 29 28 28 28 28 27 26 24 22 22 22 21 21 21 21 21 23 23 25 26 27 28
46 45 37 34 31 36 38 38 38 38 34 26 27 31 33 32 29 26 26 25 26 28 29 32 33 33 31 31 31 31 31 30 28 27 26 25 25 23 22 22 23 22 22 23 23 24 26 28 30
46 43 40 36 38 38 37 38 39 40 33 26 27 31 33 31 28 26 24 23 24 25 26 28 29 30 31 32 34 35 33 31 30 29 27 27 28 27 25 25 26 23 25 25 26 26 26 27 30
49 46 43 41 41 41 38 36 38 38 35 31 28 34 36 32 29 28 26 27 27 26 27 27 28 27 28 31 32 34 35 33 33 32 30 28 29 29 28 28 28 27 27 27 29 29 29 28 28
51 50 49 46 43 42 39 34 35 36 39 38 31 34 37 35 29 29 30 29 32 32 30 31 30 29 30 30 32 33 33 32 33 34 34 31 30 29 29 30 29 28 28 29 30 28 28 29 29
53 52 50 47 43 44 44 38 35 38 42 43 36 34 36 37 33 28 29 33 35 35 34 32 32 33 32 30 31 33 33 31 30 32 33 32 30 29 30 31 28 28 28 29 29 28 28 28 30
51 50 50 44 46 46 48 38 38 40 43 44 41 37 37 35 33 32 29 32 37 38 35 33 33 33 33 32 31 31 31 31 29 28 29 30 30 29 31 30 28 27 27 28 28 29 29 29 31
50 50 48 45 46 46 47 42 38 43 44 44 43 38 36 36 36 33 30 29 34 38 38 35 35 33 32 33 35 32 31 29 27 27 25 26 30 31 30 29 27 27 27 27 27 27 28 30 31
48 46 47 46 47 47 46 45 39 40 43 43 43 42 39 37 36 37 35 33 35 39 40 38 36 35 33 35 37 35 33 29 28 27 25 26 28 32 33 31 27 28 28 28 28 29 30 30 31
46 48 49 46 45 46 44 45 40 37 42 44 44 45 43 41 38 38 39 37 38 39 40 37 38 35 37 37 37 36 35 34 32 30 29 29 29 30 32 33 32 32 30 30 31 31 32 32 33
42 44 42 40 44 46 44 43 41 39 40 44 44 44 45 44 41 43 43 42 41 40 41 42 40 39 36 40 39 39 40 40 37 35 30 28 31 31 34 33 31 33 34 34 35 33 34 35 35
30 37 37 38 41 41 41 42 39 37 39 40 42 44 47 46 45 45 45 45 44 43 43 43 44 44 42 41 43 41 42 43 40 37 32 30 34 36 36 34 32 33 36 36 36 37 37 37 36
32 32 32 33 34 38 38 42 31 34 36 36 38 42 42 41 43 44 46 47 47 47 47 47 46 46 46 46 44 44 43 42 43 44 42 39 38 40 40 37 35 35 35 35 35 37 37 37 37
27 26 24 26 30 33 28 38 29 26 30 31 30 34 38 40 43 45 46 48 50 52 52 51 50 50 50 51 49 47 47 46 46 46 46 46 44 43 42 40 39 38 39 38 38 38 38 37 37
23 23 22 22 22 28 20 30 33 20 25 29 34 35 37 39 42 44 46 48 51 52 52 52 51 50 52 54 55 53 51 47 45 43 47 47 49 48 47 45 43 42 43 41 41 39 40 41 40
20 21 22 21 19 17 17 23 27 25 27 31 36 39 41 45 47 49 51 53 56 58 59 60 60 59 59 57 56 57 55 52 49 45 43 46 49 50 50 49 48 47 45 45 44 41 42 42 42
21 21 18 16 15 17 20 22 26 29 32 35 39 42 45 48 50 52 54 55 55 55 57 60 62 65 65 66 65 61 61 60 57 54 49 49 52 51 49 50 50 49 47 46 45 44 44 43 44
17 16 16 16 18 20 22 24 27 30 32 37 41 43 45 48 50 51 51 54 57 58 57 59 59 61 63 61 60 65 69 66 66 62 55 53 56 52 48 49 48 49 49 49 46 46 46 44 47
16 15 15 16 20 21 23 25 26 27 30 34 39 43 47 49 50 50 51 53 54 53 55 56 57 55 57 59 60 58 58 67 72 69 62 58 59 55 50 48 48 49 47 48 47 47 46 46 43
14 14 14 17 21 24 21 21 23 24 28 31 34 38 42 45 49 53 57 57 58 60 56 56 60 58 56 54 54 49 49 53 61 67 65 62 59 55 50 48 48 46 47 47 47 47 45 42 44
11 14 17 20 21 20 24 15 22 25 22 27 32 37 41 47 52 55 56 57 56 57 55 52 57 58 57 56 47 43 50 49 56 62 65 64 59 53 51 49 46 47 46 47 48 51 51 42 45

GFSSGP_500_spd_039.txt.gz
Wind_Speed
37 34 33 32 31 27 25 25 27 27 26 27 28 28 27 28 26 23 21 20 18 17 16 17 18 19 20 21 20 20 19 20 20 20 21 21 21 21 21 21 21 21 20 20 19 20 20 20 20
39 37 35 34 33 28 25 28 29 29 27 27 27 28 27 27 25 23 22 22 19 16 16 17 18 17 20 21 21 20 20 20 21 22 22 23 23 23 23 23 23 23 24 24 23 21 22 22 22
40 39 38 38 35 27 24 31 35 31 30 29 29 29 30 28 27 25 23 22 20 18 17 17 18 19 19 21 21 21 21 21 21 22 22 23 24 25 26 26 26 25 25 25 25 24 23 23 22
41 40 40 40 33 28 27 38 38 35 34 32 32 35 34 29 27 26 24 23 22 22 20 20 20 21 20 19 20 21 21 21 21 21 21 22 22 24 25 26 26 25 24 24 25 24 25 24 23
44 43 43 40 31 27 32 42 41 39 38 35 36 36 36 33 31 30 29 27 27 25 23 23 22 21 20 20 20 19 19 20 21 22 22 23 24 24 23 24 25 25 24 24 24 24 25 24 23
47 46 45 39 29 29 35 42 40 38 36 35 35 36 38 34 34 32 31 29 29 28 28 26 23 22 22 22 21 19 19 18 19 19 20 21 22 23 24 23 23 23 23 23 23 22 23 22 22
49 47 44 38 30 33 34 40 38 38 35 31 34 37 36 31 30 31 31 30 31 30 29 28 27 26 24 23 22 20 21 19 18 18 18 18 18 19 21 22 22 21 22 21 21 21 22 22 22
50 49 46 39 32 31 36 39 39 38 32 30 33 31 30 30 28 29 29 29 31 30 29 30 29 27 26 24 23 23 23 22 21 20 19 19 18 18 19 19 20 21 21 22 22 22 23 22 23
52 51 46 40 35 33 36 38 39 37 33 33 33 30 29 30 27 26 26 25 29 31 32 32 31 29 29 27 26 26 26 25 24 23 22 22 20 20 20 20 20 19 20 21 21 22 23 23 24
52 50 45 42 36 36 39 40 40 38 38 33 30 29 29 31 29 25 25 26 29 31 32 33 32 32 32 30 29 28 28 28 26 25 26 25 25 23 22 22 22 22 21 21 21 20 21 22 24
48 48 45 39 37 37 39 42 43 41 39 31 28 28 28 30 29 27 26 27 29 32 32 32 33 33 32 30 30 31 31 31 30 29 28 27 27 26 25 24 24 23 24 24 24 23 23 23 24
45 46 43 38 38 38 42 45 44 41 36 33 28 28 28 31 31 30 29 29 30 29 29 29 29 29 30 31 31 32 32 32 31 31 30 29 29 29 28 28 27 25 25 26 26 25 25 26 26
43 44 42 39 40 41 42 43 40 37 36 38 32 32 33 35 35 31 30 31 29 29 28 28 29 27 27 28 29 30 32 32 33 32 30 30 31 30 29 29 30 27 25 26 28 27 28 29 28
47 46 45 43 43 43 42 39 38 35 38 41 35 36 38 36 34 33 30 27 29 30 30 32 32 30 30 29 30 31 32 32 30 29 28 28 30 30 29 30 31 28 26 26 27 27 28 28 27
51 49 49 46 44 44 44 41 37 36 39 42 40 39 40 39 35 29 29 29 28 30 33 35 34 34 32 32 32 32 33 33 30 29 28 28 29 29 29 31 31 29 28 28 27 28 28 27 27
52 52 50 47 46 46 48 42 41 41 40 42 43 43 40 37 37 33 30 31 31 32 33 36 37 37 35 34 34 34 35 35 30 29 29 28 25 25 29 32 31 29 28 28 28 28 26 26 26
51 52 51 48 48 49 48 45 41 44 43 43 44 42 41 40 40 39 35 33 34 36 38 39 39 40 38 37 38 38 37 35 31 30 29 27 25 26 29 32 31 29 29 30 29 27 27 27 27
50 47 46 46 48 49 48 47 42 43 43 43 44 45 45 42 39 41 41 38 37 38 41 43 41 41 40 39 41 42 39 36 32 32 31 30 29 30 30 30 30 30 32 32 31 29 30 30 30
49 50 49 47 46 47 45 46 43 40 44 44 45 47 48 46 41 42 43 43 40 39 42 44 45 44 42 40 42 43 42 40 37 36 35 34 31 32 34 34 31 31 34 36 34 34 34 34 34
46 47 47 46 45 47 44 44 42 40 42 43 45 47 46 46 43 43 45 46 45 43 42 45 46 47 46 44 41 42 44 45 42 40 38 35 33 35 36 37 35 34 34 35 36 37 37 38 38
41 42 42 42 43 46 45 45 42 39 40 40 42 44 46 44 41 42 45 47 49 46 43 44 47 50 50 47 46 43 45 45 45 43 40 36 37 40 41 41 38 38 33 34 35 37 37 38 38
33 33 36 37 38 40 40 41 32 35 36 36 37 38 40 41 42 41 43 46 48 50 50 49 48 48 51 52 50 47 45 45 46 48 46 45 43 42 44 44 41 38 37 38 38 38 38 38 38
27 26 26 27 30 34 33 39 27 28 29 30 30 33 36 39 40 42 43 44 45 47 48 50 50 50 50 51 52 52 50 48 46 51 50 49 46 45 47 48 47 47 44 42 41 40 39 41 41
27 26 27 26 25 31 24 32 32 21 24 24 24 26 31 34 37 39 41 44 44 47 49 51 52 53 54 55 56 56 56 55 52 49 51 52 52 51 50 50 50 49 48 47 46 45 43 43 43
22 22 24 25 24 23 20 25 24 13 18 22 24 29 33 36 39 42 44 46 49 51 52 54 55 56 57 57 59 60 61 61 60 57 53 50 50 50 52 50 50 49 50 49 50 50 49 47 46
21 24 23 21 18 17 18 22 18 17 20 24 29 34 37 40 43 46 48 51 53 54 57 59 60 62 63 63 63 62 62 63 65 66 63 56 49 48 48 49 49 48 48 48 49 50 50 50 50
23 22 19 17 18 18 18 18 18 20 25 29 32 34 38 41 45 48 51 54 57 59 61 62 64 66 67 68 70 69 69 68 66 66 65 64 60 53 48 49 53 50 48 49 50 51 51 50 51
19 19 18 17 18 18 16 17 20 24 27 29 33 35 37 41 45 48 52 55 58 59 61 64 65 66 67 68 69 70 70 70 71 72 73 69 65 62 54 54 54 52 52 53 52 51 51 50 51
19 17 16 15 15 16 16 16 21 21 23 25 28 31 33 37 41 45 49 53 56 59 64 64 63 64 64 64 67 67 68 68 69 68 67 70 72 69 64 60 61 61 60 57 54 52 52 51 51
13 13 13 16 16 17 20 17 18 23 25 24 21 24 28 32 33 40 45 47 51 55 59 62 64 61 61 62 65 65 62 63 63 63 64 63 64 63 62 64 60 61 60 57 54 52 52 51 50

GFSSGP_500_spd_042.txt.gz
Wind_Speed
40 37 36 36 35 33 30 30 29 30 30 29 29 29 29 27 26 25 22 23 21 19 18 16 17 17 18 18 17 17 18 17 17 18 18 18 18 18 20 20 19 19 18 19 19 21 21 21 19
41 39 38 37 36 30 27 29 29 30 27 28 29 29 29 28 28 25 24 23 21 19 18 18 17 17 17 17 18 18 19 19 19 18 18 19 19 19 19 21 22 22 22 22 21 22 22 22 22
42 41 40 41 37 28 26 30 32 27 27 29 29 28 29 27 27 25 23 24 22 20 19 19 18 18 17 17 16 17 18 19 19 19 19 19 18 19 20 21 22 23 24 25 24 23 23 23 22
43 43 43 42 34 29 28 33 32 29 30 31 30 29 27 26 25 23 23 24 23 23 22 21 21 20 20 17 18 18 18 18 20 19 18 18 18 18 18 18 19 21 22 23 23 23 22 23 23
45 44 45 43 33 28 29 35 35 32 32 32 33 31 29 26 26 26 26 26 27 26 26 24 24 23 21 20 20 20 18 19 19 19 19 18 18 19 20 19 19 19 20 21 22 22 22 22 23
47 48 48 42 31 29 31 36 38 35 35 35 35 34 32 30 30 29 29 29 30 31 29 28 26 25 25 24 23 22 20 20 20 19 19 18 17 17 17 18 18 18 19 19 20 20 20 20 20
49 47 46 39 34 34 31 39 40 39 38 36 36 37 36 35 34 33 32 32 32 32 31 30 29 28 27 25 24 24 23 22 21 20 19 19 19 18 17 17 17 18 18 19 20 21 21 20 20
50 49 48 43 39 33 35 40 41 41 38 35 37 35 32 33 30 31 31 30 30 31 30 30 31 30 27 26 26 25 25 24 22 21 20 20 19 19 19 19 18 18 18 19 20 20 21 22 22
51 51 48 42 39 34 36 39 41 39 36 36 36 33 30 30 28 28 28 26 27 29 31 32 31 31 29 27 28 27 26 25 24 23 23 22 21 21 21 20 20 21 21 20 20 20 20 21 22
52 50 45 42 40 36 36 40 39 39 37 37 35 32 30 30 29 27 27 27 27 30 31 30 30 30 29 29 29 29 29 29 28 26 24 23 23 23 23 24 22 21 21 22 23 23 22 22 22
52 49 46 44 43 39 38 40 41 41 40 37 34 33 31 29 28 27 26 29 30 31 29 27 29 29 29 30 30 30 31 31 30 29 28 27 26 26 26 26 25 23 22 23 23 24 24 23 23
49 48 47 45 44 42 41 42 43 44 39 39 35 33 31 27 25 26 29 31 30 31 32 29 28 28 28 28 29 30 31 31 31 30 28 28 29 29 28 29 29 28 26 24 24 24 25 25 26
44 43 42 38 38 40 42 44 46 44 40 40 35 33 33 31 28 28 30 29 29 30 32 32 32 29 28 28 29 30 31 31 32 30 29 29 29 30 29 29 30 32 29 27 26 25 25 26 27
45 43 39 35 34 37 43 47 47 42 41 40 38 36 37 37 35 32 29 29 28 29 30 34 36 34 33 31 31 32 32 33 33 31 29 28 28 28 28 28 30 31 29 28 28 28 26 26 25
47 45 42 37 35 39 44 46 45 40 41 41 41 38 39 40 39 35 33 30 28 27 30 33 36 39 37 35 34 33 34 35 34 32 30 28 27 28 27 27 29 29 27 30 30 29 27 25 25
48 47 45 39 37 41 45 43 45 42 41 40 42 40 38 39 38 37 34 34 33 32 31 34 37 39 41 39 37 37 37 36 36 33 31 29 28 28 27 27 29 29 27 29 30 29 29 27 27
47 46 46 43 41 42 44 44 44 44 41 41 41 43 39 37 38 38 37 39 38 36 35 36 39 42 42 42 41 40 39 38 37 35 33 32 31 30 29 29 31 30 28 30 31 30 28 28 29
49 47 46 43 43 43 44 46 42 42 43 43 43 44 45 43 42 44 43 42 42 41 39 39 41 43 44 43 43 43 42 41 39 39 38 36 35 34 31 33 34 32 27 29 33 31 31 32 31
46 47 46 45 45 45 44 46 42 41 43 43 44 46 47 46 44 45 46 45 45 44 43 42 43 42 44 45 44 44 42 42 43 41 42 41 39 37 36 37 37 34 31 32 33 33 34 35 36
47 47 44 42 42 43 43 45 43 39 40 43 45 46 46 46 45 44 46 47 47 45 46 46 44 44 47 48 46 45 44 45 45 46 45 44 41 40 40 39 38 38 37 35 35 35 35 36 37
42 43 41 40 41 43 43 43 39 37 39 40 43 43 44 45 45 45 46 48 49 49 48 48 48 47 49 51 50 49 48 45 46 47 48 45 44 43 44 43 42 42 40 37 38 39 39 37 37
42 40 38 38 40 42 42 42 33 38 40 40 40 40 41 42 43 43 45 47 48 49 50 48 49 49 49 50 52 51 45 46 46 47 50 50 49 48 46 47 46 45 43 41 39 38 36 38 39
31 33 34 35 37 38 36 38 26 31 35 33 32 34 37 39 41 42 42 43 44 46 48 50 52 53 52 53 53 54 55 50 47 46 47 50 51 51 50 49 49 49 48 45 45 44 46 45 43
26 26 26 28 28 31 25 28 23 24 27 29 28 29 32 36 39 40 42 43 45 47 47 48 48 51 55 55 55 56 58 60 56 49 47 46 49 50 52 52 52 51 50 49 48 48 48 48 48
27 25 24 25 25 26 20 22 22 17 18 22 26 30 33 35 38 40 41 42 43 45 47 49 50 51 53 55 57 58 58 59 59 61 57 53 52 49 49 51 53 54 56 55 52 50 49 48 48
23 24 25 24 21 19 16 19 18 16 15 22 27 30 31 33 36 38 40 42 44 47 49 52 54 56 59 61 62 62 62 62 62 63 63 63 63 60 55 53 54 55 56 55 54 51 49 48 47
19 20 21 20 19 18 17 17 18 19 22 23 25 27 30 32 35 39 42 45 47 50 53 57 59 62 64 66 68 68 68 68 68 67 66 65 64 63 61 58 54 52 54 54 54 54 51 51 48
22 21 21 19 19 18 16 15 16 21 23 24 25 26 29 32 36 40 42 44 46 48 50 54 58 61 64 68 71 72 72 73 73 74 72 70 67 66 64 61 57 54 55 55 56 55 54 54 50
21 21 22 20 18 15 14 15 20 22 23 23 26 29 29 29 30 30 34 37 40 45 49 52 54 57 60 63 68 71 73 75 74 74 74 73 72 71 71 69 64 63 60 58 59 59 57 54 53
18 16 16 15 14 14 15 17 19 20 22 24 24 25 24 30 30 31 33 38 42 44 49 54 56 59 61 63 66 66 66 68 71 74 73 71 69 69 68 68 67 66 65 61 60 59 59 56 53

GFSSGP_500_spd_045.txt.gz
Wind_Speed
41 39 39 39 38 36 32 30 29 30 29 27 26 27 25 23 22 22 20 22 22 19 18 18 19 18 18 18 18 17 17 15 15 15 15 15 15 16 16 17 17 17 17 18 18 18 18 18 19
43 42 40 40 40 36 32 32 33 32 30 29 29 29 28 25 24 21 22 21 20 20 20 20 19 20 17 18 17 17 16 16 16 17 16 16 16 17 16 17 17 17 19 20 20 21 20 21 21
45 44 43 43 41 34 31 35 35 31 31 32 31 29 28 26 25 22 21 21 22 21 21 20 19 20 18 17 17 16 16 16 16 16 17 18 18 18 17 17 16 16 17 18 19 21 20 21 21
45 46 46 45 36 32 32 35 34 31 32 31 29 28 26 25 24 22 21 19 20 21 20 21 20 20 19 19 19 19 19 19 18 17 17 17 17 19 19 18 18 18 17 17 18 17 18 20 20
47 48 48 45 36 33 34 37 34 33 33 31 28 28 27 24 22 21 21 21 21 21 21 23 24 24 21 21 20 21 20 20 20 20 20 20 19 18 18 19 19 19 19 17 18 19 18 18 19
49 50 50 44 34 34 35 37 35 34 33 32 30 28 27 24 24 24 25 24 24 24 24 25 26 26 26 26 24 24 23 22 22 22 21 21 20 20 18 18 17 17 18 18 18 19 19 19 20
51 50 48 41 37 37 36 37 37 36 35 34 32 31 29 27 29 29 29 28 27 28 28 28 28 27 28 26 25 24 23 23 23 23 22 22 22 22 21 20 19 18 17 18 19 20 20 20 21
50 50 50 44 41 37 38 39 38 38 36 35 33 32 31 33 33 33 32 31 31 31 31 32 30 29 28 26 25 25 25 24 23 23 22 22 22 22 22 22 21 20 19 19 19 20 20 20 20
51 52 50 43 41 38 38 38 39 38 35 35 32 32 32 33 33 32 31 30 30 32 33 32 31 31 30 28 27 27 26 25 24 24 23 23 24 23 23 22 23 23 23 22 22 22 23 23 22
52 51 46 41 43 39 39 40 41 39 36 34 33 33 30 31 30 28 28 27 27 29 31 31 30 31 31 30 29 28 27 26 26 25 26 25 24 24 23 24 24 24 24 23 23 23 23 23 23
51 49 46 43 42 40 41 42 42 41 37 35 35 32 31 30 28 28 29 27 28 29 29 29 30 30 30 30 29 28 28 28 27 28 27 25 26 25 25 25 25 25 25 25 24 24 24 25 25
52 50 48 44 43 43 43 44 45 43 37 37 36 32 32 31 30 29 29 30 29 27 28 29 30 30 29 29 29 29 28 29 29 30 29 28 26 27 26 26 27 27 27 26 26 26 26 26 26
51 50 48 44 45 44 43 44 44 42 40 37 36 36 33 33 32 30 28 28 28 28 30 31 33 32 31 30 31 30 29 30 32 32 30 27 28 28 28 28 28 29 29 28 29 28 26 25 24
44 46 46 43 44 44 44 44 45 41 44 40 39 37 36 34 35 31 29 29 28 29 29 32 33 33 34 33 35 35 34 34 34 33 31 29 29 29 29 28 29 29 29 28 29 29 27 27 26
47 44 41 39 40 42 42 42 42 45 46 44 42 40 38 35 36 34 33 32 31 31 31 32 34 35 34 34 36 37 37 37 36 36 33 30 29 29 29 29 28 29 29 27 28 27 27 27 26
47 47 44 39 38 38 37 36 40 43 45 44 41 40 38 36 35 35 34 33 35 36 36 36 37 37 36 36 37 38 39 40 41 38 35 33 31 31 31 30 30 32 30 27 28 27 27 27 26
47 43 43 39 36 34 34 34 40 42 44 42 41 40 38 36 37 35 35 36 38 38 40 39 40 40 39 39 39 41 41 41 42 42 40 37 34 35 34 32 32 34 33 30 30 29 28 27 28
44 49 41 38 38 37 34 36 38 42 42 41 41 40 40 39 39 41 40 39 39 41 42 41 40 43 43 43 43 43 43 44 44 43 43 43 40 39 37 35 36 37 36 34 33 31 29 29 30
44 45 47 41 38 38 38 39 35 39 40 41 42 43 43 43 44 44 43 43 42 42 41 42 43 43 44 46 47 48 46 47 47 46 46 46 45 42 40 40 40 40 40 38 37 35 34 33 32
47 46 45 43 40 38 38 40 36 37 40 43 43 43 43 44 46 45 45 45 45 46 45 44 45 46 45 46 47 47 49 49 49 50 48 48 47 46 45 44 44 43 42 41 39 38 37 35 36
45 46 46 43 41 40 38 39 37 37 40 42 42 41 42 43 44 45 46 45 46 47 47 45 45 47 49 49 49 49 48 48 49 49 47 48 49 50 50 49 47 46 44 45 44 40 40 40 36
42 41 40 39 41 40 40 41 33 37 37 37 38 39 40 41 42 43 44 45 44 45 46 46 46 47 48 49 51 53 51 50 47 47 49 51 51 51 50 50 50 48 48 47 46 44 43 42 40
40 38 37 37 39 38 38 39 33 35 36 35 36 37 39 41 41 43 44 44 44 44 45 46 47 48 49 51 51 51 51 52 52 50 50 51 52 53 52 52 52 51 50 49 48 48 47 46 44
29 35 39 38 37 35 34 34 31 30 33 32 32 32 34 36 38 38 39 40 42 43 44 45 46 47 47 48 50 51 52 52 52 53 54 53 53 54 54 54 54 53 52 52 52 51 50 48 47
21 27 32 34 35 32 29 29 26 23 25 26 28 29 31 33 34 35 36 37 39 41 43 45 46 47 48 49 50 52 53 54 55 55 56 57 57 57 56 56 56 55 53 53 54 54 53 51 50
26 23 25 26 26 23 21 23 21 20 21 23 25 26 27 29 31 33 35 37 38 41 43 45 47 49 52 53 55 56 58 58 59 59 59 59 60 60 62 60 60 57 57 56 54 56 56 56 55
25 23 23 23 23 21 20 20 19 18 18 19 19 21 25 28 30 32 34 36 38 40 44 48 51 54 56 59 61 63 64 66 68 69 67 66 66 64 64 62 61 59 58 58 58 57 58 59 59
20 20 20 19 21 20 18 19 18 18 19 20 21 23 25 27 30 32 35 38 39 39 39 41 43 45 51 54 57 60 62 66 68 71 73 74 73 71 69 66 63 60 60 59 60 59 59 60 60
19 20 21 20 18 16 16 16 18 21 21 20 22 23 26 29 31 32 30 30 31 34 37 41 46 49 51 54 54 57 59 61 66 69 72 73 74 73 72 71 67 66 63 60 59 58 58 59 61
21 20 20 18 16 16 16 17 18 19 18 21 23 26 27 26 26 24 28 29 31 33 36 39 42 43 42 47 53 55 57 55 60 63 67 71 71 71 71 70 68 65 62 61 60 59 61 61 61

GFSSGP_500_spd_048.txt.gz
Wind_Speed
44 43 41 41 40 38 35 33 31 31 30 27 26 24 21 19 19 21 16 17 17 17 17 18 17 17 18 17 17 17 18 18 18 18 18 18 17 17 17 18 19 19 20 21 20 19 19 19 18
44 44 42 42 43 40 37 35 36 33 31 29 28 26 25 24 22 21 18 19 18 18 18 17 17 17 17 17 18 17 16 17 17 17 17 17 17 17 17 18 18 18 18 18 19 20 20 20 19
45 45 45 45 43 40 36 38 38 34 33 31 29 28 27 25 23 22 20 20 19 18 18 18 18 17 17 15 16 16 15 16 16 16 16 17 17 18 18 19 20 20 18 18 18 18 19 19 18
46 46 47 47 42 37 36 39 38 35 35 33 32 31 29 27 25 24 22 20 20 19 18 17 18 18 18 17 17 17 17 18 18 18 19 19 19 19 20 20 20 21 22 22 21 20 19 18 18
49 48 50 49 41 35 38 40 39 37 36 34 32 30 30 28 24 22 21 20 20 20 20 19 20 20 19 19 19 19 20 20 21 22 21 21 21 21 20 20 19 19 19 19 20 19 20 20 20
54 49 51 48 40 37 38 40 39 37 36 35 32 31 30 26 23 23 22 21 21 22 22 22 23 23 23 23 23 23 23 20 21 21 21 21 21 20 20 21 21 21 21 20 20 20 19 20 20
52 55 50 45 40 38 40 41 39 39 38 37 33 31 30 26 25 25 26 25 25 26 26 26 26 27 26 26 25 25 23 23 22 22 21 21 21 21 21 21 21 22 21 20 20 19 20 21 20
52 52 54 48 42 40 43 43 42 42 41 37 33 32 32 27 28 28 28 29 28 28 29 30 29 29 30 29 27 26 26 25 24 23 21 21 21 22 23 23 22 23 22 21 21 21 21 21 21
52 53 53 48 43 43 43 44 43 42 39 37 34 32 30 29 30 31 31 32 33 33 34 34 33 32 31 30 29 28 28 27 25 23 23 23 24 24 24 24 24 24 23 24 24 23 23 23 24
53 52 49 47 44 43 42 44 44 42 40 37 35 32 30 28 30 32 32 33 33 34 34 34 33 32 31 31 31 29 29 28 27 25 25 26 27 26 24 24 24 24 24 24 24 24 24 24 25
52 50 50 44 43 43 46 46 44 42 41 39 36 33 30 29 31 31 30 29 29 28 28 29 28 28 29 31 31 31 30 30 29 28 29 28 28 26 25 25 24 24 24 24 25 26 27 26 26
52 51 49 44 43 44 47 48 44 42 43 40 37 34 31 30 30 31 29 28 27 27 28 29 29 29 30 31 31 31 30 32 31 31 31 29 28 26 26 25 25 25 26 27 28 28 29 28 28
54 51 48 46 44 45 49 51 49 43 43 42 39 36 32 31 31 30 29 27 27 28 30 31 32 31 32 33 32 32 32 33 33 33 33 31 30 28 28 27 27 27 29 28 29 30 30 29 29
58 51 47 47 46 46 49 51 51 45 44 44 41 38 35 32 31 31 29 28 28 31 30 31 33 33 34 33 34 34 35 35 36 36 35 33 32 31 30 29 28 29 30 30 29 29 29 29 28
59 49 46 46 45 45 48 50 48 46 46 45 44 40 38 34 33 32 31 29 30 31 32 32 35 36 36 36 35 35 35 37 37 37 38 36 34 34 33 33 31 31 32 31 30 30 29 29 28
57 44 42 41 43 44 44 44 47 46 46 45 45 43 40 37 34 32 31 32 34 35 35 37 37 37 37 37 38 38 38 39 38 40 38 36 36 36 37 37 35 35 34 33 32 31 31 29 28
47 52 41 37 38 42 43 44 44 43 44 45 45 45 42 40 38 35 37 38 39 39 39 39 40 40 41 40 41 42 42 41 40 41 40 40 40 37 39 40 40 39 37 36 35 34 34 32 29
42 48 47 38 36 36 38 41 39 41 42 43 43 44 43 41 39 39 39 38 38 39 39 39 40 41 43 44 44 45 45 45 44 44 44 45 44 45 44 42 42 42 41 40 39 38 37 35 33
41 37 38 39 39 38 38 39 36 37 38 39 41 42 42 42 40 40 38 38 38 38 39 40 40 39 41 44 45 46 47 49 49 48 48 48 49 49 49 48 46 44 44 43 44 43 39 39 39
43 41 42 41 35 35 38 38 36 37 35 35 36 38 41 43 43 42 41 42 41 41 41 42 43 43 43 44 46 49 50 51 52 52 51 51 51 50 51 50 51 50 50 48 46 47 44 42 41
46 44 40 40 41 39 35 36 36 37 34 35 37 39 41 42 43 43 43 44 43 43 43 44 44 45 45 46 46 48 50 51 50 52 52 52 52 53 53 53 55 54 51 51 49 49 48 47 45
47 46 45 41 38 39 40 39 36 35 36 37 37 38 39 40 42 42 43 44 44 44 44 43 44 45 46 47 47 46 47 49 49 52 54 56 57 57 57 55 55 54 53 53 51 51 50 50 48
43 44 45 43 42 40 39 40 39 37 36 35 35 36 37 39 40 41 42 42 42 43 44 44 44 45 45 46 46 47 48 48 51 53 54 55 57 58 58 58 57 56 55 53 52 51 51 49 50
38 39 38 38 40 40 39 39 40 37 36 35 34 35 36 38 39 39 39 39 39 40 41 41 42 42 43 43 44 45 47 48 50 52 54 55 56 58 61 62 62 62 58 56 55 54 52 51 53
40 40 38 40 41 40 37 37 37 35 35 35 34 34 34 35 35 33 33 34 36 38 40 41 42 42 43 44 45 46 47 49 51 53 54 56 57 58 59 63 65 66 64 60 58 57 56 53 55
23 31 40 41 40 37 34 34 34 31 31 31 30 30 28 28 29 30 31 33 34 36 36 37 38 41 42 45 47 50 53 55 56 59 61 62 62 62 63 62 63 66 66 66 65 59 58 58 59
26 22 26 32 32 31 31 32 30 29 28 28 27 26 26 25 26 27 27 29 30 32 34 37 40 43 45 46 46 48 51 54 57 60 62 65 68 68 69 68 67 66 63 64 64 63 62 60 60
24 25 23 24 24 24 24 25 24 24 23 24 25 24 24 25 25 26 27 28 30 33 35 36 36 36 39 43 46 51 55 57 59 62 66 69 69 69 71 71 70 68 67 65 62 63 63 61 59
23 23 26 25 23 22 22 23 23 23 24 24 23 24 24 24 25 27 29 31 33 32 31 33 35 38 41 44 47 46 42 46 53 61 66 68 68 68 68 68 69 68 66 65 64 62 60 60 61
20 22 23 22 19 17 18 22 24 25 23 21 24 24 25 26 27 28 28 27 24 26 27 29 31 33 39 40 35 39 46 51 55 54 56 65 62 62 60 58 60 63 65 62 61 61 59 58 59

GFSSGP_500_spd_051.txt.gz
Wind_Speed
46 44 42 40 38 37 34 35 32 31 30 30 25 25 25 23 23 23 18 17 18 16 14 15 15 15 14 15 14 14 16 17 17 18 19 19 19 19 18 18 18 19 20 21 22 22 22 22 21
48 46 44 43 41 39 35 35 33 34 31 29 28 26 25 28 24 23 18 18 17 16 16 15 16 15 14 12 16 15 15 16 16 16 16 17 17 17 17 17 17 17 18 19 19 19 19 20 21
52 49 48 46 44 42 37 41 38 34 33 31 29 29 27 29 24 21 20 19 18 17 16 16 16 16 15 13 15 16 16 15 16 16 16 16 18 18 19 19 20 20 20 20 20 20 20 19 18
46 51 51 50 45 41 40 45 41 35 35 34 31 31 29 27 26 23 21 20 20 19 18 19 18 17 17 16 16 16 16 17 17 17 18 18 19 19 19 20 20 20 20 20 20 21 20 20 20
48 48 52 52 47 42 42 46 41 39 37 36 34 34 33 29 27 25 23 23 22 21 20 20 20 19 18 18 17 18 18 19 21 22 22 21 20 20 20 20 21 21 21 21 21 20 19 19 19
52 49 52 52 46 42 42 42 41 40 40 37 36 33 36 31 28 27 24 23 23 22 22 22 22 22 22 21 21 21 22 22 22 22 22 21 20 20 20 21 21 21 22 23 22 22 22 22 22
53 50 50 51 47 43 40 41 41 40 39 38 39 33 37 31 28 27 25 24 25 24 24 24 25 25 25 25 25 25 25 24 22 22 22 21 21 20 20 20 20 21 22 22 22 23 23 22 22
56 49 52 52 48 41 41 43 40 42 38 42 35 35 37 29 29 28 26 26 26 27 28 28 27 28 28 28 28 28 28 26 25 23 23 22 21 21 21 22 22 23 23 23 23 23 23 23 23
51 55 53 50 47 41 45 45 43 43 43 37 38 39 33 30 29 28 28 28 28 28 28 29 30 31 31 30 29 30 29 28 28 27 25 24 23 23 23 24 24 25 24 23 23 23 24 24 24
51 54 49 43 47 44 46 39 44 42 42 40 38 37 35 32 31 29 29 31 31 30 31 31 32 32 31 30 31 30 30 29 28 29 28 26 25 26 26 26 25 24 23 23 22 23 24 25 25
61 55 45 50 49 49 44 42 48 44 45 41 40 42 35 33 32 31 31 31 30 30 30 31 31 30 29 29 29 29 29 30 30 30 29 28 28 27 27 27 25 24 23 24 23 25 26 27 26
56 55 57 53 46 44 47 44 48 45 47 47 43 37 37 34 33 33 31 32 29 29 29 29 30 29 28 30 30 31 31 31 31 31 30 30 30 28 28 27 26 25 25 25 26 27 27 28 27
55 54 57 53 42 42 47 48 45 47 49 44 44 40 39 36 33 33 32 31 28 28 30 31 31 31 31 32 32 32 32 31 32 33 33 32 31 30 29 28 28 27 28 28 28 28 29 29 28
56 60 54 49 43 43 46 50 49 46 49 45 44 41 39 36 34 32 31 30 29 30 32 33 33 33 34 33 33 32 32 33 34 35 35 35 35 33 31 30 30 30 30 31 30 30 30 31 29
55 61 57 50 44 45 47 51 51 47 47 46 45 43 41 37 35 31 30 30 30 32 33 33 34 33 32 32 32 33 34 35 36 37 37 37 37 35 34 34 33 33 34 34 33 33 33 33 33
58 54 56 51 44 43 47 48 52 48 49 48 47 45 43 39 36 34 32 33 34 34 34 36 34 34 33 33 34 36 37 37 37 38 39 39 40 40 38 36 36 37 36 36 36 37 36 37 36
53 53 52 50 43 42 43 47 51 50 48 48 48 46 44 41 38 36 37 36 36 36 36 37 37 36 36 36 37 38 40 39 39 39 40 41 43 44 43 42 41 40 40 39 39 39 40 40 39
49 48 46 52 43 41 43 46 49 48 46 46 47 46 44 43 41 39 40 38 36 36 36 36 36 36 36 39 41 40 41 43 43 43 42 43 45 45 46 47 47 46 45 44 43 43 43 44 41
50 44 42 44 46 41 41 45 47 43 44 43 43 45 43 43 43 41 39 38 37 36 37 37 37 38 38 39 41 39 41 44 47 48 48 47 47 48 48 47 49 49 49 50 50 50 48 46 46
49 43 44 42 42 38 40 41 43 41 40 39 39 39 41 42 43 41 41 39 37 37 36 37 38 40 40 42 43 45 42 45 46 48 49 50 51 51 51 51 50 51 52 52 52 52 53 51 51
49 42 42 36 45 41 38 38 39 36 36 35 34 36 36 38 39 38 39 38 37 37 37 38 39 41 42 44 45 46 46 45 46 47 48 51 54 55 55 55 55 55 56 56 56 55 54 55 54
48 43 42 34 34 37 38 39 42 36 34 34 34 33 33 34 35 35 36 38 39 39 39 39 40 41 42 43 44 45 46 46 46 48 49 51 55 57 59 57 57 58 59 60 59 58 54 52 53
50 43 41 38 36 37 36 37 42 36 35 34 34 34 34 34 34 36 38 39 40 40 41 41 41 41 41 42 42 43 44 46 47 48 49 51 54 57 59 62 61 60 61 60 59 61 60 57 56
49 44 40 40 38 37 35 35 40 39 39 35 33 33 34 35 37 37 38 38 39 39 39 39 40 40 40 41 41 42 42 43 45 47 48 50 52 55 57 59 61 63 63 64 65 63 62 61 59
40 44 39 39 40 40 39 38 41 35 37 38 37 37 36 36 36 37 37 38 38 38 37 37 37 38 39 41 41 41 41 42 44 46 49 51 52 56 57 59 61 62 63 65 67 66 64 64 62
36 37 38 40 42 41 38 40 42 37 36 34 35 35 36 37 37 37 37 37 36 35 35 36 37 38 37 36 37 39 42 44 45 46 49 52 55 58 60 62 66 68 67 68 68 67 65 64 62
33 39 38 37 40 38 38 39 38 36 34 33 32 33 33 34 35 35 35 34 34 34 34 34 33 33 34 37 38 38 39 42 47 50 54 57 59 61 61 62 65 68 69 71 70 69 67 64 61
23 21 25 34 37 37 39 39 39 37 34 31 30 31 30 31 32 33 33 32 32 31 30 29 31 33 35 34 36 37 38 43 49 54 54 54 60 66 67 67 68 69 68 69 70 69 66 65 63
23 26 24 23 25 28 31 35 34 33 32 32 31 31 31 31 31 31 31 30 29 29 29 30 31 30 29 31 34 33 39 43 44 44 50 58 61 66 68 67 68 64 65 65 63 62 64 64 60
22 24 26 26 24 22 22 28 27 28 29 28 28 30 30 29 30 30 29 28 27 27 27 26 25 27 28 31 31 36 37 40 44 47 47 55 62 59 55 54 55 53 54 58 54 53 54 57 59

GFSSGP_500_spd_054.txt.gz
Wind_Speed
48 45 44 42 40 38 35 35 36 30 28 31 23 22 22 22 23 22 17 14 15 13 12 12 11 11 12 14 13 13 13 14 14 15 16 16 17 16 17 17 17 17 17 17 17 18 19 20 20
51 48 45 45 43 40 36 36 35 33 34 25 25 25 23 30 22 21 19 16 16 15 15 14 15 14 13 14 14 12 13 14 14 15 14 14 14 14 15 16 16 16 17 17 17 17 17 18 18
54 52 49 49 44 41 36 33 38 38 30 32 28 29 30 28 22 21 21 17 17 17 16 16 16 15 14 13 14 14 13 14 14 15 15 15 15 16 17 17 16 17 17 18 18 18 18 19 18
55 55 53 52 47 40 39 39 44 36 33 33 29 32 29 28 23 24 21 20 19 19 18 17 18 18 16 14 14 14 15 15 15 15 16 17 18 19 19 18 18 17 17 18 17 17 17 18 18
57 56 57 54 47 43 36 47 45 36 37 34 32 34 32 31 27 25 23 23 21 19 21 20 19 19 18 16 17 16 15 17 18 19 20 20 19 18 19 19 19 19 18 18 19 19 19 20 20
46 55 58 55 50 44 43 47 44 38 36 33 33 36 32 32 29 28 26 25 25 22 23 22 21 20 19 18 17 18 19 19 20 22 21 20 20 20 21 20 19 19 18 19 19 20 20 21 22
41 44 43 55 48 46 42 43 41 39 37 33 39 36 35 33 32 30 28 27 26 24 24 23 22 21 21 20 20 21 22 23 21 20 21 20 21 20 21 21 21 20 20 20 20 20 21 21 21
43 37 50 43 45 48 42 42 43 39 39 42 38 39 35 32 32 32 29 26 26 25 24 24 23 22 23 23 23 25 25 24 22 20 20 21 21 22 22 22 22 21 21 20 20 21 21 21 21
49 52 43 49 42 43 32 43 43 41 40 41 36 44 41 30 31 31 29 28 26 26 25 24 24 25 26 26 27 27 26 24 23 22 22 21 22 22 22 23 24 23 22 20 19 20 20 21 21
61 57 40 37 40 43 39 36 46 42 39 37 39 37 36 33 32 31 30 29 27 27 26 26 26 28 28 29 29 27 26 25 23 24 24 24 23 22 24 24 25 24 22 22 20 20 21 22 23
55 56 40 43 45 43 46 43 44 43 42 40 41 39 39 34 33 31 30 30 29 28 26 28 29 30 30 29 28 27 26 25 25 25 27 26 24 25 25 26 26 25 24 23 23 23 24 24 24
47 45 47 46 51 42 45 50 38 43 43 44 45 48 38 36 35 33 32 31 29 28 27 29 30 31 29 29 27 26 25 27 27 27 27 27 25 24 26 27 26 25 26 25 26 25 26 26 26
48 49 49 49 48 45 44 44 42 45 45 47 47 39 36 39 36 34 33 32 29 27 30 31 30 30 30 29 28 27 27 26 29 28 29 29 29 27 26 28 26 26 26 28 28 29 28 28 29
52 50 52 54 49 43 38 42 51 42 48 48 44 41 41 40 37 35 33 32 30 30 31 30 31 31 30 29 27 28 28 28 29 30 30 30 31 31 31 30 28 27 28 29 29 29 30 30 31
56 56 54 56 51 49 47 44 48 48 48 43 43 42 41 39 38 35 33 33 32 32 31 29 32 34 31 29 29 29 30 30 29 31 31 32 33 33 34 33 32 31 32 32 32 32 30 31 33
54 59 52 54 49 45 45 46 46 46 46 42 44 42 41 39 37 35 34 33 33 33 32 33 34 34 33 31 30 31 31 32 32 32 33 33 35 37 37 37 37 37 36 36 37 37 34 34 35
54 55 51 49 50 44 43 44 46 43 49 45 43 43 42 39 38 36 35 36 36 36 35 35 34 33 33 33 32 32 35 34 35 37 37 37 37 39 41 40 40 41 41 40 39 42 42 42 40
49 49 51 45 47 48 48 42 48 47 44 46 42 43 43 41 40 38 39 40 38 36 35 34 33 33 34 35 36 33 36 37 38 39 39 40 40 40 42 43 43 43 44 42 42 44 46 45 46
46 48 45 43 47 45 49 48 44 46 45 44 46 45 44 43 43 44 42 37 37 39 38 36 37 35 35 36 37 37 33 37 41 42 42 42 41 42 43 44 45 46 47 47 47 47 48 48 49
46 45 44 45 44 44 44 51 45 45 44 43 46 47 44 42 43 42 41 40 41 39 37 36 36 36 36 37 37 39 39 36 39 43 45 46 45 45 47 49 48 47 49 49 50 51 51 51 53
49 45 45 45 37 35 45 48 45 42 41 42 40 43 45 44 43 41 40 41 41 39 37 36 36 37 37 37 38 40 42 42 38 40 45 47 49 49 49 50 51 52 54 52 52 52 53 53 54
46 46 44 43 34 36 43 47 45 42 38 40 41 40 40 40 39 37 38 40 39 37 36 35 36 36 37 38 38 40 42 43 43 41 43 46 48 50 53 53 54 56 57 58 56 56 57 56 54
43 43 43 39 39 39 42 45 44 44 36 33 34 38 36 34 33 32 33 33 33 32 33 34 34 35 37 39 39 40 41 42 43 44 44 45 46 47 48 50 54 55 57 59 60 60 60 60 60
36 43 41 39 39 37 33 44 42 41 35 34 32 31 32 33 33 31 30 31 31 32 34 35 35 37 38 39 39 40 40 40 40 42 44 44 45 46 47 49 52 55 57 59 61 63 64 65 63
30 40 41 41 39 36 32 37 40 41 43 36 35 33 33 32 32 32 31 32 33 34 36 37 38 38 39 39 38 38 39 40 40 40 40 42 44 44 46 50 52 55 58 61 63 66 69 68 68
30 33 39 41 38 35 32 33 35 43 36 34 36 39 37 36 35 35 35 36 36 37 38 39 39 38 38 37 38 38 37 36 37 37 36 39 43 46 50 53 51 52 58 62 64 66 68 69 68
29 30 35 38 38 36 35 34 33 35 32 31 32 32 34 35 37 38 39 39 39 39 39 38 37 37 36 36 36 36 36 34 33 35 35 39 44 46 46 46 53 56 61 66 69 70 69 68 67
26 27 30 32 34 35 36 34 33 31 33 31 31 31 32 33 35 36 37 39 39 38 37 36 35 34 35 35 35 33 29 30 32 34 39 42 42 42 43 48 54 61 67 62 58 63 65 63 63
21 23 25 28 29 31 32 35 35 32 34 34 32 32 31 32 33 35 35 36 35 35 34 34 33 35 35 34 30 27 28 31 33 36 34 34 38 37 41 48 54 61 57 58 50 52 56 52 53
19 19 19 18 22 21 27 33 33 34 37 35 33 34 34 34 34 33 33 33 33 32 33 34 35 33 30 27 27 29 32 31 29 31 32 35 33 32 38 45 52 53 45 51 49 48 46 50 47

GFSSGP_500_spd_057.txt.gz
Wind_Speed
53 50 47 46 44 41 38 39 39 37 35 32 27 24 24 22 24 19 13 11 13 12 11 10 9 8 8 9 9 10 12 12 13 13 14 14 14 14 14 14 13 13 14 14 14 14 14 15 17
56 54 51 49 46 43 39 40 39 37 32 27 24 24 26 26 24 20 15 12 14 13 12 11 11 11 11 12 13 12 12 12 12 13 13 14 15 14 14 14 14 14 14 15 15 15 16 16 17
59 58 54 52 48 41 38 43 41 37 33 32 31 31 32 25 23 21 18 15 16 15 14 14 14 14 13 12 14 14 12 12 13 14 14 14 14 14 15 15 16 16 16 16 16 17 17 17 18
61 62 58 56 49 41 39 44 45 41 34 33 33 33 29 24 23 22 19 16 17 17 16 16 17 16 15 14 13 13 14 14 13 13 14 15 17 17 16 16 16 16 16 15 16 16 16 17 17
61 64 62 58 51 42 46 44 47 42 38 36 36 34 31 27 26 25 23 18 19 20 19 18 19 18 16 15 14 14 14 15 15 15 17 18 18 17 16 17 16 16 16 16 16 16 17 18 18
55 63 62 58 51 44 49 47 46 43 39 34 38 36 32 29 28 27 25 22 22 23 22 21 20 20 19 17 16 14 13 13 15 19 20 19 17 17 18 17 17 17 17 17 17 18 18 18 18
54 56 58 53 50 47 47 47 48 44 34 35 40 37 34 33 31 29 26 25 24 25 24 23 22 21 20 18 16 16 16 16 16 18 19 18 16 16 17 17 17 18 18 18 18 18 17 17 17
50 51 55 54 49 47 44 47 42 43 38 38 42 40 34 32 31 31 30 26 25 25 25 24 23 21 20 19 18 18 19 20 20 18 17 17 17 17 17 18 19 19 19 19 19 19 18 17 17
46 52 51 48 53 46 51 48 50 44 42 42 44 40 36 33 33 32 31 29 27 27 26 24 23 22 21 20 21 21 21 22 22 21 17 15 15 18 18 19 20 21 22 21 20 20 20 20 20
45 48 46 37 38 47 48 43 46 45 44 44 42 39 36 35 32 29 31 30 28 27 26 26 25 24 22 22 24 24 24 23 22 21 20 18 17 17 18 19 20 21 21 21 22 22 22 23 23
55 47 45 40 41 38 35 48 32 48 47 48 42 38 38 36 35 36 33 32 30 29 28 26 26 25 23 25 25 25 24 23 23 22 21 19 19 20 20 20 20 21 22 22 22 22 23 24 25
50 56 52 41 47 49 47 33 27 33 46 48 45 42 42 40 38 36 34 33 31 30 29 28 26 25 25 26 26 25 24 23 22 23 23 22 21 23 24 24 24 24 24 24 24 23 24 26 26
51 48 54 50 49 37 47 46 52 28 33 46 47 43 41 39 36 34 34 33 32 31 30 30 27 28 27 25 25 24 24 24 24 22 24 24 22 23 24 25 24 25 26 25 26 27 26 28 28
49 51 51 49 50 43 38 44 48 45 37 39 48 45 38 38 37 36 34 34 32 33 32 30 29 29 27 26 26 24 24 26 26 23 23 24 25 25 26 26 26 27 28 28 28 29 29 30 30
53 48 53 42 44 44 43 40 34 38 45 47 43 40 38 38 39 37 36 36 36 33 32 30 30 29 28 27 26 27 26 25 24 25 24 25 27 28 28 29 28 30 30 31 31 31 32 33 33
52 51 50 43 41 44 43 37 41 39 45 44 42 43 40 41 40 39 37 37 36 35 32 29 31 31 28 28 28 28 27 27 27 27 29 29 31 32 33 33 33 34 33 34 35 35 35 35 35
48 48 49 46 38 42 43 40 43 43 43 45 45 44 41 41 40 39 39 39 38 37 33 28 28 31 31 30 28 29 31 29 30 31 31 32 33 34 35 35 35 37 37 37 37 39 41 42 41
35 36 44 45 45 40 47 46 45 46 45 43 44 45 42 40 38 38 39 39 39 36 33 32 31 30 32 35 34 30 33 34 32 32 34 34 33 33 35 37 38 40 41 42 42 42 43 43 45
32 37 40 43 45 43 44 48 47 44 45 41 40 41 44 41 42 41 38 38 37 35 34 35 37 35 34 34 36 35 34 35 36 36 35 36 38 38 38 38 40 41 43 45 47 46 46 46 47
32 36 39 43 46 46 40 45 46 45 43 44 41 40 43 44 40 40 39 37 37 38 38 38 38 38 38 38 38 38 35 33 34 37 39 42 42 40 40 41 42 43 44 45 46 48 48 46 49
29 32 38 43 43 48 42 40 43 43 43 41 40 41 40 42 45 43 39 37 39 40 41 40 40 40 40 40 38 38 38 37 35 36 38 42 45 46 45 44 43 45 47 47 49 49 49 50 51
26 33 40 40 40 43 40 39 41 45 45 43 39 41 44 42 43 42 39 36 37 38 40 42 42 42 41 39 38 38 39 38 38 38 39 41 44 46 47 46 45 46 47 49 51 52 52 52 54
26 32 37 39 39 41 39 40 36 44 41 43 41 39 40 38 37 34 35 38 38 39 40 42 42 39 37 37 37 38 38 40 40 41 40 43 43 43 44 45 46 46 46 47 48 51 54 56 58
23 31 35 39 42 41 34 35 34 39 43 43 42 38 39 39 37 36 35 34 35 37 38 38 38 37 35 35 36 37 39 40 41 42 41 41 42 41 40 41 43 44 46 48 51 54 56 57 58
23 23 35 38 42 39 34 37 35 37 42 43 38 35 36 37 39 38 37 36 35 34 33 33 34 35 36 37 39 40 40 41 40 40 40 41 39 40 40 39 40 44 48 49 47 48 53 59 64
21 18 25 37 37 37 38 34 35 32 41 45 40 36 36 34 33 32 31 32 32 33 34 35 36 37 39 40 41 42 40 38 39 40 37 37 38 39 39 39 43 46 43 43 47 52 57 63 65
22 21 19 24 34 37 37 31 30 28 36 41 37 35 37 37 36 35 34 34 34 35 37 39 40 40 41 42 42 39 38 38 38 37 37 37 36 36 39 41 40 40 39 44 48 54 59 54 54
26 29 26 27 29 36 37 33 28 25 26 31 37 36 35 36 39 41 43 45 45 45 44 43 42 43 42 40 38 37 37 37 37 36 35 34 34 35 35 37 38 36 39 45 51 54 48 48 51
23 22 26 24 27 29 32 33 29 28 27 26 30 33 33 35 35 36 37 39 39 40 40 40 39 38 37 35 35 37 38 37 36 34 33 33 33 34 35 36 34 35 39 45 48 42 43 47 53
23 21 18 22 23 24 23 28 26 26 26 26 24 28 30 31 32 32 34 36 37 36 36 35 34 34 34 34 36 37 36 34 33 34 34 32 33 35 35 34 34 37 42 44 42 37 38 45 54

GFSSGP_500_spd_060.txt.gz
Wind_Speed
53 53 51 49 47 45 41 38 40 39 40 37 37 36 33 30 23 21 18 12 15 16 14 12 10 8 7 5 4 6 8 9 10 11 11 12 12 13 14 13 14 14 13 14 14 14 14 14 15
56 55 53 51 49 45 41 42 42 39 38 37 36 36 35 31 24 20 16 11 13 14 12 11 11 8 8 7 8 8 10 11 11 11 11 11 13 13 13 13 13 14 14 14 14 14 15 15 16
60 58 56 54 51 44 43 45 43 40 40 37 36 35 32 27 26 22 19 17 16 15 14 12 12 11 10 9 10 12 11 12 12 11 11 10 11 12 14 15 15 14 14 15 15 15 15 15 15
65 61 60 57 52 43 47 46 42 42 40 35 36 36 32 31 27 23 20 17 17 15 15 14 13 12 11 10 11 13 13 12 11 11 11 12 13 15 14 13 13 14 14 14 15 15 15 16 16
61 64 62 59 52 48 50 47 46 45 42 40 40 38 32 29 26 25 20 21 19 19 16 16 15 14 13 12 12 12 13 14 13 12 13 15 16 16 14 14 14 13 13 14 15 16 17 17 18
57 65 63 59 52 51 51 50 50 47 43 43 42 39 35 32 30 27 24 24 21 20 19 18 17 17 15 15 14 14 14 13 13 16 17 17 17 16 15 15 14 14 14 14 15 16 17 18 19
56 58 66 59 51 52 54 54 52 48 42 43 42 41 35 34 31 28 26 24 23 22 21 20 19 18 17 16 16 15 15 14 14 15 17 18 18 16 15 15 14 14 14 14 15 17 17 18 17
61 61 65 59 51 52 58 57 54 49 43 44 45 41 35 32 31 30 28 27 26 24 23 23 22 20 19 18 18 17 17 16 15 15 15 16 17 16 15 15 15 14 15 16 16 17 17 18 18
46 59 61 63 54 54 56 57 57 52 46 46 45 40 38 36 33 31 29 28 28 26 25 24 23 21 21 21 20 19 18 18 18 17 16 16 15 16 18 17 16 16 16 17 18 19 19 20 20
53 60 53 51 57 55 59 59 56 55 51 49 46 42 38 36 34 32 32 30 30 28 27 25 24 23 23 22 21 19 19 19 19 18 17 16 16 16 17 17 18 19 19 20 20 21 21 23 23
46 52 50 49 57 58 58 60 56 54 56 51 48 44 39 38 37 33 31 33 32 30 29 27 26 25 24 23 22 20 20 20 20 18 18 18 18 18 17 17 17 19 20 21 22 23 24 24 24
57 46 44 43 56 54 58 59 57 52 54 55 48 47 46 43 40 39 37 36 30 29 29 29 28 26 26 24 23 21 21 21 21 21 19 19 19 20 20 19 19 20 22 24 25 25 26 27 27
54 52 51 49 53 51 53 45 50 54 53 54 49 48 48 47 44 41 39 38 36 33 32 30 28 27 27 26 24 23 23 22 22 22 21 20 20 22 23 23 22 23 25 26 27 28 28 28 30
46 51 55 54 54 52 55 41 45 48 46 45 50 48 46 45 41 39 38 38 37 36 35 32 30 28 27 26 26 25 25 24 23 23 24 22 22 23 24 26 26 27 27 28 28 29 29 29 30
49 51 61 58 50 52 59 42 37 35 39 41 43 46 43 43 41 39 39 39 38 38 37 35 32 30 28 28 27 25 26 25 24 23 25 25 26 26 26 26 28 31 31 31 30 31 32 32 33
49 54 58 54 47 53 52 47 32 40 31 37 39 43 42 40 40 41 40 40 39 38 37 35 34 32 29 30 27 27 26 26 25 26 27 28 29 29 29 30 31 33 31 31 32 34 34 35 36
46 51 52 44 47 47 52 38 42 39 39 50 46 39 39 41 42 44 43 42 40 38 36 35 34 32 32 31 30 29 29 27 27 27 28 31 31 31 30 31 31 33 34 34 35 36 37 38 39
35 33 44 43 41 44 42 44 39 39 42 43 46 41 42 42 42 44 44 42 41 38 36 34 32 34 34 34 33 31 30 29 30 31 29 32 32 33 34 34 33 36 37 37 39 40 41 41 42
27 27 37 37 44 43 35 40 41 42 42 42 39 37 41 41 43 44 43 42 40 39 37 36 35 35 35 36 35 33 32 32 33 33 33 34 33 34 34 36 37 38 40 42 43 44 44 45 45
27 28 29 36 38 42 46 42 45 48 45 38 38 38 38 43 43 42 42 43 40 38 38 39 39 40 38 35 35 35 35 36 36 38 37 35 36 37 38 39 39 40 42 43 45 46 46 47 47
28 26 27 30 35 39 44 43 45 42 45 43 39 40 40 40 42 45 44 44 43 41 42 41 40 39 39 39 37 37 37 38 38 38 38 39 40 41 43 42 42 42 43 44 45 45 47 47 47
25 27 26 30 31 33 37 44 40 42 43 43 41 40 40 41 40 42 44 44 42 43 44 44 42 40 39 38 39 39 39 40 40 38 37 39 41 43 45 46 46 44 43 44 44 44 44 47 47
23 23 24 27 30 33 35 42 42 42 41 36 39 41 41 40 40 40 39 42 45 43 43 45 43 42 42 43 42 41 40 40 40 38 38 39 42 43 45 46 45 44 45 44 42 44 44 47 50
24 24 26 30 31 32 32 35 44 41 36 40 39 39 42 41 40 40 37 38 41 42 42 40 43 45 43 40 42 43 42 40 39 39 40 42 44 44 44 43 43 43 42 43 43 44 47 50 45
21 21 22 27 31 33 35 37 43 42 38 39 41 41 41 44 42 40 38 35 35 37 38 39 41 43 44 45 45 42 40 39 40 41 44 45 45 44 42 42 40 40 41 42 44 48 45 43 45
20 21 20 23 29 30 34 37 32 40 41 38 40 44 42 42 43 42 40 39 38 39 39 39 39 39 39 38 37 38 39 41 42 45 45 44 43 43 43 42 41 40 40 44 45 44 42 43 47
25 20 16 17 19 25 33 33 32 32 37 36 37 41 42 41 42 41 40 40 40 40 40 40 40 39 39 38 38 39 43 44 46 46 44 43 42 42 42 41 39 39 42 41 44 40 40 44 46
22 21 18 20 21 19 22 30 30 31 29 32 33 41 42 41 41 40 39 38 37 37 37 37 38 39 40 43 46 47 48 47 45 43 42 41 41 42 41 39 39 39 40 39 37 38 42 44 44
21 20 19 21 25 25 22 24 29 29 25 26 30 40 43 41 41 41 42 42 41 42 42 43 46 48 49 50 49 47 45 42 40 40 40 40 41 41 39 39 39 40 40 37 37 40 43 43 44
25 24 25 26 25 23 23 22 23 24 29 27 22 26 38 40 41 39 38 39 40 42 44 45 45 44 44 42 40 38 37 37 38 39 39 38 38 39 40 39 40 38 38 38 39 40 41 41 41

GFSSGP_500_spd_063.txt.gz
Wind_Speed
54 52 50 50 49 49 45 42 42 43 41 39 36 35 32 31 30 26 18 15 16 17 16 15 13 12 10 7 5 4 4 5 8 9 10 11 12 12 12 12 11 11 11 12 13 13 13 13 14
58 54 52 52 52 50 44 41 43 43 44 43 39 36 34 33 30 26 20 14 14 15 13 13 12 11 9 7 7 5 6 7 8 9 10 11 11 11 10 11 12 12 12 11 11 12 12 13 14
63 58 54 55 53 49 44 44 44 43 45 45 42 40 38 35 30 26 20 17 15 16 15 14 13 10 8 8 8 8 7 8 9 10 10 10 11 11 13 14 13 12 12 11 11 11 12 14 16
64 62 57 56 53 47 47 47 45 44 46 45 44 43 41 36 30 28 23 20 19 17 15 14 12 11 9 7 8 10 11 10 10 11 11 11 12 13 14 14 13 13 13 12 12 12 13 14 16
60 64 63 58 52 49 49 50 48 46 46 44 42 41 39 35 31 29 24 21 18 17 16 15 13 12 10 8 9 10 12 14 13 12 12 13 14 14 14 14 13 14 14 14 14 14 14 15 17
53 61 65 61 52 49 52 52 50 48 48 45 41 39 37 34 31 29 25 23 22 20 19 16 14 13 12 10 11 11 12 13 15 15 16 15 16 15 14 13 14 15 15 15 15 16 16 17 17
52 60 62 62 54 52 54 53 53 51 49 47 43 42 38 34 33 32 28 26 25 22 20 18 16 15 14 13 13 13 14 14 14 14 17 19 17 15 15 14 15 16 16 16 16 16 17 17 17
65 55 59 62 53 52 55 54 54 54 52 49 45 43 37 35 34 33 31 28 26 23 21 20 19 18 16 15 16 16 14 14 14 14 15 17 17 17 15 15 16 17 17 17 17 17 17 17 18
46 57 60 62 53 53 55 55 57 56 52 50 45 42 39 37 36 33 32 29 28 26 25 23 21 20 18 17 18 18 16 15 15 16 16 16 16 16 17 17 17 17 18 18 18 18 18 19 20
52 54 55 52 54 53 55 56 58 57 54 50 48 44 41 37 36 34 33 31 29 27 25 24 23 21 20 19 19 19 18 17 18 17 17 16 16 17 17 18 19 20 20 20 20 19 20 22 23
56 59 48 55 60 61 59 53 59 58 56 53 49 46 43 40 36 35 33 32 30 29 27 26 25 24 22 20 20 20 19 20 20 19 18 17 18 18 19 19 21 21 21 21 22 22 23 24 25
49 50 53 46 57 60 62 60 52 58 56 55 54 51 47 43 41 39 36 35 32 31 29 28 28 27 25 24 22 21 21 21 21 20 20 19 20 20 20 20 21 21 22 22 23 23 24 26 27
55 48 51 52 50 62 66 63 60 56 57 55 52 49 49 46 45 42 39 35 32 30 29 30 29 29 28 25 24 24 23 22 22 22 22 21 21 22 22 22 22 23 24 24 25 26 27 29 30
53 56 51 48 48 52 60 62 63 61 57 54 54 52 52 51 48 44 40 39 37 35 34 32 30 29 29 27 27 26 24 23 24 24 22 22 23 24 24 24 25 26 26 27 29 30 30 31 33
50 54 56 49 45 45 54 62 60 61 59 56 54 51 51 52 50 46 43 42 40 39 37 35 34 32 30 29 29 28 27 25 25 25 24 24 25 25 26 26 28 30 29 30 30 31 32 32 33
51 50 56 58 48 43 55 59 52 55 59 58 59 57 53 50 48 46 44 43 41 40 39 37 35 33 32 31 32 30 28 28 27 27 28 28 28 28 27 29 30 32 32 32 33 34 35 36 36
50 49 48 58 53 47 52 56 53 44 48 53 52 59 59 56 52 48 47 45 44 42 40 39 38 37 36 34 34 33 32 31 31 29 29 30 30 30 31 31 31 33 34 34 35 36 37 39 40
41 44 39 39 47 53 50 54 63 44 41 41 43 51 50 52 50 52 52 50 45 42 41 41 40 40 39 37 36 35 34 33 31 30 30 32 33 33 32 33 34 35 36 36 39 39 40 41 42
33 36 33 36 42 52 52 49 59 52 45 41 41 42 48 49 52 50 50 47 44 41 40 41 42 41 40 40 38 37 35 35 33 33 33 33 34 36 35 36 36 37 38 40 41 42 44 43 44
32 31 32 35 39 47 46 47 44 42 47 44 45 46 43 44 45 49 48 48 46 43 43 42 41 41 41 42 41 39 38 37 36 36 35 36 36 37 37 37 38 40 41 41 43 45 45 45 46
31 28 30 32 36 43 45 47 40 34 39 42 38 39 40 44 48 46 48 48 45 43 42 43 43 43 42 41 40 39 38 38 37 37 38 39 38 39 39 39 41 43 44 44 45 45 45 45 47
33 28 28 26 33 39 41 48 45 35 38 44 42 40 35 37 39 42 43 45 45 44 43 43 45 44 44 43 43 42 40 38 38 40 41 42 43 43 42 42 44 45 46 46 45 44 45 45 43
32 27 23 22 24 29 32 38 38 45 39 40 39 39 40 39 38 39 40 41 43 46 46 47 48 48 47 46 45 44 44 43 42 42 42 43 44 43 43 44 46 47 49 48 45 46 45 44 44
29 25 25 25 26 27 30 32 32 42 41 40 42 41 43 42 43 40 41 41 41 42 46 48 48 49 49 49 51 51 49 46 44 42 42 43 43 42 43 45 47 49 48 46 47 46 46 45 45
28 27 27 26 26 25 29 32 19 32 48 44 42 42 44 45 46 44 41 40 41 41 42 43 46 48 48 48 48 46 45 47 46 46 46 44 42 43 45 47 47 47 45 45 44 44 43 44 47
26 23 22 22 22 21 26 27 27 25 40 47 46 43 41 45 45 45 44 41 39 39 40 41 43 44 44 45 45 46 46 46 46 45 42 42 45 46 47 48 46 44 43 42 42 41 43 45 44
24 21 20 21 21 23 27 29 29 33 33 42 44 43 39 39 43 45 45 45 42 41 41 41 41 42 42 42 42 42 42 42 42 41 42 44 47 49 49 48 45 43 42 41 41 42 43 44 43
26 24 23 22 21 22 20 19 24 30 32 37 39 41 41 39 43 46 45 44 44 44 43 44 43 44 45 45 45 44 43 42 42 44 48 51 51 50 47 44 42 41 42 41 42 44 43 44 42
27 27 25 22 21 20 21 18 17 26 28 33 30 33 37 39 43 47 45 44 44 44 43 43 44 44 45 44 43 42 43 46 51 54 53 50 48 45 42 41 41 41 41 41 42 43 42 43 43
27 25 21 23 23 24 24 21 19 19 24 25 29 32 34 37 41 45 42 41 43 43 43 43 43 44 44 45 46 50 52 51 50 48 45 42 40 39 39 39 40 40 41 42 42 40 40 40 41

GFSSGP_500_spd_066.txt.gz
Wind_Speed
57 53 51 49 48 49 46 44 43 40 39 38 38 35 32 29 28 24 21 17 19 17 14 14 12 11 9 7 6 4 4 4 4 5 7 8 10 11 11 10 9 10 11 11 11 11 11 11 12
61 57 54 53 52 50 46 43 44 45 43 40 38 36 35 32 30 28 23 18 15 16 14 14 13 11 9 8 6 5 5 6 6 7 8 9 10 10 10 11 11 11 11 10 11 11 11 11 13
64 62 57 56 54 50 46 45 46 49 48 41 39 39 37 36 33 31 24 18 17 17 14 13 13 10 8 8 6 6 6 6 6 8 8 9 10 10 12 12 11 11 11 11 11 11 12 13 14
50 66 63 59 55 50 47 47 47 48 49 48 43 41 39 38 35 31 25 20 20 19 16 14 12 9 8 7 7 8 9 7 8 9 9 9 11 12 13 12 12 11 12 12 12 13 14 15 16
47 53 66 63 58 51 49 49 48 48 49 47 48 46 42 40 36 31 27 23 21 20 16 15 12 11 10 8 8 9 11 11 10 9 9 10 12 13 14 13 13 12 12 12 13 14 15 15 16
50 52 58 61 59 52 51 50 50 48 48 48 48 47 45 42 38 33 30 23 21 19 18 16 13 12 11 10 9 9 10 11 12 13 12 12 14 14 14 14 13 13 14 14 14 15 16 17 17
50 52 52 59 59 53 52 52 51 50 49 48 47 46 44 41 38 34 30 25 22 21 19 17 15 14 13 11 10 10 11 11 11 12 16 17 16 15 14 15 14 14 15 15 16 16 17 17 17
58 48 55 55 59 49 53 53 52 52 51 49 46 44 41 38 36 35 33 28 26 23 20 18 17 16 15 14 12 11 11 11 11 11 14 17 18 18 17 15 16 15 16 17 17 18 18 18 19
68 55 54 55 58 52 53 55 55 53 51 49 47 44 39 39 36 35 33 30 27 24 22 21 20 19 17 15 14 13 13 13 12 13 15 16 16 17 18 18 17 17 17 18 18 19 20 20 20
67 53 48 52 53 53 56 55 56 54 53 52 49 45 41 39 37 36 34 33 30 27 25 23 21 20 19 17 16 15 14 15 14 15 15 15 16 17 18 18 19 19 20 20 20 20 22 21 22
61 59 42 50 48 56 58 58 57 56 55 53 50 45 43 42 39 37 37 36 32 29 27 24 23 22 21 20 18 18 17 17 16 16 17 16 17 18 18 18 19 19 19 20 21 22 23 23 23
56 56 45 47 46 51 61 60 59 58 56 54 51 47 44 44 41 39 38 34 31 30 27 26 26 24 23 22 21 21 21 20 18 18 19 19 19 20 20 20 20 20 20 21 22 23 25 25 26
51 57 53 47 46 47 59 62 63 58 57 56 53 49 44 42 43 41 40 38 34 31 31 30 28 27 26 24 23 24 23 22 21 20 20 21 21 21 22 21 22 22 22 23 24 25 27 27 27
48 54 59 50 47 41 57 63 63 59 57 55 53 50 48 44 44 43 41 38 36 35 34 33 31 29 29 27 25 25 26 24 23 23 22 23 23 23 23 23 24 25 25 27 28 29 29 29 28
50 52 56 41 50 42 51 63 58 55 57 55 55 52 49 48 44 46 45 43 41 39 37 35 33 31 29 28 28 28 28 27 26 25 25 26 26 25 25 25 27 28 28 29 30 31 31 31 31
51 53 61 39 42 52 43 55 61 58 58 58 58 52 51 48 47 44 45 45 44 42 40 39 36 34 33 32 32 32 31 29 28 28 28 28 27 26 27 27 30 31 31 31 32 33 33 34 35
55 51 53 46 45 40 42 45 63 62 61 61 59 56 51 51 50 50 46 46 43 43 41 39 38 36 36 35 35 34 32 31 31 31 30 29 28 29 29 30 32 34 34 34 35 35 35 37 39
41 46 51 53 47 34 41 44 52 65 57 61 61 58 54 52 54 51 51 50 48 47 45 42 40 39 38 38 37 36 35 34 34 33 31 31 31 32 32 33 35 36 37 37 37 37 38 41 41
41 46 44 40 47 48 48 45 51 62 63 61 60 60 57 53 52 53 56 54 52 49 46 45 43 42 41 40 39 39 38 38 37 36 35 34 35 35 35 36 37 38 39 40 39 40 42 42 44
42 39 42 42 37 39 54 53 49 50 66 47 49 51 55 53 54 59 63 61 58 53 49 48 47 46 45 44 43 42 41 40 39 38 38 38 38 38 38 39 40 41 41 42 42 42 44 44 46
39 34 36 39 39 38 40 48 52 44 51 59 38 50 54 57 59 55 54 60 59 56 53 50 48 48 47 46 46 45 43 42 43 43 42 42 42 42 41 41 42 43 44 45 44 45 45 46 46
34 30 34 37 36 37 38 49 44 46 46 48 49 38 44 43 45 48 49 51 50 49 49 49 49 49 48 47 47 46 44 43 44 44 44 44 44 43 43 44 44 45 45 45 46 47 47 48 46
34 33 31 30 32 35 35 48 49 51 46 38 45 48 44 38 45 43 45 48 48 46 47 48 48 47 47 47 46 46 46 46 46 46 46 45 45 46 48 46 45 46 45 46 47 49 48 47 45
33 34 29 26 26 25 24 24 26 42 46 43 36 41 42 44 42 41 43 44 45 47 49 49 48 47 47 47 47 48 48 48 48 48 48 49 51 52 49 47 47 46 45 47 49 49 48 47 45
31 32 30 26 25 20 23 22 11 23 37 44 44 40 44 47 46 46 41 41 43 45 46 47 47 49 50 50 50 50 50 51 51 51 52 51 51 50 49 47 45 44 46 48 49 49 48 46 44
31 31 32 29 25 21 20 20 20 25 26 33 39 48 45 44 45 47 48 48 46 45 44 46 46 47 49 49 50 52 52 52 51 49 48 47 47 47 45 42 42 45 47 48 47 46 44 43 42
28 29 29 26 24 21 20 20 23 25 32 35 33 43 48 44 44 46 49 50 49 48 47 45 46 47 47 48 49 49 49 48 47 47 46 45 44 43 42 42 47 49 49 48 46 43 41 41 40
26 25 25 23 24 23 22 18 18 24 30 36 38 37 45 44 44 44 43 48 50 49 49 48 46 45 44 44 45 46 46 45 44 44 44 45 44 43 46 51 53 51 48 45 42 41 40 40 40
25 27 28 26 26 24 19 15 18 23 23 31 36 37 38 44 47 48 45 46 48 49 48 48 48 47 45 45 45 45 45 46 46 46 45 44 46 50 55 53 50 47 44 41 40 40 39 40 41
26 29 30 32 28 21 21 19 19 21 23 23 32 34 31 35 42 43 44 44 45 47 48 46 44 44 44 45 46 46 46 46 45 45 46 49 53 51 48 46 44 42 39 39 39 39 39 40 40

GFSSGP_500_spd_069.txt.gz
Wind_Speed
58 57 54 50 49 49 45 42 41 40 40 38 37 35 31 29 26 23 20 18 17 15 14 13 12 10 8 7 6 4 3 2 3 3 3 4 5 7 7 9 10 10 10 10 9 10 9 9 9
61 57 58 54 53 52 47 43 43 43 44 41 39 37 33 31 28 27 24 22 17 14 14 14 12 11 9 8 7 5 3 3 4 4 5 5 6 7 8 9 9 10 10 10 11 11 10 11 12
60 60 59 58 55 52 48 46 44 45 40 42 41 39 36 33 31 30 27 22 17 13 13 14 12 10 10 9 7 5 4 4 5 6 6 6 6 6 8 9 9 9 9 10 11 11 11 12 12
57 61 62 61 57 53 50 47 46 47 46 40 39 39 38 36 33 32 29 22 18 16 14 15 13 11 10 9 7 6 5 5 6 6 6 6 6 7 9 9 9 10 10 11 12 13 13 13 13
56 55 61 61 60 53 51 49 48 49 49 48 39 39 37 38 36 36 33 25 22 18 16 15 15 12 10 9 7 7 7 6 7 6 7 7 8 9 10 11 11 11 11 12 13 14 14 14 15
59 51 56 53 57 57 54 51 50 49 50 50 48 41 41 40 39 37 35 28 24 21 19 17 16 14 12 10 7 7 7 9 10 9 9 9 9 10 11 11 12 12 12 13 13 14 15 15 15
54 53 44 51 58 60 55 54 52 50 49 50 49 49 46 43 40 37 34 30 25 23 21 19 18 16 14 11 9 8 8 8 9 11 12 13 11 11 12 12 12 12 12 14 15 15 16 17 17
48 61 48 50 52 63 55 57 54 52 50 49 50 50 48 46 43 40 35 31 26 23 23 21 19 18 15 13 11 9 9 8 8 10 11 14 16 15 14 13 14 14 14 15 16 17 17 18 19
47 68 46 50 48 60 56 56 55 53 52 51 49 48 46 44 41 39 37 33 27 26 24 23 21 20 17 14 12 11 10 9 10 10 11 12 14 15 15 15 15 15 15 16 16 16 18 19 20
56 63 51 43 50 51 58 57 54 55 54 52 49 47 45 43 42 41 38 35 31 29 27 25 23 22 18 16 13 13 12 12 12 12 13 13 13 14 14 15 15 16 17 17 18 18 19 20 21
52 52 59 47 41 53 56 59 54 56 56 54 52 49 45 42 40 41 39 37 35 30 28 27 24 22 20 18 16 15 14 14 14 15 15 15 14 14 15 15 15 16 16 18 18 20 21 22 22
51 44 65 60 44 45 53 59 60 56 57 56 53 50 45 42 41 41 40 37 35 31 29 28 26 25 22 20 18 17 17 17 16 17 18 17 16 16 17 17 17 17 18 19 20 21 23 24 25
50 42 56 61 51 43 51 55 62 60 58 57 55 51 47 45 41 40 40 38 35 33 32 31 30 28 25 23 21 21 21 19 19 19 20 20 19 19 19 19 20 20 20 21 22 24 25 26 27
51 43 48 55 43 39 43 52 59 64 62 59 57 53 48 46 43 41 39 38 37 36 35 33 32 30 28 26 25 24 23 22 22 21 22 23 23 22 22 22 23 23 22 23 25 26 27 29 29
52 47 45 51 58 41 39 44 52 60 64 60 58 56 50 47 45 42 40 41 41 38 38 36 34 33 30 29 27 26 24 24 25 25 25 26 26 25 24 25 25 25 25 25 27 29 30 31 32
43 49 42 51 56 44 44 32 44 55 59 61 58 56 51 49 46 44 41 41 43 40 40 39 37 34 32 29 27 27 27 28 28 29 29 29 28 27 27 27 28 27 28 29 31 32 33 34 35
45 42 45 42 54 43 36 34 47 57 54 58 59 54 50 49 47 46 44 42 44 43 41 40 39 37 35 33 33 32 31 32 32 32 32 32 31 30 30 29 30 30 31 33 34 35 36 36 37
48 45 39 40 47 49 28 36 45 64 58 57 55 56 53 50 48 46 47 42 42 45 45 45 43 42 39 38 37 36 35 35 35 35 35 35 33 33 33 32 33 34 35 36 37 37 38 38 39
45 44 41 37 44 41 43 37 46 47 63 51 52 53 52 51 50 47 47 47 46 45 46 45 43 43 42 41 40 40 39 38 38 38 38 38 37 37 36 36 37 38 38 39 40 41 42 41 41
45 41 41 37 40 48 44 37 44 38 55 63 58 53 55 54 50 50 50 49 50 50 51 50 48 47 46 45 44 43 42 41 40 40 40 40 41 41 40 39 39 39 40 42 43 45 45 45 43
43 37 36 37 35 40 39 44 37 38 45 50 62 61 55 52 51 50 53 53 54 57 54 52 51 49 48 47 46 45 44 43 43 43 43 43 43 44 44 43 43 43 44 44 46 49 48 46 44
43 37 32 33 34 38 37 38 48 46 39 47 50 52 56 56 56 54 56 56 56 56 57 56 54 53 53 51 50 48 47 46 46 45 45 46 46 46 47 46 45 45 45 45 50 49 47 47 44
39 34 30 29 32 39 41 40 45 48 54 38 37 53 53 45 50 51 49 53 55 55 54 51 54 56 57 58 57 54 51 50 49 48 48 47 47 48 48 47 47 47 49 53 50 48 47 45 45
36 33 32 29 28 29 31 35 36 37 43 52 43 42 46 45 45 48 50 53 51 50 48 47 49 50 51 51 52 53 52 51 50 49 49 48 49 49 50 50 50 53 52 50 49 47 45 46 47
35 34 33 30 26 24 26 23 13 25 32 38 44 48 48 44 43 46 40 38 42 43 46 49 51 50 50 50 51 52 52 52 51 51 50 51 51 51 51 51 52 50 49 47 46 43 44 47 48
35 35 35 33 28 22 21 19 17 19 19 25 38 41 46 51 50 40 46 43 43 46 47 49 50 51 51 51 53 54 54 53 53 53 53 53 52 52 52 50 48 47 45 43 41 44 49 48 47
28 29 30 32 29 22 21 22 22 21 25 28 26 37 43 43 43 47 45 48 49 48 47 47 47 49 50 51 51 53 53 52 53 53 52 52 50 48 46 46 44 43 43 43 46 51 49 46 43
30 28 29 28 28 26 26 24 19 23 23 27 30 31 34 36 44 48 49 51 52 53 54 54 52 51 50 49 50 52 52 51 50 50 49 47 45 44 43 43 44 44 46 49 52 49 45 42 40
28 28 28 27 28 28 27 22 19 20 17 20 23 27 31 34 33 42 50 50 53 55 56 58 57 56 55 53 51 50 50 50 49 48 47 46 45 45 45 44 45 47 50 51 48 44 42 39 38
27 29 28 30 28 28 26 21 21 16 18 22 24 26 29 31 34 35 43 51 50 49 48 51 54 54 54 53 52 50 50 49 48 48 47 45 46 45 44 45 48 51 47 45 43 40 38 38 37

GFSSGP_500_spd_072.txt.gz
Wind_Speed
46 52 53 56 50 50 48 42 43 42 41 39 37 34 32 29 27 25 20 19 18 18 16 13 13 11 9 7 6 6 5 4 3 2 2 3 4 4 4 5 5 6 7 7 7 8 8 9 10
49 50 54 57 57 53 50 45 44 43 43 40 39 36 33 31 29 27 24 22 19 18 16 14 13 13 10 9 8 7 6 5 4 3 3 4 4 4 5 6 7 7 7 6 7 8 9 10 11
53 49 56 57 60 52 52 48 45 44 43 43 41 39 37 33 31 30 26 23 18 16 14 14 14 13 12 10 9 8 6 5 4 3 4 5 4 4 6 7 8 8 8 8 8 10 11 12 13
56 51 53 60 58 58 52 49 46 45 42 47 43 41 38 36 33 31 29 24 19 15 14 14 14 14 13 12 11 9 8 5 4 4 5 5 5 5 6 7 7 8 8 8 9 10 11 13 13
58 54 51 60 60 58 54 51 49 47 47 39 50 44 39 37 35 33 31 27 20 17 16 16 15 15 14 12 11 10 7 5 4 5 6 5 5 6 7 8 8 8 9 10 10 11 12 13 14
58 56 50 52 58 60 57 54 51 50 48 48 38 46 41 37 36 35 34 31 25 22 20 19 17 16 14 12 11 9 7 6 5 6 6 5 5 6 8 9 9 9 9 11 12 12 13 14 15
53 56 51 53 63 61 59 55 53 52 51 48 48 42 40 39 39 38 36 34 29 26 23 21 20 18 17 14 12 10 8 7 7 8 8 7 6 7 8 9 10 10 10 11 13 14 14 15 16
50 55 55 52 60 61 64 57 53 53 52 49 47 49 42 43 41 38 38 35 31 28 24 24 23 21 19 17 14 12 10 8 9 9 10 10 9 9 9 9 10 11 12 12 13 14 15 16 18
55 58 53 53 58 60 61 63 56 55 53 51 50 48 49 42 39 40 39 36 32 28 26 26 25 24 22 19 16 14 12 11 10 10 10 11 12 12 11 10 10 11 12 13 14 15 16 17 19
59 58 48 50 53 55 49 60 61 56 56 54 52 51 50 50 47 44 42 39 37 33 29 27 28 26 24 21 18 17 14 13 12 12 12 12 13 13 13 13 13 13 13 14 15 17 18 19 20
59 49 46 56 56 52 50 52 63 59 59 56 53 52 51 50 49 48 45 42 41 36 31 30 31 28 25 22 20 18 16 15 14 14 13 13 14 14 14 14 14 14 14 16 18 18 20 21 22
55 53 50 51 60 50 51 48 59 66 61 57 54 53 51 51 49 46 44 43 40 36 34 31 31 28 26 24 22 20 19 17 16 16 16 15 15 15 15 16 16 16 17 18 19 20 22 22 23
55 54 52 51 63 54 47 47 57 65 67 58 55 54 53 51 49 47 45 42 38 36 34 33 32 31 29 27 25 23 21 20 20 19 18 17 17 17 17 18 18 18 19 21 22 23 24 25 26
54 51 54 43 56 56 44 50 49 61 65 64 56 54 54 52 48 46 44 41 39 38 37 36 34 33 31 29 28 26 25 23 22 21 20 19 19 19 21 21 21 21 22 23 25 26 27 27 29
52 51 45 43 42 55 55 44 48 56 64 65 59 55 55 54 51 47 45 43 40 38 38 37 36 35 34 33 31 29 26 25 25 24 23 22 22 23 24 24 24 25 26 26 27 28 29 31 32
54 52 45 43 45 45 45 38 40 53 61 65 65 59 55 54 52 48 46 44 41 39 37 36 37 38 37 36 34 31 28 28 27 26 25 25 26 26 27 28 29 29 28 28 30 31 32 33 36
54 53 47 38 43 49 44 39 41 56 55 60 64 62 58 54 52 49 46 45 43 40 38 37 37 38 38 37 35 33 31 30 30 29 29 29 30 30 30 31 31 31 31 32 32 34 35 36 37
52 49 45 41 40 46 46 44 40 40 49 54 62 63 62 55 50 48 46 45 43 41 41 42 43 40 42 41 38 36 35 35 34 33 33 33 33 33 32 32 33 34 34 35 36 36 38 39 40
53 48 43 43 36 42 51 52 39 37 52 55 51 54 59 58 52 49 48 47 45 42 41 42 42 40 42 41 41 40 40 40 38 37 37 36 36 36 36 35 37 37 38 39 39 40 41 41 42
45 45 40 37 39 36 44 54 49 31 39 59 53 47 48 52 52 53 49 47 45 45 42 39 42 44 46 46 45 44 43 42 41 41 40 40 40 40 40 40 39 40 41 42 42 43 44 44 44
42 43 44 37 34 34 35 47 50 27 40 47 60 48 46 45 47 50 53 50 49 47 46 45 44 44 45 45 45 45 46 46 46 44 43 43 43 43 43 43 43 43 44 43 44 45 46 47 48
41 40 38 35 35 33 32 43 49 42 37 43 45 59 52 48 48 49 49 52 51 49 50 52 52 52 51 49 49 49 49 49 48 47 47 46 46 46 47 46 46 46 46 46 45 46 47 50 52
42 37 32 30 32 32 31 34 44 41 32 34 34 51 65 59 51 48 50 51 53 51 53 55 54 53 54 54 52 50 50 49 50 51 51 51 50 50 49 49 48 48 48 47 47 48 50 54 52
36 34 31 29 28 29 28 32 39 42 42 38 40 39 47 52 64 64 61 53 52 52 54 54 57 58 55 53 54 56 57 58 58 58 59 57 54 53 52 51 51 50 50 49 49 51 52 49 47
35 35 33 31 28 26 23 27 30 30 37 40 36 47 47 48 40 52 54 58 56 56 55 55 57 56 54 53 51 50 52 54 55 56 55 55 54 54 54 53 52 52 52 51 51 50 48 45 42
33 34 32 32 29 26 21 24 23 23 29 33 44 39 44 46 51 46 39 52 51 51 50 50 51 53 51 49 49 51 51 53 54 54 54 54 53 53 54 55 55 54 53 50 47 45 43 43 45
33 34 33 33 33 26 22 23 22 20 25 24 24 39 41 45 52 51 48 42 41 49 53 51 48 47 48 48 48 50 51 51 52 53 54 55 55 55 56 55 53 50 47 45 44 42 44 46 48
30 30 31 31 31 30 28 25 24 22 25 25 26 27 28 35 41 42 41 41 44 47 51 49 47 48 49 51 53 54 54 55 54 53 53 53 53 52 52 50 49 46 44 43 43 44 46 48 49
27 30 30 28 29 30 31 28 25 25 26 25 25 25 27 30 33 35 37 41 43 46 47 51 52 53 53 55 55 55 54 54 53 53 54 53 52 51 50 48 45 44 44 43 45 47 47 47 45
27 28 27 27 28 28 29 29 26 24 24 25 24 26 25 26 29 31 33 35 37 45 53 55 55 55 56 59 58 58 58 57 56 55 54 53 51 50 47 45 44 42 42 44 45 46 46 45 41

GFSSGP_500_spd_075.txt.gz
Wind_Speed
50 48 50 50 53 51 43 43 48 37 41 35 32 35 31 31 27 29 23 22 21 20 18 16 15 12 10 9 8 6 5 5 4 3 3 4 4 4 4 4 4 5 5 5 5 6 7 8 10
51 49 51 53 54 51 47 48 41 41 44 39 34 33 32 32 28 28 25 24 20 19 18 17 14 13 11 9 9 8 7 6 4 3 3 4 4 4 3 4 4 5 5 5 5 7 8 9 10
55 52 52 55 55 55 49 54 46 45 40 44 40 37 39 34 32 31 29 25 22 19 18 18 15 13 12 11 11 10 8 7 5 4 4 4 5 5 4 4 5 5 5 6 6 7 9 10 11
59 57 55 54 55 52 50 54 49 45 46 46 46 43 36 33 33 31 29 27 24 19 18 17 15 14 13 13 13 11 10 8 6 5 5 5 5 5 5 5 6 6 6 7 8 8 9 11 11
60 58 57 52 52 54 62 58 50 50 46 40 47 43 41 37 34 33 31 29 25 22 19 17 15 14 14 15 14 12 11 9 6 6 5 6 6 5 4 5 6 7 7 8 9 10 10 11 12
58 61 58 55 51 59 62 57 48 51 51 48 49 47 44 40 37 37 35 32 27 22 21 18 17 15 14 16 15 13 11 9 7 7 7 6 6 5 5 5 7 7 7 8 9 10 11 12 12
61 59 58 52 54 61 58 55 53 52 51 48 44 52 46 43 42 40 37 34 31 24 21 21 19 17 16 16 15 14 12 10 9 8 8 7 6 5 5 6 7 7 8 8 9 10 11 12 14
58 55 60 57 50 59 54 56 60 52 56 49 45 41 52 48 46 43 39 35 33 28 25 23 22 20 19 18 17 15 13 11 10 10 9 8 6 6 6 8 8 8 9 9 11 12 12 14 15
50 60 52 61 53 60 50 59 61 54 52 51 48 48 37 48 44 40 38 37 35 31 29 27 24 24 23 21 20 18 15 13 12 12 11 10 9 8 8 8 9 9 10 11 12 13 15 17 18
61 54 50 51 58 59 51 58 57 62 52 53 51 48 46 41 46 41 39 37 35 33 32 30 27 27 26 25 22 20 18 15 15 14 13 12 11 11 11 11 10 11 12 13 15 16 18 19 21
59 60 50 49 49 65 55 57 61 64 58 56 54 51 49 47 45 42 41 38 38 36 35 31 29 28 29 27 25 22 20 18 17 16 15 14 13 12 12 11 12 12 13 14 16 17 19 21 22
60 52 59 45 58 55 55 58 66 61 68 57 55 53 52 49 48 44 38 39 38 39 38 35 32 29 30 29 27 25 23 20 20 18 17 16 15 15 13 13 13 14 14 16 17 18 20 22 24
56 55 50 35 47 59 57 58 61 59 62 62 56 54 54 52 49 46 43 43 42 41 39 36 33 31 32 31 29 27 24 23 21 20 19 19 18 17 16 15 15 15 16 18 19 20 22 23 25
64 65 62 49 43 49 58 57 53 60 54 67 60 55 56 54 52 50 49 46 44 42 41 39 37 34 33 33 31 28 26 25 24 22 21 20 20 19 18 19 18 19 20 21 21 23 24 26 27
65 65 56 46 32 47 54 61 52 53 50 55 67 59 56 56 52 50 47 48 45 44 43 40 37 34 34 34 32 30 29 29 27 25 24 23 22 20 21 22 22 22 24 24 25 25 27 29 30
58 65 46 60 48 41 43 54 44 41 47 49 64 66 60 57 56 51 48 46 45 43 42 39 35 34 34 35 34 33 32 32 30 29 28 27 24 23 24 25 25 26 27 27 28 28 29 31 33
53 56 54 47 45 49 40 52 56 45 48 47 49 65 67 59 55 55 51 48 45 43 42 40 36 34 35 37 36 36 35 34 33 32 31 29 27 27 28 29 29 29 29 29 30 31 32 33 36
48 54 50 47 42 51 39 44 54 44 43 48 49 56 67 68 60 55 53 50 47 45 43 41 38 37 37 38 39 39 38 37 36 34 34 33 32 32 32 32 33 33 32 33 33 34 35 37 38
45 48 43 45 43 44 38 38 42 43 40 42 51 52 60 66 66 57 55 52 49 47 45 44 41 39 39 40 39 39 39 38 38 38 37 37 36 36 36 36 36 36 36 36 36 38 39 40 40
43 49 46 43 41 35 38 39 42 40 36 37 48 51 50 58 61 62 57 51 48 46 45 44 42 41 41 42 42 42 40 37 40 40 41 40 40 40 40 39 39 40 40 40 41 41 42 43 43
38 49 36 39 41 40 34 38 39 43 43 35 37 51 50 50 54 57 58 52 50 46 45 45 45 42 42 42 41 41 41 43 44 43 42 41 42 43 43 43 43 43 44 44 44 45 46 46 45
33 40 44 40 34 37 37 33 40 43 47 33 35 39 50 52 52 54 54 54 56 55 47 44 44 45 44 42 41 42 42 45 44 44 45 44 45 46 46 47 46 47 48 48 48 48 48 48 47
34 37 43 43 32 33 35 34 31 36 49 44 28 38 47 51 48 51 47 46 48 49 57 50 48 48 46 49 49 48 49 49 49 48 48 47 47 47 48 50 51 52 52 51 51 50 50 50 50
35 36 35 34 36 36 34 32 32 28 34 42 51 40 36 46 62 52 46 49 49 48 49 58 54 51 51 52 53 54 53 54 54 54 53 52 51 52 54 55 55 55 53 53 53 53 51 51 51
30 32 29 30 31 31 32 35 32 36 28 34 42 42 41 39 44 63 61 51 47 48 50 51 49 50 52 55 57 58 56 55 55 54 55 56 58 60 60 58 56 54 53 55 54 53 52 52 51
23 29 31 29 30 29 31 31 29 28 25 26 32 36 42 42 41 42 56 61 58 54 54 53 53 54 53 54 56 57 59 59 56 55 55 56 56 55 54 54 55 55 54 54 55 54 51 48 46
26 34 31 33 34 30 26 24 23 17 19 23 30 35 45 47 47 46 42 45 47 44 48 57 53 55 55 58 57 56 55 54 54 53 53 52 53 54 54 53 54 55 54 52 50 48 47 45 43
29 30 33 33 32 29 28 23 23 17 19 21 24 25 24 28 40 49 50 48 47 49 46 41 51 57 54 53 54 55 54 54 53 52 52 52 52 53 55 55 54 52 51 49 48 46 45 44 43
27 28 31 32 32 27 24 22 26 22 22 23 23 24 25 25 26 30 38 44 45 47 46 45 50 45 46 50 56 58 55 54 53 52 53 54 55 55 55 54 53 52 50 48 46 44 44 43 44
25 26 28 29 27 29 28 29 29 27 25 24 26 25 23 22 23 26 30 33 38 46 47 47 47 48 50 48 48 50 57 56 55 55 55 56 55 56 55 55 53 51 49 47 45 43 44 45 46

GFSSGP_500_spd_078.txt.gz
Wind_Speed
56 55 53 51 50 54 45 41 43 41 48 36 46 40 41 30 32 31 26 23 21 19 17 14 13 12 11 9 8 7 6 5 4 4 3 2 3 3 3 3 3 4 4 5 5 6 6 7 8
58 56 55 54 53 53 48 39 49 30 40 41 42 48 42 33 31 31 28 26 22 21 19 17 15 13 12 10 9 8 7 6 6 5 4 3 3 3 3 3 4 4 4 4 5 5 7 6 7
60 59 57 57 55 52 44 41 49 38 32 32 41 39 39 38 34 29 30 27 25 21 18 17 15 14 13 12 10 9 8 8 7 5 5 4 3 3 3 3 3 3 3 4 5 5 6 7 7
61 62 61 59 56 52 44 45 53 52 43 36 40 39 36 26 37 31 32 28 26 23 19 16 16 15 13 13 12 11 10 9 8 7 5 4 3 3 4 3 2 2 3 4 5 6 6 7 9
62 63 63 58 52 52 46 58 53 51 42 44 38 41 39 32 27 32 31 29 28 25 21 18 16 16 15 14 14 13 12 11 10 8 6 5 4 4 5 3 2 2 3 4 5 6 7 9 10
64 64 65 59 52 51 52 55 52 49 49 48 42 42 42 39 35 33 33 32 30 26 23 20 17 16 15 15 15 15 14 12 11 9 8 6 4 5 5 3 2 2 4 4 6 7 9 10 11
63 63 59 56 53 51 58 57 53 52 52 53 47 42 45 49 41 41 38 36 30 27 23 22 19 17 16 15 16 16 15 13 12 10 9 7 6 5 5 4 3 3 4 5 6 8 9 10 12
60 59 59 58 57 49 59 53 49 50 53 55 49 46 39 48 41 37 40 39 32 30 25 22 20 19 17 17 17 17 16 15 13 11 10 8 7 6 6 5 5 4 5 6 7 8 9 11 12
60 61 61 57 59 52 54 52 51 52 51 53 51 49 41 40 45 40 36 40 36 32 29 25 22 22 21 19 18 18 18 16 13 12 11 10 9 7 6 6 7 6 6 7 8 9 10 12 13
54 61 58 52 59 48 48 54 51 52 50 57 51 53 43 42 49 47 43 40 33 33 32 29 26 24 24 23 21 20 19 17 15 14 12 11 11 10 9 9 8 8 8 9 10 11 12 14 15
64 58 53 52 56 52 49 51 52 53 56 52 56 54 50 43 37 50 43 45 35 36 35 32 27 25 26 27 24 23 22 20 18 16 14 13 13 11 11 11 10 11 11 11 12 13 14 15 16
60 64 55 55 50 51 57 52 52 55 51 55 57 55 54 49 47 43 50 38 40 42 37 33 29 27 26 28 27 25 25 24 21 19 17 16 15 14 13 13 12 12 12 13 14 15 16 18 18
59 50 55 57 41 60 48 51 53 52 51 53 54 58 52 54 47 44 41 44 40 42 38 34 31 27 27 27 29 28 27 27 24 22 21 19 17 16 15 14 14 14 14 15 17 17 17 19 20
45 63 51 50 59 45 54 55 56 54 54 49 59 57 55 51 55 46 45 47 40 36 40 31 30 30 30 29 30 30 29 29 27 25 23 21 20 18 18 17 17 16 17 18 19 19 20 21 22
55 67 57 55 50 59 34 41 46 57 56 52 54 57 61 55 51 53 48 44 42 41 37 30 32 34 31 30 30 31 30 30 29 28 26 23 22 21 21 21 21 20 20 21 21 22 23 23 24
59 53 51 46 47 52 47 32 50 54 57 55 52 59 59 65 56 50 51 47 40 37 36 36 37 36 33 31 30 32 32 32 32 30 29 26 26 25 25 24 23 23 24 24 24 25 26 26 27
53 56 62 38 55 61 40 31 46 52 55 53 49 54 56 62 63 54 51 47 45 43 41 40 40 38 35 32 32 32 33 33 34 33 31 30 29 29 28 27 27 27 27 27 28 28 29 29 30
52 49 53 46 41 44 36 24 38 49 54 51 48 50 64 54 63 63 51 49 46 43 43 41 40 39 36 34 33 32 34 35 36 35 34 32 32 31 30 31 31 31 31 31 31 31 32 33 34
41 49 47 48 56 53 32 23 25 39 45 50 45 49 58 59 56 63 58 51 50 49 45 43 41 37 37 37 35 34 34 36 37 37 36 35 33 34 34 34 35 35 34 34 35 35 36 36 37
36 40 42 46 52 51 52 38 31 32 42 48 42 36 48 61 45 52 62 60 53 50 48 44 42 42 39 38 38 37 34 36 38 39 39 34 36 36 37 38 37 37 37 37 38 39 39 40 41
31 32 41 33 45 45 27 39 36 31 31 42 45 43 45 52 55 52 50 61 64 53 48 47 44 43 42 40 40 39 39 38 38 37 35 39 38 39 40 39 40 40 40 41 41 41 42 43 44
29 27 35 39 29 40 31 31 31 31 30 30 41 39 40 44 50 52 46 50 56 65 55 44 45 45 42 43 40 41 41 40 39 39 39 40 44 43 44 43 43 44 44 44 43 45 47 48 47
23 28 29 30 31 34 34 34 30 34 33 35 37 41 35 36 46 49 52 45 48 48 52 58 53 44 43 44 43 44 44 43 41 42 44 44 45 45 46 47 47 47 47 48 49 51 51 51 51
25 22 30 37 30 29 37 36 29 34 31 32 32 41 38 34 35 41 48 49 43 46 46 45 51 56 61 50 45 45 47 49 50 49 50 49 49 50 50 52 52 51 52 53 55 55 52 51 50
29 21 25 31 38 33 31 34 29 34 34 28 26 35 44 43 32 33 37 45 45 45 45 44 43 46 48 59 57 53 52 52 52 53 54 55 55 54 54 55 55 55 55 56 55 52 51 52 52
25 30 26 26 31 33 35 34 36 33 30 32 27 27 34 37 51 37 36 41 46 45 42 45 44 45 47 45 51 57 59 54 53 55 54 56 59 59 58 58 58 58 56 53 52 52 52 51 51
23 26 26 28 28 28 32 29 32 28 27 29 28 27 27 32 40 43 38 44 36 39 53 55 53 53 52 50 48 49 49 53 53 57 56 57 56 56 56 58 57 55 54 53 52 51 51 49 48
18 24 26 28 23 24 25 20 21 18 18 18 18 21 24 29 29 32 42 46 42 39 36 38 48 48 47 45 51 54 55 57 54 56 56 55 55 53 54 54 54 53 51 51 51 51 49 47 46
21 23 26 28 29 20 19 24 21 16 16 14 14 15 17 19 20 20 24 32 42 41 43 42 42 44 46 45 43 48 54 53 57 57 57 56 55 54 53 53 53 52 52 51 49 48 47 45 43
14 24 23 27 25 25 23 20 24 18 17 17 18 19 20 20 20 20 21 22 24 28 33 40 44 46 48 49 49 50 50 50 46 47 49 53 60 56 55 55 54 53 53 52 51 50 46 44 44

GFSSGP_500_spd_081.txt.gz
Wind_Speed
60 59 54 54 57 53 49 49 49 50 36 48 45 43 36 32 32 29 26 27 25 22 20 18 16 13 11 9 8 7 6 5 4 4 4 4 4 3 3 4 3 3 3 3 3 3 3 4 5
61 60 57 56 56 56 48 44 48 47 49 47 44 45 39 37 31 27 30 28 26 23 20 19 15 14 12 11 9 8 7 6 5 5 5 4 4 3 3 4 3 2 2 1 2 2 3 5 5
63 62 60 58 57 54 48 43 42 46 48 46 45 47 46 39 39 33 32 31 28 24 22 19 16 15 13 13 11 9 9 8 7 6 6 5 4 4 3 4 3 2 1 1 2 2 3 4 5
65 64 63 63 59 53 44 48 48 47 35 47 45 49 45 45 39 40 34 35 29 26 23 19 17 16 15 14 13 11 10 9 9 8 7 6 5 4 4 4 3 2 1 1 1 2 3 5 7
66 61 63 63 57 54 50 50 49 49 49 33 52 47 44 37 42 39 39 35 30 27 25 20 16 16 16 14 14 13 12 12 11 10 9 8 6 5 4 4 4 4 3 2 2 2 3 5 6
65 61 62 60 56 53 52 53 44 48 43 42 39 43 49 51 49 47 44 39 34 29 26 23 19 17 16 15 14 14 14 13 12 11 11 9 7 6 5 5 5 5 4 3 2 2 4 5 6
63 63 55 57 56 55 52 56 54 49 44 45 48 41 41 50 37 40 42 39 35 30 28 25 22 18 17 15 16 15 15 16 15 13 12 10 9 7 7 6 5 4 3 2 2 3 4 5 6
60 60 58 61 59 56 54 56 56 53 50 44 47 48 42 48 27 36 36 34 35 32 30 28 25 22 19 17 17 17 17 17 17 16 13 12 10 9 8 6 5 4 4 3 3 3 4 5 7
56 57 62 60 60 59 56 57 57 54 50 47 44 43 46 40 37 34 34 33 35 35 32 30 27 24 21 18 17 17 18 18 17 16 15 14 12 10 8 7 6 6 5 4 4 4 5 7 8
65 53 59 56 57 60 57 57 57 55 52 48 45 48 44 45 44 38 33 40 38 37 34 32 29 26 23 20 18 18 19 19 18 18 16 14 13 10 9 8 7 7 7 7 6 6 7 8 9
69 51 58 58 54 60 60 56 57 54 51 45 44 46 43 47 46 39 39 36 37 40 38 34 31 27 25 22 21 21 21 21 20 20 18 16 14 13 11 10 9 9 9 8 8 9 9 10 11
65 55 53 58 58 56 62 58 51 53 50 47 48 46 45 45 52 43 44 47 39 35 33 34 32 29 26 23 23 23 22 23 22 23 21 19 17 15 13 13 11 11 11 10 11 12 12 12 12
66 65 55 55 55 56 58 55 46 55 51 48 47 47 45 46 48 50 40 21 41 38 42 38 35 31 26 24 23 24 24 24 25 26 24 23 21 18 16 15 14 14 14 14 14 14 15 16 16
64 66 57 49 47 54 58 62 48 45 54 52 49 48 47 44 49 44 49 39 35 40 43 42 40 36 30 27 23 24 26 26 27 27 26 26 23 20 19 17 17 17 17 17 17 17 17 18 18
66 61 69 52 60 41 47 60 57 47 52 53 50 49 47 47 46 48 48 53 44 42 46 44 39 36 37 30 26 26 28 29 29 29 29 28 26 23 22 21 20 20 20 20 20 20 20 20 20
65 66 52 63 43 56 47 42 43 54 60 55 52 49 45 46 45 51 47 54 48 47 28 36 39 36 27 30 26 25 29 30 30 32 30 29 28 26 26 24 24 24 23 23 22 22 23 23 23
58 56 54 55 52 62 45 44 35 39 44 47 54 53 49 47 47 48 51 51 57 51 38 33 34 35 31 27 25 29 29 30 32 33 32 31 30 29 28 28 27 26 25 25 25 25 25 26 26
52 46 48 48 60 65 49 48 41 41 33 42 57 57 52 48 45 48 52 53 54 56 49 45 37 31 33 31 32 30 30 30 32 33 33 33 32 30 30 30 30 28 28 29 28 28 28 28 29
40 43 38 50 48 46 42 51 56 27 26 34 49 57 58 50 47 45 51 54 50 58 44 40 42 34 32 34 32 33 31 31 32 34 34 32 31 31 32 31 31 32 31 32 32 31 31 31 32
34 37 43 37 48 31 42 47 53 30 30 34 40 50 49 47 45 41 46 53 49 53 52 43 36 38 38 35 34 34 32 32 35 34 31 33 33 34 34 34 34 34 34 35 36 35 35 35 36
40 36 42 35 42 33 35 47 46 30 29 28 37 44 46 44 43 44 44 51 48 46 55 47 42 40 35 33 39 31 34 35 35 32 31 33 33 33 36 38 37 37 38 39 39 39 39 40 38
31 30 31 38 33 25 35 41 47 37 25 24 34 41 43 46 42 36 35 50 47 43 48 57 50 43 41 41 42 42 36 35 35 36 38 36 35 36 35 41 44 43 44 43 43 42 43 43 44
26 26 28 26 31 29 30 35 19 26 33 27 26 31 38 45 47 46 43 42 49 52 50 47 51 58 47 44 41 41 40 40 40 42 41 41 40 41 42 43 44 46 46 46 46 46 46 48 50
28 24 21 31 29 30 29 36 33 24 31 34 32 29 31 33 45 37 34 37 49 52 51 47 46 47 55 59 46 44 45 45 46 46 47 46 46 45 46 45 46 48 50 50 51 50 53 53 52
25 24 22 26 33 32 24 25 31 28 26 27 28 30 30 29 31 34 33 37 39 44 48 45 42 43 44 45 53 54 57 52 50 49 50 50 50 50 49 51 52 53 54 54 54 54 53 53 54
24 28 32 30 25 26 24 20 25 25 31 32 29 25 26 28 31 32 37 34 36 33 40 51 47 48 47 49 48 49 52 52 55 59 61 54 53 52 52 53 55 57 59 61 61 59 58 56 53
27 21 24 25 26 29 27 25 25 23 28 28 29 28 31 27 24 26 31 42 37 34 34 38 46 46 45 47 45 45 44 43 47 48 47 51 55 52 54 52 56 56 56 55 55 54 54 53 52
24 27 24 25 25 25 28 31 30 26 27 27 32 30 29 32 33 32 29 33 40 42 43 37 38 43 45 48 50 48 47 47 48 49 49 48 52 54 56 56 56 56 55 55 54 54 54 51 48
20 23 25 22 22 18 20 23 22 16 20 23 24 26 27 27 28 30 31 31 29 33 41 41 40 40 38 39 44 49 48 44 44 41 48 55 54 54 57 60 58 56 55 54 54 53 52 49 48
15 17 21 23 22 23 21 22 21 21 20 20 20 19 20 21 21 21 21 21 21 22 29 36 41 40 43 43 45 45 45 46 49 46 48 48 53 52 51 48 51 53 54 54 55 54 54 53 51

GFSSGP_500_spd_084.txt.gz
Wind_Speed
67 64 61 57 58 57 57 58 54 45 56 56 49 48 39 38 36 33 28 28 25 23 22 19 16 14 12 10 8 8 8 8 7 6 5 4 3 4 4 5 5 5 4 4 3 2 2 2 1
66 68 63 61 60 70 53 50 51 54 44 51 54 50 44 41 34 30 30 29 27 25 22 22 19 16 15 12 10 10 10 9 8 6 5 5 4 5 5 5 6 5 5 4 3 2 2 2 2
66 68 67 66 65 66 49 47 50 44 55 45 57 53 47 46 37 33 34 32 29 27 25 22 19 17 15 14 12 12 11 10 9 7 6 6 5 5 6 6 6 5 4 4 3 2 2 1 2
63 67 70 69 67 58 55 49 54 45 47 45 32 51 46 43 38 36 34 35 34 30 28 26 22 19 17 16 15 13 12 11 10 9 8 7 7 6 7 7 7 7 6 5 4 3 2 1 2
62 66 70 69 66 61 54 56 52 54 51 51 49 48 43 44 44 40 36 35 37 34 30 26 24 22 19 18 16 15 14 13 12 11 10 9 9 8 9 8 8 8 7 6 5 4 2 1 2
68 64 70 69 62 60 56 55 56 53 49 55 49 44 43 43 41 43 41 42 40 37 31 26 24 22 21 20 18 17 16 15 14 14 13 11 11 10 10 9 9 9 8 7 5 3 2 1 2
62 66 67 66 63 60 55 58 54 52 52 48 43 55 50 44 47 45 45 48 44 41 34 28 25 23 21 21 19 18 17 16 15 16 15 14 13 12 11 10 9 9 8 7 5 4 2 2 2
56 69 65 63 64 61 55 59 60 52 50 50 47 46 48 33 40 44 49 49 45 41 36 32 29 25 23 22 20 18 18 17 17 17 17 16 14 13 12 11 10 9 8 7 5 4 4 3 3
50 74 62 60 63 60 57 58 59 57 53 46 47 44 52 47 51 46 42 58 53 43 39 36 32 30 27 24 21 20 19 18 18 18 18 18 16 15 14 12 11 10 9 8 7 6 5 5 5
53 73 57 61 58 58 58 59 59 57 56 52 45 48 53 42 30 33 38 37 41 42 39 36 33 31 29 25 23 21 19 18 19 19 19 19 18 16 15 13 12 11 11 10 9 9 8 8 8
52 71 61 61 57 58 56 60 59 57 57 54 50 47 46 37 40 41 42 30 37 43 46 41 37 35 31 27 24 22 20 19 20 20 20 19 19 17 15 15 13 12 11 11 12 11 11 10 10
69 64 65 59 59 54 59 59 59 57 54 53 51 49 46 45 45 43 46 43 45 44 47 42 38 34 32 29 26 24 23 21 20 21 22 21 20 18 17 15 15 13 13 13 14 13 13 12 13
64 62 68 50 62 53 60 60 60 58 54 52 50 46 42 44 45 44 47 42 50 43 38 44 34 33 32 30 27 25 26 23 21 23 24 24 23 21 19 18 17 15 16 16 16 16 15 15 15
57 61 68 44 61 56 54 58 61 58 56 53 51 49 46 43 40 39 41 41 50 29 43 41 39 37 35 32 29 28 28 26 25 25 26 25 25 24 22 21 20 19 18 18 18 18 18 18 18
69 35 67 53 60 54 49 52 61 60 57 55 51 52 48 45 44 42 45 47 51 36 31 41 39 39 40 39 35 33 30 27 27 27 27 27 27 26 25 24 23 21 20 20 20 19 20 20 20
60 58 69 62 38 58 62 53 58 61 57 54 52 51 48 45 45 48 49 46 43 40 40 34 36 37 38 39 39 38 34 28 27 28 29 29 30 29 28 27 27 25 24 24 23 23 22 22 22
59 58 62 61 46 50 41 56 51 62 56 54 59 54 50 46 45 44 47 45 45 46 40 36 35 35 42 41 39 37 34 27 26 29 33 31 30 31 29 30 30 28 27 26 26 25 25 24 24
62 58 51 57 49 59 29 46 62 58 60 48 49 50 48 47 45 43 42 43 40 47 45 35 32 28 31 36 28 26 31 28 28 30 32 32 31 31 31 32 31 30 29 29 29 29 27 27 27
47 56 49 48 54 51 29 35 35 52 59 60 58 52 48 45 42 43 41 39 38 39 42 41 40 38 39 29 29 30 29 29 29 31 32 32 31 31 32 32 33 33 33 32 32 32 31 32 33
36 44 50 49 52 51 39 34 47 38 39 43 42 48 51 50 53 53 48 43 41 39 41 45 44 35 34 40 41 37 28 28 30 30 31 29 29 29 32 33 35 35 36 35 36 36 35 35 37
34 40 45 52 33 34 45 40 39 42 42 30 36 37 37 36 52 55 50 44 42 42 39 44 45 47 43 36 30 35 32 28 35 34 35 30 28 27 32 36 35 36 39 40 39 39 38 39 38
31 30 40 37 26 26 40 36 42 45 43 38 29 33 39 32 33 43 50 47 41 38 37 37 42 42 40 41 40 35 33 34 30 34 32 31 30 34 33 30 34 39 40 41 45 44 43 45 43
22 20 25 30 27 33 38 24 35 38 43 40 34 35 44 42 41 40 41 37 40 37 32 34 43 46 46 43 45 43 39 43 46 39 34 38 39 37 40 40 41 43 43 42 43 44 47 49 48
19 22 23 22 22 27 30 18 21 31 33 37 32 25 26 34 34 34 32 40 40 38 38 37 39 46 48 46 43 42 49 44 36 36 38 42 42 44 45 44 45 46 47 47 46 47 50 51 52
23 22 21 22 24 23 24 21 19 26 41 31 29 31 25 25 30 35 39 37 40 36 34 34 41 45 47 47 48 47 47 51 50 49 45 44 47 47 46 50 49 53 53 52 53 53 53 53 55
25 21 19 25 30 20 23 23 24 22 27 23 31 35 32 31 32 34 37 36 39 35 30 30 34 39 48 51 51 50 46 46 44 45 50 53 56 54 53 53 56 59 58 59 60 61 62 60 57
21 23 21 22 24 25 25 24 21 23 31 28 26 29 29 26 28 29 28 27 30 35 36 34 34 37 38 45 50 52 48 48 51 50 49 47 49 47 43 46 47 46 51 46 52 53 54 53 52
19 22 27 22 26 20 22 26 23 20 25 25 25 32 32 30 29 30 31 32 34 36 35 40 42 41 41 39 45 49 51 49 48 48 48 48 45 46 47 49 49 49 50 54 54 52 54 53 53
25 26 24 22 21 21 23 25 24 26 28 28 28 29 31 33 34 35 36 35 35 35 35 36 41 45 46 44 37 40 49 46 54 54 48 55 53 47 47 50 52 47 47 51 54 55 54 54 54
20 26 27 26 23 22 22 23 23 26 29 31 31 29 28 31 34 36 35 36 37 37 38 39 37 40 44 45 44 43 44 44 43 46 49 49 47 49 51 48 49 50 52 57 56 52 54 54 54

GFSSGP_500_spd_087.txt.gz
Wind_Speed
62 66 67 67 69 74 65 59 60 49 63 56 54 52 48 44 40 37 32 28 27 25 22 19 17 16 14 12 10 9 8 8 8 7 7 6 5 4 4 4 6 7 8 7 5 4 3 3 3
61 65 67 69 73 76 68 56 66 61 51 58 57 54 50 46 42 37 32 31 28 26 24 21 20 18 16 13 11 11 10 10 9 8 7 7 6 5 5 6 6 8 8 7 6 4 3 3 2
61 66 66 73 75 74 66 62 51 60 58 54 59 52 53 50 45 40 37 34 31 28 26 24 22 22 19 16 14 13 11 11 11 9 8 7 6 6 7 7 7 8 8 8 6 4 3 3 2
61 64 65 72 75 71 68 61 55 58 60 56 62 62 58 51 45 40 35 35 33 31 29 27 24 23 22 19 17 15 13 14 13 11 9 8 8 7 8 8 9 9 9 8 6 5 4 3 1
61 62 68 69 73 68 70 60 61 55 57 52 55 47 56 51 48 42 38 36 35 34 32 30 28 25 23 21 19 17 16 15 15 13 11 10 9 10 10 9 10 10 10 9 8 6 5 3 2
65 61 66 72 69 69 70 62 59 57 50 50 51 43 52 45 48 46 43 39 38 38 36 33 30 28 25 22 21 19 18 17 16 15 13 12 12 12 12 11 11 10 10 9 8 7 6 4 3
66 59 68 62 68 70 65 62 59 62 54 46 50 50 57 47 45 47 48 43 41 41 39 36 32 29 27 25 22 21 19 18 17 16 16 15 14 13 13 13 12 11 11 10 9 8 6 6 4
68 64 69 61 69 68 61 59 58 61 55 55 46 44 38 45 47 52 50 44 41 41 40 36 32 29 27 26 24 23 21 20 19 18 18 17 16 15 15 14 13 12 11 11 10 8 7 7 6
68 67 55 57 70 66 61 58 61 59 59 50 48 48 43 41 36 57 56 50 46 42 41 39 36 32 29 27 25 24 23 21 21 20 20 19 18 17 16 15 14 13 12 12 11 10 10 9 9
70 67 68 60 67 64 62 59 60 58 55 55 51 46 50 55 37 46 46 44 44 45 50 46 40 37 33 30 27 25 23 22 21 21 21 20 19 18 18 16 15 14 13 13 12 12 11 11 10
69 69 52 45 65 63 64 60 59 59 58 54 48 44 48 46 47 36 41 50 49 53 57 50 43 39 37 32 28 27 24 23 22 22 21 21 20 19 19 18 17 15 14 14 14 14 13 12 11
70 74 60 53 66 61 66 60 60 59 57 56 56 48 45 46 48 48 45 40 52 59 59 56 48 42 40 34 31 28 25 23 22 21 21 21 21 20 20 20 18 16 15 15 15 15 15 14 14
74 70 53 57 62 62 60 60 59 61 58 57 54 53 51 47 44 48 43 40 45 46 40 39 44 46 41 35 30 28 26 24 23 22 23 23 23 22 21 21 20 18 17 16 16 16 16 16 16
76 78 43 59 56 58 59 59 59 58 59 57 54 51 50 50 43 44 44 31 47 48 38 43 40 44 45 40 35 29 27 26 24 24 25 25 25 25 23 23 22 21 20 19 19 19 19 18 18
67 85 34 51 54 58 62 60 58 59 58 59 55 51 51 49 43 42 38 42 42 47 42 37 38 39 37 40 39 37 32 29 27 27 27 27 27 27 26 25 24 24 23 23 23 22 21 21 21
62 67 40 49 66 53 60 53 62 58 56 57 55 51 48 43 46 43 42 40 41 43 44 31 35 40 38 41 38 39 37 35 33 31 29 29 29 28 28 27 28 28 27 26 26 25 24 24 25
54 60 51 41 61 51 57 52 54 61 57 55 54 50 48 46 47 43 42 37 37 33 38 32 19 39 35 39 40 42 40 40 37 32 33 32 32 31 29 30 31 30 30 29 29 28 28 29 29
52 59 52 30 65 41 48 59 55 59 62 59 55 52 49 47 45 42 40 37 36 35 38 34 33 32 45 34 28 36 40 38 38 33 32 34 33 32 31 33 33 32 32 32 32 32 31 31 32
48 60 48 27 54 52 39 63 55 49 62 58 59 54 50 50 47 46 41 38 40 38 33 32 33 30 19 42 24 34 44 36 33 36 35 36 34 32 32 35 36 35 35 34 34 33 33 34 36
30 49 33 42 46 40 45 33 58 51 46 55 59 54 52 49 49 46 43 42 39 38 36 35 32 35 31 28 25 26 29 27 26 34 37 32 31 35 34 35 36 37 36 36 36 36 36 38 39
23 42 48 39 36 43 37 35 25 55 61 50 55 56 54 48 44 43 43 44 40 39 41 39 35 35 40 34 33 28 28 29 27 27 28 31 25 25 26 31 36 38 40 38 38 37 37 39 40
24 24 49 38 33 29 32 42 28 24 39 46 48 51 52 48 44 44 43 44 46 44 43 37 33 33 33 37 40 35 29 27 23 30 32 31 34 37 38 30 29 25 34 37 38 37 37 39 41
23 21 33 36 36 32 21 21 32 29 30 35 43 54 48 45 41 40 36 34 37 47 47 42 37 36 36 36 34 38 31 33 35 32 34 36 33 31 32 32 40 41 36 33 35 37 41 42 44
20 16 23 26 24 33 23 19 24 31 32 30 35 35 33 36 40 39 40 35 36 37 40 41 34 35 33 34 35 36 35 33 34 34 38 37 32 34 36 41 39 42 42 43 43 46 47 49 51
14 16 26 25 20 23 24 21 21 26 33 35 35 35 34 33 36 40 38 35 34 35 36 37 37 36 39 38 36 40 40 41 39 38 39 38 39 39 44 45 48 46 55 47 48 48 51 54 56
18 16 19 17 17 15 14 26 13 14 21 28 28 29 29 28 27 34 37 32 34 35 34 34 33 34 33 35 37 39 43 44 45 46 44 42 40 44 47 46 49 53 52 53 54 50 48 51 53
14 13 13 14 16 14 15 16 15 11 13 27 30 30 27 28 27 25 29 33 35 35 35 36 37 34 34 32 32 36 40 42 42 48 49 49 48 48 47 49 48 50 47 46 44 46 49 49 47
21 19 18 16 22 23 20 16 18 18 22 24 25 23 29 31 35 34 33 36 36 38 37 36 38 40 40 39 38 40 40 41 41 44 49 52 51 50 51 49 45 45 49 51 51 50 51 53 54
16 16 17 14 17 18 20 17 23 23 27 29 30 31 32 30 32 33 32 30 33 35 36 38 39 40 40 42 42 44 46 47 46 48 46 50 51 48 48 50 47 46 47 52 51 50 51 50 52
14 17 20 20 18 16 20 19 22 28 26 27 30 33 35 36 35 36 35 36 38 39 40 41 41 42 44 46 44 41 42 48 47 47 44 43 47 49 53 55 54 55 56 52 52 51 52 54 56

GFSSGP_500_spd_090.txt.gz
Wind_Speed
61 64 63 67 70 77 77 67 63 64 56 57 59 57 53 46 44 43 36 35 28 28 25 22 20 18 17 14 12 12 11 9 7 7 7 7 6 5 5 5 5 6 6 8 7 6 4 3 2
53 63 64 67 74 78 78 72 62 67 52 63 60 58 55 49 46 43 38 33 31 28 26 23 21 20 18 16 14 14 12 11 9 8 8 8 7 5 5 6 6 6 7 8 8 6 5 3 2
52 63 65 69 75 76 75 71 68 61 67 54 57 60 55 54 48 44 40 38 34 30 28 26 23 21 19 18 17 16 15 13 12 10 9 9 8 6 6 7 7 8 8 8 8 6 5 3 3
51 64 69 69 74 69 68 71 67 68 64 57 62 62 59 55 52 46 42 39 38 35 32 29 26 24 21 20 19 17 17 15 14 13 11 10 9 8 7 7 8 8 9 8 8 7 6 5 3
49 64 71 72 71 65 63 68 67 68 61 68 61 57 61 56 52 48 45 42 39 36 34 32 29 27 25 23 21 20 19 17 16 15 14 12 11 10 9 9 9 9 10 9 9 8 7 6 5
52 63 73 72 71 63 64 68 66 67 62 60 62 44 57 52 53 50 48 45 42 40 38 36 33 30 28 25 23 22 21 20 19 17 16 14 13 12 11 10 10 10 10 10 9 8 7 6 5
56 61 72 67 66 59 62 64 66 64 64 62 54 53 62 48 53 49 52 50 45 42 41 39 36 33 31 28 26 25 23 22 19 18 18 16 15 14 13 12 12 11 11 10 9 8 7 8 7
58 59 68 68 64 65 54 58 61 64 64 58 58 49 47 45 42 48 53 50 49 45 44 41 39 36 33 31 30 27 26 23 21 20 20 19 17 16 15 15 14 12 12 11 10 9 9 9 9
62 64 66 69 61 59 54 55 59 60 61 57 61 48 55 64 57 58 51 54 50 47 46 45 41 37 34 34 32 29 27 26 24 23 22 20 19 17 16 16 15 14 12 12 11 11 11 11 10
71 68 63 66 57 46 64 49 57 57 60 60 61 46 53 48 66 41 64 61 57 49 45 45 43 39 36 35 33 32 30 28 25 23 23 21 20 19 17 17 16 15 14 13 13 12 12 12 12
68 69 58 61 55 61 56 56 49 57 58 61 59 57 56 55 47 29 34 63 61 53 49 46 47 46 41 37 35 33 30 28 26 25 24 23 22 19 19 18 17 17 16 15 14 14 14 14 14
53 62 58 59 45 60 57 55 53 52 54 62 54 58 58 56 39 52 37 44 55 50 46 45 46 47 47 44 37 34 30 29 28 26 24 23 22 21 20 20 18 18 17 16 16 15 15 15 14
48 57 56 59 67 37 59 58 44 59 51 56 54 60 53 50 41 36 44 34 28 48 51 51 45 57 51 49 44 36 31 30 29 27 24 25 23 22 22 21 20 19 19 18 18 17 17 16 16
42 54 55 61 61 38 43 60 56 61 55 51 52 55 51 44 40 34 33 41 24 33 54 53 45 50 59 51 45 44 37 33 30 28 27 27 24 23 24 23 23 21 21 21 21 21 20 20 19
45 50 56 66 68 33 49 58 60 60 57 52 52 49 51 54 50 40 37 42 35 19 37 51 43 36 45 44 46 42 44 37 32 32 30 28 26 25 26 25 25 25 24 24 24 24 24 23 23
44 44 57 70 73 21 46 57 61 61 56 56 53 49 46 48 46 46 45 43 29 21 23 47 48 38 34 36 39 44 41 39 38 35 32 31 30 29 29 31 29 29 28 27 27 28 28 28 27
41 43 55 66 49 13 59 58 57 62 60 57 55 52 46 48 49 52 47 41 30 25 36 34 46 33 44 41 42 36 39 39 38 38 35 36 36 34 33 32 31 32 31 31 31 31 32 31 31
39 40 49 68 38 32 44 53 54 57 62 57 56 54 48 40 39 47 39 38 32 28 31 30 44 30 24 40 39 36 36 33 37 33 34 38 40 37 34 34 34 34 34 34 35 35 35 35 34
36 40 49 54 18 41 34 52 53 55 60 57 56 53 51 47 42 39 35 36 32 28 27 24 26 40 19 27 35 38 36 36 42 39 44 42 39 35 38 37 37 35 38 38 39 39 39 39 38
29 41 45 44 27 13 41 43 56 54 59 60 57 51 49 44 43 41 37 35 30 28 25 28 24 29 25 22 20 41 34 32 37 35 39 41 41 41 42 46 38 39 39 43 43 42 39 39 39
28 37 41 30 30 14 39 28 54 50 55 58 58 54 46 41 41 41 39 36 32 34 26 27 26 25 26 28 18 20 34 27 22 25 41 40 36 32 32 32 35 37 41 43 43 41 39 39 40
24 27 35 42 20 18 30 43 29 49 49 54 52 56 51 47 44 41 39 37 40 36 31 27 29 30 27 28 18 21 27 24 19 23 31 36 38 35 30 33 32 31 30 32 37 40 45 40 37
15 16 26 41 16 15 12 25 35 18 50 37 56 52 45 44 44 42 40 37 36 35 37 34 34 34 31 27 25 23 26 23 26 25 28 30 29 31 31 23 25 29 30 27 30 33 35 34 34
14 9 16 38 22 9 13 13 22 24 23 52 42 41 37 40 47 42 37 35 35 36 36 33 36 40 38 33 29 26 28 30 29 28 26 24 25 32 31 31 31 32 34 32 32 36 36 41 44
16 16 17 17 19 16 13 11 11 21 17 22 31 46 46 43 40 44 36 34 37 37 34 32 34 32 33 32 31 30 30 31 30 28 33 34 34 31 36 41 37 33 36 43 45 45 44 47 48
22 24 24 20 15 16 16 13 12 13 32 22 25 34 34 32 34 33 31 33 31 32 34 33 32 30 32 33 33 30 28 27 31 29 35 37 40 43 39 40 39 42 40 46 43 43 45 46 48
18 21 22 21 18 17 18 18 12 11 15 17 20 23 25 22 27 30 30 36 38 41 43 34 32 33 34 33 31 32 30 30 29 30 33 36 40 43 45 49 46 46 50 50 49 47 43 46 43
17 14 14 20 13 10 13 16 18 14 14 22 23 24 26 28 29 31 27 24 25 27 29 32 33 34 34 34 35 35 35 35 37 35 37 38 40 42 46 48 51 51 51 51 49 48 47 50 47
13 15 14 12 13 15 17 14 14 13 15 15 25 31 30 31 30 32 31 29 27 27 28 31 33 35 36 37 37 36 37 36 38 40 42 44 46 48 50 51 51 51 52 53 52 53 55 52 51
7 8 10 12 14 15 16 15 14 17 19 19 20 20 22 24 26 31 31 33 34 33 34 36 37 36 35 37 37 38 40 43 44 46 46 47 49 52 51 48 48 50 51 51 50 52 52 52 50

GFSSGP_500_spd_093.txt.gz
Wind_Speed
48 47 58 55 64 73 80 77 67 60 68 54 59 59 57 54 48 46 43 39 36 31 29 28 25 22 21 18 16 15 14 13 11 9 9 8 7 6 5 4 4 4 5 6 6 5 4 3 1
48 47 59 59 67 75 78 75 71 61 64 66 58 59 58 58 51 47 44 40 37 34 32 31 28 25 23 20 19 16 16 14 12 10 10 9 8 7 6 5 5 5 5 6 6 5 4 3 2
46 48 59 61 64 76 78 71 66 65 63 68 54 63 64 56 53 49 47 43 38 36 33 32 29 26 24 22 20 18 17 17 15 13 11 11 10 9 8 6 5 5 5 6 6 5 4 4 3
46 48 60 66 70 66 70 64 63 71 70 71 67 55 64 57 55 51 49 45 42 39 36 34 30 28 26 24 22 20 19 19 18 16 15 13 12 10 8 7 6 6 7 6 6 5 4 5 4
52 54 61 67 68 65 64 60 64 70 76 74 67 54 65 61 53 52 52 48 45 43 39 35 33 30 28 26 24 22 20 21 21 19 17 15 14 12 10 9 8 7 8 8 7 7 6 5 5
57 61 61 66 63 63 61 61 64 69 75 78 73 66 50 59 53 53 53 51 48 47 43 39 36 33 31 29 27 25 24 23 22 21 19 17 16 14 13 11 9 9 9 8 8 7 7 7 7
59 63 63 60 61 58 58 59 65 65 71 75 68 69 54 58 56 54 54 53 51 48 46 43 40 37 34 31 30 28 26 25 24 22 21 20 18 16 15 13 12 11 10 9 9 8 8 8 8
60 67 65 63 61 60 54 62 60 62 68 66 67 71 64 43 62 43 57 55 56 53 49 45 43 40 38 35 32 30 28 27 27 24 23 21 20 17 16 15 14 13 11 12 11 10 10 10 10
61 69 70 64 61 53 54 62 59 61 63 64 67 67 58 65 62 48 53 62 64 59 54 51 47 44 42 38 35 32 30 30 29 27 26 23 22 20 18 17 16 15 14 13 13 13 12 12 12
62 64 70 62 57 53 55 56 60 63 61 61 62 67 61 56 52 61 34 81 66 61 55 53 50 47 45 42 38 35 34 33 31 29 28 25 24 21 20 18 16 17 15 14 14 14 14 14 14
49 65 60 63 55 54 54 54 62 54 64 60 56 51 66 50 61 45 44 50 69 64 57 53 51 49 46 45 41 39 37 34 33 31 29 27 24 23 21 19 18 18 17 16 16 16 16 16 16
37 49 60 56 56 57 51 58 64 55 56 61 56 49 53 68 62 49 34 37 60 59 54 53 51 50 47 44 43 43 41 37 36 34 32 29 26 25 23 21 19 19 19 18 17 18 18 18 18
38 34 46 59 56 56 52 58 70 54 54 57 53 52 54 56 66 67 33 24 47 60 48 53 51 47 46 46 45 44 43 43 40 37 33 32 29 26 25 23 21 21 22 21 21 20 20 20 20
22 29 38 46 55 48 53 59 71 54 52 53 54 49 56 62 62 61 46 31 32 45 55 52 44 51 49 48 48 47 46 46 43 39 36 33 29 27 27 24 25 24 25 25 23 23 23 23 23
17 26 28 38 50 45 54 52 62 57 44 51 51 47 55 57 52 43 42 37 31 39 43 51 47 50 49 50 51 49 49 47 45 44 40 34 31 30 28 28 27 26 27 28 27 27 27 27 27
12 26 29 43 50 51 52 50 47 53 45 41 47 47 53 62 44 43 38 39 36 23 33 34 49 51 51 52 53 53 55 52 47 43 41 36 32 30 31 31 28 28 30 32 32 32 31 30 31
18 26 28 41 46 51 42 50 47 52 56 48 47 42 43 51 49 42 40 34 31 30 23 18 33 48 38 41 37 46 55 52 49 43 40 39 36 35 37 35 33 34 36 36 36 36 36 33 33
16 21 29 36 43 57 31 10 40 58 60 50 52 50 42 33 46 40 40 45 35 30 19 19 21 46 30 34 40 37 43 52 47 43 42 45 41 39 40 37 36 36 38 39 39 39 38 39 37
16 19 24 28 42 58 13 18 40 53 54 55 54 50 44 40 31 31 31 35 34 32 25 27 20 22 35 36 32 42 42 39 35 37 42 41 38 41 43 41 41 40 39 42 42 41 42 42 41
16 20 21 25 39 52 11 10 28 55 54 50 52 57 45 42 42 42 39 30 28 32 23 25 24 22 22 27 25 36 37 35 36 36 36 37 38 36 32 37 42 43 42 45 46 46 45 47 45
12 18 20 18 47 40 7 18 38 46 49 50 53 52 44 49 44 37 29 28 34 29 25 24 17 13 18 22 20 11 41 29 36 35 41 43 41 37 38 38 38 37 31 31 30 38 45 49 48
9 11 20 26 31 31 14 18 40 42 43 46 49 44 47 41 51 38 30 25 23 22 21 20 21 15 14 15 12 10 19 24 35 28 30 37 38 39 40 37 37 35 36 39 37 38 42 40 36
8 11 18 29 16 17 5 10 23 38 37 44 45 46 48 44 38 32 30 33 28 24 21 19 21 17 18 22 18 21 31 27 25 21 18 21 28 30 36 39 35 32 34 31 33 39 45 40 35
13 12 18 32 17 1 6 11 21 27 44 45 39 40 40 46 43 37 33 33 29 31 29 25 23 21 23 25 28 26 26 21 22 22 23 28 27 32 31 32 33 34 29 31 26 30 36 37 36
10 14 24 20 19 6 8 10 10 20 21 42 38 38 42 37 39 38 37 34 32 27 27 28 27 26 24 29 29 28 27 25 29 22 21 22 30 26 28 30 33 34 36 39 36 33 34 37 42
12 15 18 15 24 10 3 10 12 9 19 19 40 40 35 35 32 32 31 33 35 30 31 34 34 34 30 30 27 24 25 27 27 22 23 23 24 29 33 34 31 41 41 34 38 41 43 46 43
19 15 15 12 17 17 6 10 14 11 8 13 19 30 33 30 35 34 30 30 29 32 31 32 34 33 32 32 29 28 30 30 30 29 28 26 26 27 33 37 38 40 41 44 45 48 49 55 53
23 21 19 20 19 13 15 11 10 12 11 7 8 9 26 29 25 25 24 27 27 28 31 33 32 33 34 31 32 34 33 33 31 30 31 28 31 33 35 38 40 44 44 45 48 50 52 51 52
21 20 20 16 17 17 16 15 13 11 11 13 10 17 14 16 14 18 22 26 30 28 31 36 39 36 35 35 32 33 32 33 34 37 38 38 36 39 40 42 45 45 46 49 51 53 54 53 52
19 17 15 15 15 16 15 13 12 12 10 8 10 18 15 17 23 21 22 22 24 26 27 27 26 28 29 29 31 33 35 35 35 37 39 39 41 43 46 44 45 46 47 49 52 50 48 47 47

GFSSGP_500_spd_096.txt.gz
Wind_Speed
45 47 50 51 51 56 53 54 58 63 63 59 60 58 60 59 54 52 47 43 40 36 33 30 28 26 24 24 22 19 17 17 15 13 12 12 11 9 7 5 4 3 3 3 4 4 3 2 1
46 50 53 55 58 59 57 53 59 60 60 62 60 63 61 61 56 51 49 46 43 40 35 33 31 29 26 26 24 21 19 19 18 15 14 13 12 11 9 7 6 4 4 4 4 4 3 2 2
50 52 55 60 64 64 56 56 59 55 61 65 64 65 63 67 59 54 51 49 45 42 38 36 35 32 29 27 25 22 21 20 19 19 17 16 14 12 10 9 8 6 6 5 5 4 4 3 3
53 56 60 62 65 65 58 55 62 54 62 67 69 72 70 63 61 54 53 51 49 44 40 38 37 34 31 29 27 25 23 22 22 22 21 18 15 13 11 10 9 7 6 6 6 5 5 5 5
57 61 63 66 67 65 58 54 61 53 59 67 73 76 72 53 63 54 53 53 52 49 43 40 39 36 34 31 29 27 25 24 23 23 22 19 16 15 13 11 10 9 8 8 8 7 6 6 7
62 65 66 66 67 59 54 54 57 53 58 67 76 82 76 64 60 57 53 55 54 52 47 43 41 39 37 34 31 29 27 25 24 23 21 20 19 17 15 13 12 11 11 10 10 9 8 8 8
65 69 68 69 67 61 55 56 54 52 56 67 75 80 76 68 38 64 54 56 55 53 50 47 43 42 40 37 33 32 30 29 27 26 24 22 20 19 18 16 14 13 13 12 11 10 10 10 10
66 70 71 71 67 64 54 54 52 53 56 65 74 83 76 69 45 60 51 54 57 56 54 52 48 45 43 40 37 35 33 31 30 28 27 25 23 22 21 19 17 15 14 14 12 12 12 11 12
69 72 72 70 68 61 53 60 53 53 57 64 77 80 78 71 64 72 68 28 52 63 61 58 56 51 47 44 41 38 36 34 32 31 30 28 26 25 23 22 19 18 17 15 14 13 14 14 14
66 66 65 60 60 63 57 63 49 55 61 65 71 82 77 72 75 70 70 53 52 67 64 62 59 56 52 48 44 41 38 36 34 33 32 31 29 28 26 24 22 20 18 17 16 15 16 16 16
58 61 49 49 56 59 62 64 53 60 64 65 67 73 72 72 77 68 47 39 29 58 67 64 62 58 54 51 47 44 42 38 36 34 33 32 31 30 28 26 24 22 19 18 19 18 18 18 18
52 42 39 39 52 58 60 61 59 61 63 61 63 66 64 67 71 69 62 60 43 49 61 66 61 57 55 52 49 46 43 39 37 36 36 34 33 32 31 28 25 24 21 20 21 20 19 21 21
43 33 36 33 45 56 56 59 57 55 61 62 62 64 53 59 70 83 65 49 41 42 56 67 62 58 54 51 50 46 43 41 40 40 39 38 36 35 32 31 28 25 23 22 23 23 21 22 23
34 33 36 37 35 50 55 56 56 53 62 63 59 61 54 53 69 70 57 21 39 45 38 54 63 58 57 53 50 46 44 42 41 41 41 42 40 38 35 31 28 27 25 24 25 25 25 26 26
23 23 27 27 32 46 48 54 51 52 58 61 56 56 55 44 62 68 57 46 34 33 42 47 45 58 60 56 53 47 45 43 43 43 44 44 42 41 38 31 30 29 28 27 28 28 29 30 31
5 6 3 13 25 40 47 43 45 56 59 66 52 55 51 44 52 61 64 57 53 38 35 37 50 55 60 60 53 49 48 47 46 45 46 46 45 44 38 34 32 34 30 31 31 31 32 34 35
10 7 4 13 20 38 43 41 48 56 64 67 44 51 52 39 39 51 49 52 36 33 33 30 43 44 51 60 56 51 50 48 47 49 48 47 46 42 39 36 37 34 32 36 33 34 36 38 39
2 4 10 10 24 35 43 36 47 48 57 60 35 49 50 42 35 38 34 35 36 25 27 25 23 50 44 56 59 53 49 48 49 51 49 49 46 42 41 42 37 38 37 39 37 40 40 42 43
8 9 12 9 26 34 33 36 38 36 51 43 38 44 48 34 31 33 52 35 26 29 28 16 19 22 24 38 55 50 52 46 51 48 51 49 47 45 50 45 44 39 39 38 41 43 43 45 47
7 9 12 6 18 30 34 37 22 38 56 40 34 46 51 37 35 30 30 45 41 39 37 32 20 18 15 32 34 30 33 41 43 45 46 52 54 51 39 45 40 35 42 46 45 47 39 42 47
10 9 7 6 22 41 13 1 19 41 43 48 43 41 49 37 33 31 33 31 33 33 28 30 33 25 19 31 39 40 43 38 47 46 42 40 37 40 41 34 31 33 36 35 40 41 42 37 38
10 6 11 7 17 22 24 13 11 39 46 45 44 42 46 44 40 32 44 40 43 40 32 31 25 25 23 26 23 21 26 44 44 36 33 34 38 42 37 41 36 40 34 42 46 47 40 38 39
13 13 25 18 22 23 7 4 22 30 47 45 44 43 44 37 39 36 43 18 19 31 25 27 26 23 21 21 13 13 12 18 41 41 33 40 39 40 46 47 46 31 39 46 47 43 48 34 35
16 23 24 26 18 7 4 15 16 35 37 41 43 38 35 35 37 33 25 25 17 18 15 14 13 12 12 11 20 17 20 13 26 25 32 18 29 27 32 42 44 45 43 37 31 28 28 31 33
20 19 18 18 14 17 14 17 17 30 28 32 33 35 34 30 30 30 16 22 19 18 19 21 21 19 15 18 20 16 16 19 21 21 23 19 22 26 27 29 39 40 39 33 27 28 27 25 28
17 19 22 21 7 11 17 21 15 21 29 28 31 30 24 24 24 26 29 24 28 23 18 18 19 22 22 20 23 21 22 18 24 18 20 16 22 21 22 22 26 28 25 28 30 33 37 35 37
22 23 16 17 10 7 16 20 20 13 16 20 25 27 22 26 23 24 34 32 23 20 24 26 27 26 28 29 32 27 26 24 24 26 23 23 24 27 28 26 27 30 30 31 34 35 37 39 41
27 23 19 14 16 8 17 21 24 23 13 15 14 26 30 23 27 25 28 24 23 21 22 24 29 29 32 33 35 37 35 32 31 31 31 33 32 29 29 32 33 34 34 36 37 40 40 43 46
26 24 20 16 11 13 18 19 19 19 15 14 13 14 18 19 23 22 20 22 22 24 24 24 26 28 30 29 31 33 34 34 35 33 36 35 33 31 34 36 39 38 39 40 43 45 47 48 50
24 25 20 16 17 16 15 17 18 17 16 14 11 10 12 13 18 16 14 17 22 23 24 25 31 32 33 35 35 37 38 40 39 38 38 37 36 38 39 40 42 42 44 47 48 48 51 53 54

GFSSGP_500_spd_099.txt.gz
Wind_Speed
45 44 44 45 45 44 42 41 37 42 42 38 47 50 55 54 55 59 52 48 44 39 37 35 30 28 27 26 25 24 23 21 18 16 16 16 15 13 11 9 7 5 4 3 3 3 2 2 2
47 47 49 49 52 50 44 42 44 45 44 45 48 44 52 57 59 56 51 51 47 42 40 36 33 31 29 28 27 26 26 23 21 19 18 17 15 14 12 10 8 6 5 5 4 3 3 3 3
49 50 51 52 56 52 46 48 50 49 51 43 50 46 54 63 64 55 51 52 50 46 42 39 36 33 32 30 28 28 28 25 23 21 20 19 16 15 13 11 10 8 7 6 6 5 4 4 4
49 50 54 57 57 50 49 48 52 57 57 53 47 49 49 61 63 59 52 52 53 50 46 43 39 36 33 32 30 29 29 27 25 24 23 21 17 16 14 13 11 10 8 7 7 7 6 5 6
52 54 55 58 56 52 52 54 52 56 62 58 50 47 51 59 65 62 57 56 55 52 49 46 44 39 36 34 32 32 31 29 27 26 24 22 20 17 16 14 12 11 10 9 8 8 8 7 7
56 54 56 57 57 56 56 56 60 60 60 63 50 48 51 60 67 64 63 63 57 55 51 48 47 43 39 37 35 34 33 31 29 27 25 22 22 19 18 16 13 13 13 11 10 10 9 9 8
55 57 56 58 59 60 59 60 63 66 64 62 48 54 50 60 69 66 65 59 58 58 55 52 49 46 44 40 38 36 36 34 32 29 27 24 23 21 20 19 16 16 15 14 12 11 11 10 9
55 58 60 59 61 62 62 66 69 69 67 54 53 56 52 61 71 71 63 59 62 51 60 54 55 50 47 44 41 39 38 36 33 31 29 27 26 25 23 21 20 18 17 16 15 13 13 12 12
57 59 58 60 63 62 66 69 68 68 65 58 55 57 56 55 72 77 70 60 56 60 60 57 59 56 51 48 45 43 40 39 37 34 32 30 29 27 26 24 23 21 20 19 18 16 15 14 14
58 59 58 61 65 68 70 72 70 66 67 61 58 58 57 61 70 83 84 65 74 49 45 44 63 60 57 51 48 46 43 41 39 36 34 32 30 29 28 26 25 24 23 21 20 19 17 17 17
56 59 60 64 67 69 72 74 71 67 65 59 59 59 59 58 68 81 91 71 78 69 55 57 65 63 59 55 51 48 46 43 40 39 37 34 32 32 30 28 27 26 25 23 23 21 20 19 19
57 60 63 66 65 70 72 70 72 65 65 60 56 57 61 64 53 76 86 71 88 43 48 52 53 63 62 59 54 50 48 45 43 40 38 35 34 32 31 30 30 29 27 26 25 23 22 22 21
57 58 63 60 61 63 64 66 69 60 60 56 60 63 62 59 37 66 80 83 58 58 57 44 50 53 68 61 56 53 50 47 44 42 40 38 36 34 34 34 32 31 29 27 27 25 24 24 23
49 50 51 52 52 50 52 54 56 57 56 54 64 61 62 61 57 37 77 88 69 56 37 46 57 56 74 63 59 54 52 49 46 43 41 39 38 36 37 36 35 34 32 29 28 27 26 26 25
32 31 22 20 32 44 46 50 52 49 55 63 57 59 65 64 65 36 48 83 70 61 41 48 40 49 69 63 59 57 54 50 46 44 42 41 39 38 39 38 37 36 33 31 29 28 30 29 29
8 3 11 18 19 22 34 30 33 46 48 56 57 61 68 60 55 29 36 56 89 56 38 40 32 41 67 67 65 61 54 49 46 46 43 43 41 42 42 41 39 37 35 31 31 34 36 32 32
12 12 13 17 16 16 23 18 36 41 46 53 52 57 62 45 57 29 29 47 78 61 46 40 27 31 58 57 67 60 56 52 49 49 46 45 44 43 43 43 40 40 37 34 39 41 35 36 35
12 10 13 10 14 11 15 21 30 29 43 42 49 55 57 42 43 40 29 25 57 73 54 44 29 22 35 40 54 63 63 59 55 51 50 49 46 46 46 46 45 40 40 39 41 41 36 39 39
5 6 5 10 10 11 16 25 28 31 36 38 48 52 49 44 46 39 26 24 28 50 56 23 22 21 40 41 50 64 65 63 59 53 51 51 51 49 52 45 45 40 41 44 48 42 40 40 41
5 5 6 6 2 13 16 18 19 24 30 38 48 61 46 50 57 40 27 27 29 38 31 35 10 28 30 42 33 57 61 63 62 61 56 51 51 48 51 45 47 42 48 51 52 47 39 40 43
9 5 4 9 3 10 16 15 15 16 23 35 52 38 49 45 51 32 37 33 33 27 26 30 26 18 23 31 26 20 42 60 62 59 54 47 46 50 50 46 44 46 49 41 37 36 37 37 38
9 5 7 19 8 9 21 14 11 14 29 37 50 26 49 49 55 45 21 29 34 37 32 29 29 28 27 19 20 29 36 41 38 38 42 43 42 45 45 45 47 50 48 40 35 40 42 45 49
11 10 12 14 14 9 9 11 14 15 19 36 29 37 42 36 65 28 14 38 37 35 29 29 28 32 29 23 16 18 30 38 33 36 42 43 48 48 43 43 42 39 40 42 38 35 38 42 45
18 19 16 10 7 4 7 8 28 22 26 33 35 25 32 29 46 23 28 32 31 42 44 35 33 29 25 30 21 24 18 19 13 28 50 46 48 41 33 34 39 41 45 52 48 41 42 45 36
13 16 16 17 17 11 15 21 33 30 29 31 26 28 29 24 25 11 20 16 22 21 26 25 22 25 20 24 30 22 15 16 18 18 18 22 26 37 40 42 30 35 36 44 53 39 38 39 28
15 21 13 17 15 21 22 23 29 35 32 35 34 31 26 19 15 14 13 13 11 21 12 9 15 14 13 16 12 15 16 17 19 21 22 21 21 22 23 17 19 23 19 21 30 39 33 22 23
20 17 14 14 16 24 29 28 25 19 22 26 28 28 23 21 16 7 7 9 17 13 13 13 8 9 11 13 15 19 19 20 22 19 20 22 21 23 21 19 23 21 26 21 21 23 24 26 28
21 18 14 6 12 25 25 25 24 16 12 24 24 24 15 9 8 9 11 12 16 14 11 11 10 14 17 21 24 25 27 29 32 32 28 26 27 30 27 25 23 27 27 30 29 29 30 31 33
23 18 17 10 12 22 26 26 22 20 19 13 10 14 12 17 10 14 15 14 11 11 12 13 13 17 20 24 27 30 33 34 35 36 35 36 36 37 33 34 34 34 35 34 34 37 36 37 37
24 21 15 14 14 15 21 23 25 23 18 13 14 8 13 15 17 10 11 14 13 12 15 16 18 21 23 24 26 30 33 35 34 35 37 37 38 39 40 40 38 37 38 38 41 41 40 41 43

GFSSGP_500_spd_102.txt.gz
Wind_Speed
40 42 43 46 48 47 41 33 35 33 29 29 28 28 29 22 36 43 45 58 44 36 37 37 34 32 30 26 25 25 23 22 21 19 17 14 14 13 12 11 9 7 5 4 3 3 2 2 2
42 45 46 49 53 52 36 33 36 34 34 34 35 36 33 26 29 37 48 49 49 39 38 38 37 34 33 29 27 27 26 24 23 22 19 17 13 14 13 12 11 8 7 5 5 4 4 3 3
45 47 49 51 56 53 39 38 39 40 38 40 39 40 41 33 32 31 47 47 47 45 41 40 39 37 35 32 30 29 28 27 26 24 22 19 14 15 14 14 12 10 9 7 6 6 5 4 4
47 49 51 55 55 46 43 40 41 43 44 42 42 44 44 38 37 33 43 60 48 47 47 44 42 39 38 36 32 31 30 29 29 26 25 22 16 16 16 15 14 12 11 9 7 7 7 6 5
50 50 52 56 53 50 45 44 40 44 45 46 48 48 48 43 42 37 40 54 59 53 49 48 46 44 40 38 36 33 31 31 30 28 27 24 19 17 18 17 16 14 12 11 9 8 8 8 7
49 52 53 55 51 51 50 47 48 46 49 48 49 51 53 50 45 43 40 52 59 58 52 52 49 47 44 41 39 35 34 32 32 31 30 27 22 20 19 19 18 16 15 13 11 10 10 10 9
49 53 53 55 55 53 51 50 52 51 49 52 51 53 51 56 54 45 43 48 57 63 54 54 54 51 48 45 42 39 36 35 34 33 33 29 24 22 22 21 20 18 17 15 14 13 12 11 11
50 52 54 54 52 50 50 55 57 58 56 53 53 55 54 56 57 50 46 49 59 65 58 55 57 56 52 48 45 42 39 38 37 37 35 29 27 26 24 23 21 20 19 17 16 15 14 13 13
54 53 53 51 53 51 54 59 57 60 61 59 58 57 59 61 60 57 46 50 60 68 64 59 58 60 58 52 48 45 42 40 39 38 37 34 31 28 27 25 23 21 20 19 19 17 17 15 15
55 55 56 54 56 58 58 60 61 62 64 64 63 60 60 67 64 58 52 56 62 67 65 52 80 65 60 58 52 48 45 43 42 40 39 36 32 29 27 25 24 23 22 22 21 20 19 18 17
51 49 54 55 57 59 62 63 62 67 67 66 66 64 62 67 68 61 50 52 62 71 72 79 59 41 66 62 59 51 48 46 44 42 40 37 34 31 29 27 26 25 24 24 24 22 21 21 20
44 46 50 52 55 59 62 65 68 71 70 70 68 70 72 72 74 60 52 52 67 76 74 75 65 67 76 57 61 53 50 49 47 45 44 39 36 33 33 31 29 27 27 27 26 25 24 23 22
42 44 49 54 58 61 63 66 69 71 73 71 69 72 72 77 77 68 55 53 71 85 90 72 53 45 61 60 60 56 55 52 48 47 45 41 37 37 35 33 31 30 29 29 28 29 27 26 25
38 36 37 40 47 51 59 61 67 69 70 74 73 73 74 76 73 60 58 52 59 79 84 67 61 69 58 45 66 61 59 55 51 49 45 42 41 38 36 34 33 32 32 31 31 31 29 29 29
30 31 33 38 38 41 47 57 63 65 66 70 64 66 60 59 61 54 48 38 39 62 82 75 50 44 34 66 68 62 59 57 51 48 46 44 42 40 38 36 35 35 35 34 33 33 31 31 28
24 26 21 27 25 26 38 43 44 53 57 60 52 55 50 52 47 51 55 35 37 34 66 76 44 50 40 37 33 64 61 54 54 52 49 45 43 41 40 39 39 39 38 36 35 34 32 32 28
16 15 15 13 15 19 31 30 30 35 41 43 48 54 44 53 50 50 55 28 32 30 56 80 54 52 39 37 35 39 46 57 56 54 52 48 45 43 42 41 42 40 40 40 37 35 37 36 35
11 9 7 9 11 22 23 13 10 9 14 26 42 48 37 42 58 52 42 36 26 26 33 70 63 31 40 37 47 51 43 40 49 58 55 51 49 46 45 45 45 43 43 41 38 36 38 40 44
8 6 6 7 17 13 12 7 14 13 17 25 30 27 33 46 52 53 58 54 18 16 18 64 45 28 38 32 35 49 64 66 51 50 53 55 53 52 51 48 48 45 44 41 45 35 41 41 42
5 5 4 4 15 8 6 6 11 7 8 25 33 22 39 41 54 51 57 31 23 20 17 29 53 44 18 25 29 27 66 64 58 61 59 54 53 53 53 49 48 46 43 46 40 39 43 49 49
6 6 5 4 6 6 4 4 6 8 10 15 20 26 35 41 50 44 42 43 27 21 21 24 45 51 40 26 34 30 32 38 72 62 58 56 58 55 54 54 52 55 51 41 40 48 45 50 50
7 4 4 1 6 4 9 3 5 11 10 16 17 28 34 46 42 40 44 35 31 25 21 19 24 28 18 20 32 30 28 33 28 36 60 63 59 55 62 46 57 51 39 43 44 43 47 53 39
5 2 3 6 2 7 9 11 12 6 15 14 15 41 45 41 37 33 22 23 30 29 19 17 21 26 21 17 27 32 26 28 38 31 22 37 45 51 49 43 47 45 46 44 42 47 46 43 44
8 11 13 9 4 10 2 2 10 11 13 12 26 46 41 26 36 21 33 16 32 29 29 24 21 19 21 26 23 22 20 23 29 39 38 36 37 34 33 35 33 39 42 30 34 31 36 44 48
16 16 17 19 12 9 7 13 22 16 9 20 19 23 38 30 18 16 27 28 34 33 30 28 25 25 26 22 18 23 34 29 14 16 37 37 38 46 48 51 55 38 32 38 30 37 41 42 42
11 13 10 13 20 25 24 21 38 23 12 13 18 19 19 13 10 16 15 14 19 28 34 28 29 27 28 28 21 22 24 23 23 18 17 17 23 25 40 40 31 21 30 24 24 34 35 40 41
12 18 18 16 27 34 25 26 36 16 15 14 16 13 14 14 17 14 14 9 8 17 14 18 19 20 20 21 23 18 18 15 19 16 17 15 17 14 19 21 17 18 21 23 24 25 23 26 22
17 17 17 21 33 32 26 27 17 22 24 26 21 18 14 7 17 15 10 11 9 3 1 4 1 2 5 8 10 14 14 15 18 16 17 20 21 22 23 25 24 25 23 27 30 27 23 25 22
17 17 17 24 28 28 27 26 22 19 19 15 16 12 9 10 14 7 6 5 3 6 4 2 3 3 3 5 7 12 16 21 23 22 24 27 32 32 33 33 33 34 33 32 30 32 33 33 31
19 17 19 23 23 23 24 30 24 23 20 20 17 11 7 9 11 7 4 8 5 3 3 4 6 9 13 15 16 19 20 22 24 27 28 31 31 32 34 34 37 39 40 38 39 40 40 39 40

GFSSGP_500_spd_105.txt.gz
Wind_Speed
38 39 40 41 43 48 37 29 28 27 28 25 24 26 24 24 18 16 21 38 36 34 37 36 34 32 30 29 27 24 21 21 20 19 17 15 13 10 10 11 9 9 8 6 5 4 4 3 3
39 41 42 44 47 47 31 27 30 28 31 31 30 30 29 28 21 15 14 24 40 36 34 39 36 34 31 31 30 28 25 23 22 21 20 18 14 11 13 13 12 10 10 8 6 6 5 4 4
42 42 44 48 49 47 32 28 34 35 36 37 34 34 33 35 25 17 17 21 34 37 42 39 38 36 35 33 32 31 28 26 25 24 22 21 17 14 14 13 13 12 11 10 8 7 7 6 5
41 45 46 49 51 41 34 33 37 38 37 37 36 41 38 36 32 23 22 24 26 35 43 42 42 41 37 35 34 33 32 30 28 26 25 24 19 18 16 15 15 14 13 11 10 8 9 8 7
45 44 47 49 49 42 40 35 37 41 42 38 41 42 39 39 38 32 25 25 27 27 41 45 49 47 42 38 37 36 34 33 31 29 27 27 22 21 19 17 17 16 14 13 12 10 10 9 9
46 47 50 50 47 46 44 39 39 43 44 42 42 44 45 43 42 39 34 31 29 27 32 43 48 51 48 43 41 39 37 35 33 31 30 29 26 23 22 19 19 18 15 15 14 12 12 10 10
43 48 51 51 48 48 43 42 46 45 46 47 46 47 45 48 48 45 41 36 32 32 30 45 52 52 53 49 45 43 40 38 36 34 33 32 28 26 25 22 19 18 17 16 16 14 13 13 11
45 45 49 51 48 46 42 45 47 50 49 48 51 52 48 49 53 52 44 41 31 29 32 36 50 58 56 54 51 46 44 41 39 37 35 34 30 28 27 22 21 20 19 18 18 17 15 15 14
45 47 48 47 49 48 47 50 50 53 54 48 51 52 51 52 54 55 51 45 39 36 31 37 49 57 59 58 56 52 48 45 42 40 38 35 32 30 28 25 23 22 21 21 20 19 18 17 16
37 42 47 48 51 54 50 51 49 54 56 54 51 54 57 60 59 57 55 52 46 41 40 36 49 58 62 61 59 57 53 49 46 43 40 37 36 32 30 27 25 24 23 22 21 21 21 20 19
34 37 45 45 47 52 55 55 54 56 54 55 59 54 59 62 63 59 58 55 51 47 44 42 42 39 60 63 66 60 59 53 50 46 42 41 38 33 31 29 27 26 25 24 23 23 24 23 22
34 35 39 45 47 48 52 56 55 59 56 57 61 62 61 62 62 61 63 59 54 56 52 45 50 60 71 52 64 68 62 54 52 49 46 43 39 36 32 31 29 28 27 25 26 26 26 25 25
37 37 38 39 42 47 49 52 52 52 56 59 62 65 65 66 68 64 64 62 58 60 58 56 49 59 65 57 55 67 65 61 55 51 47 44 41 39 36 34 31 29 28 28 28 28 28 27 27
36 37 36 39 42 45 48 47 52 52 58 60 60 65 70 71 70 67 66 63 64 61 61 56 52 63 71 52 55 58 62 57 55 53 44 48 41 42 39 35 34 32 31 31 31 30 30 30 30
32 34 38 36 39 44 41 38 48 55 59 60 65 69 73 73 71 65 67 64 64 61 61 55 57 67 78 78 49 60 61 64 68 58 54 41 42 42 41 39 38 36 34 34 34 33 32 33 32
34 37 37 36 36 37 34 32 43 51 57 60 62 66 68 68 67 65 67 66 63 59 52 50 58 64 75 91 46 52 61 78 73 66 57 46 46 45 45 42 41 39 37 37 36 35 35 35 35
36 36 32 28 29 29 30 31 40 44 50 55 62 65 67 65 67 67 68 66 54 51 44 42 48 47 69 81 61 52 63 75 66 61 57 50 51 47 46 44 43 41 39 39 38 38 38 38 36
31 30 24 19 23 13 16 21 26 29 31 39 46 58 64 64 62 59 62 52 48 47 37 35 35 35 61 64 44 40 38 53 66 62 57 55 52 50 49 47 45 43 43 41 41 41 41 41 38
24 23 17 12 10 11 11 12 16 8 10 11 17 28 38 46 46 53 44 41 45 47 36 33 32 30 55 59 33 27 31 30 54 67 62 60 59 57 54 51 49 47 47 45 44 44 42 41 40
20 14 11 9 8 7 11 9 9 9 9 4 10 5 23 32 42 39 43 43 41 40 34 21 24 22 54 62 39 32 29 33 33 34 55 57 60 60 57 55 53 52 50 50 48 44 42 40 47
11 11 8 6 9 4 4 6 9 14 13 12 8 9 22 25 29 43 45 49 44 31 18 17 17 20 41 52 21 27 32 34 37 39 39 52 60 58 60 59 56 55 52 52 51 50 52 47 53
9 9 8 7 3 7 6 5 4 12 12 5 10 17 19 23 27 40 47 44 36 38 27 26 20 20 37 40 48 25 31 32 41 44 38 42 49 48 51 55 59 59 56 55 45 51 42 42 43
7 4 2 3 4 14 7 15 10 12 10 12 11 15 26 20 25 40 38 21 28 30 31 23 27 25 37 33 41 38 39 29 30 43 41 33 36 50 53 45 43 47 39 28 34 36 36 38 39
12 12 9 9 9 7 9 9 8 8 15 14 11 19 19 20 26 32 39 20 16 24 30 28 26 31 28 25 21 31 37 30 31 26 29 25 27 34 28 36 33 34 38 42 45 29 33 39 34
10 8 12 17 7 1 4 3 20 21 20 17 22 24 24 19 22 16 15 24 12 22 29 28 29 27 32 26 28 29 26 30 28 29 28 34 35 40 31 37 37 40 44 44 41 46 44 42 37
13 8 13 18 13 9 12 20 24 25 30 20 24 28 23 21 22 16 15 14 7 28 30 25 20 25 38 27 18 27 21 19 22 28 24 24 28 32 34 40 46 47 40 43 50 50 26 32 38
15 12 14 12 18 28 32 22 23 26 24 20 27 24 26 24 25 20 17 19 25 26 30 25 23 26 25 25 20 21 17 17 18 25 25 19 13 16 19 12 13 18 27 28 29 18 23 22 21
14 22 23 26 29 33 30 31 32 23 21 21 25 22 28 28 29 23 22 20 20 25 25 29 26 23 20 22 25 24 20 21 25 19 18 16 17 19 22 19 17 21 23 24 25 24 26 27 29
20 24 26 27 28 26 24 34 32 27 20 15 14 23 26 20 22 22 18 20 17 19 18 16 10 10 9 7 10 10 8 4 7 8 13 18 18 20 21 22 24 28 31 32 35 33 33 31 31
25 23 22 21 22 21 30 29 32 23 20 20 19 20 27 17 12 19 17 22 16 13 11 9 8 7 6 4 3 4 8 12 15 16 19 22 24 25 29 31 32 34 34 34 36 36 37 38 39

GFSSGP_500_spd_108.txt.gz
Wind_Speed
38 39 37 38 41 43 36 29 27 25 25 28 30 31 29 27 22 18 15 15 24 33 36 31 33 30 30 28 27 24 22 21 18 17 16 15 14 10 12 11 11 11 8 7 6 5 5 4 3
41 39 40 41 41 43 30 26 27 28 36 36 36 36 34 29 24 18 18 16 16 27 34 35 39 37 33 31 29 27 25 24 22 20 19 18 16 13 13 12 12 12 10 8 7 6 6 5 4
42 43 42 44 44 41 28 28 27 35 37 38 38 38 37 31 26 21 20 19 18 23 34 33 31 37 38 36 32 31 28 26 25 23 22 20 19 16 14 14 14 14 12 10 9 7 7 6 5
42 44 45 47 45 38 30 30 35 39 40 42 41 39 40 34 31 27 26 25 23 22 28 33 33 37 42 40 37 34 31 29 28 26 25 23 21 19 17 16 15 14 13 12 11 9 7 8 7
42 44 48 48 46 38 33 33 36 38 38 41 44 42 40 37 35 32 30 29 29 26 24 27 37 37 43 42 41 39 34 32 30 30 28 26 23 22 20 19 17 15 15 14 13 11 9 9 8
38 42 48 51 46 41 40 36 36 40 41 45 47 45 45 41 38 34 35 33 31 28 27 23 27 38 45 49 45 42 40 35 33 32 31 29 26 25 22 21 19 17 15 15 15 13 11 11 10
39 39 43 47 48 46 40 41 42 42 43 44 48 47 47 47 41 38 32 33 33 31 31 27 24 30 43 51 50 48 44 41 37 36 35 31 29 28 25 24 22 19 18 17 17 15 14 13 13
41 42 43 42 45 47 43 45 48 48 44 45 47 50 51 51 45 42 39 35 36 34 34 32 31 28 38 44 51 52 48 46 41 39 38 34 32 30 28 26 25 22 20 19 18 18 17 15 15
43 44 41 42 43 48 46 50 49 49 47 47 49 49 50 53 49 46 46 44 35 37 35 32 29 31 30 43 48 53 53 49 46 42 41 38 34 33 31 27 26 24 22 22 21 20 19 18 17
42 42 40 38 39 45 49 52 49 51 51 46 50 52 51 53 54 51 51 49 48 45 37 37 34 33 31 32 45 54 54 55 51 47 43 42 39 36 34 29 28 27 25 24 23 22 21 21 20
44 41 41 41 43 42 43 50 53 53 53 50 50 53 52 53 56 53 55 54 52 47 43 41 41 38 32 30 38 48 60 57 55 52 47 45 43 39 36 32 30 29 28 26 25 24 24 23 22
44 41 42 42 43 43 41 45 49 53 53 56 53 55 57 55 55 54 54 54 56 52 45 48 46 43 38 32 39 43 59 61 57 55 51 49 47 42 38 34 32 32 30 28 27 27 26 25 24
43 41 40 40 42 43 44 44 46 51 54 56 59 57 58 60 60 58 58 56 58 59 48 49 50 46 42 39 39 45 52 64 60 62 57 52 50 45 41 37 35 35 32 31 31 30 28 27 27
41 41 43 41 41 42 42 41 46 48 56 53 56 60 62 63 65 64 64 61 59 62 52 50 51 49 46 43 40 45 50 62 64 65 60 54 52 48 44 36 39 37 35 35 35 32 30 30 30
37 38 38 38 40 41 41 37 51 53 54 56 57 57 62 64 63 68 67 67 64 63 54 56 55 50 50 48 43 44 58 56 60 63 59 61 55 52 47 49 43 42 39 38 37 34 33 33 32
38 40 40 38 40 45 43 37 48 54 54 52 55 59 60 63 64 63 66 70 68 62 55 58 58 55 53 50 47 46 60 58 67 67 66 63 60 55 51 51 43 43 41 41 38 37 36 35 34
36 37 43 44 43 44 46 39 38 52 50 52 57 60 61 62 66 64 64 64 65 63 59 61 58 55 54 52 51 47 56 53 60 56 60 44 59 63 53 54 44 46 43 42 40 39 38 37 37
34 37 40 42 40 46 36 40 36 45 51 53 58 61 65 67 65 71 68 64 62 63 60 62 57 55 55 53 51 50 58 70 54 68 63 60 55 51 54 53 46 48 45 43 41 41 41 41 40
36 37 32 25 32 28 24 22 28 31 42 46 53 59 65 67 70 69 69 69 66 65 63 59 54 49 48 48 46 54 51 66 61 57 64 61 71 67 67 67 52 48 46 46 46 44 44 44 45
32 25 22 19 17 13 18 14 15 16 19 17 18 27 40 55 65 70 70 68 67 65 62 57 45 38 36 36 40 36 37 61 75 60 60 77 77 72 63 58 56 50 50 49 48 48 49 49 49
17 18 14 15 11 10 11 11 9 14 19 19 19 16 20 28 45 59 65 67 60 61 52 44 39 33 32 34 35 38 32 42 57 57 45 48 74 74 64 57 58 56 55 55 53 53 53 55 55
11 10 11 9 9 13 18 11 13 13 18 21 20 16 11 8 21 38 37 40 40 40 38 38 33 29 33 28 31 45 33 36 48 41 32 38 55 69 68 63 62 63 59 51 52 59 57 54 57
9 8 6 6 10 7 11 14 10 15 16 13 7 3 5 5 15 20 28 39 39 35 39 32 32 26 30 30 24 40 29 38 34 33 35 38 36 33 35 56 63 59 57 59 59 49 48 40 39
9 6 0 4 6 7 11 17 4 3 8 5 5 5 14 7 15 25 31 31 29 31 40 29 31 27 31 34 37 35 44 29 30 35 35 36 34 35 32 31 39 44 40 39 41 44 40 40 37
8 4 9 5 9 10 6 9 10 7 12 18 20 18 24 21 23 25 22 24 22 39 30 31 28 23 31 30 28 34 33 34 44 37 30 32 31 34 34 31 31 28 26 30 33 43 37 42 44
7 8 8 5 4 1 11 19 21 16 23 25 22 26 22 19 14 11 13 18 26 20 28 27 24 22 24 26 31 28 37 37 41 33 30 31 30 24 32 33 34 35 38 34 38 41 46 46 46
11 8 6 6 9 12 15 16 14 11 13 22 18 19 20 25 27 13 20 16 9 21 24 24 27 25 31 31 29 27 28 32 25 23 26 28 26 30 31 35 37 38 36 38 40 34 39 43 38
16 11 12 16 17 20 22 24 26 26 26 32 27 30 25 19 22 28 20 22 19 24 25 25 26 27 27 27 30 17 20 16 17 18 19 24 22 20 22 27 26 22 19 21 25 26 26 25 26
16 18 23 19 17 19 20 26 21 23 32 32 34 27 26 27 22 25 30 28 27 25 23 20 20 18 18 22 26 22 17 17 19 18 20 20 14 7 13 17 23 23 20 24 28 31 30 35 35
22 17 20 16 14 23 25 22 18 18 21 23 23 27 23 22 22 25 26 25 26 25 24 22 21 19 18 22 28 17 3 2 9 11 12 8 11 18 21 23 27 30 30 31 33 36 39 40 42

GFSSGP_500_spd_111.txt.gz
Wind_Speed
39 39 39 38 38 40 36 32 28 27 30 30 33 32 31 29 26 24 21 18 18 23 31 37 36 35 32 30 29 27 23 21 18 16 14 12 12 10 11 10 10 9 9 8 5 5 5 6 5
39 40 40 41 42 38 32 29 30 31 36 37 37 36 35 32 28 23 24 21 20 19 22 30 39 38 36 32 30 29 26 24 22 19 17 15 14 13 12 12 12 11 10 10 7 5 5 7 8
40 41 41 43 43 41 32 29 31 34 38 40 40 38 38 33 30 26 24 25 25 24 23 25 33 40 40 37 32 31 30 27 25 23 21 18 17 15 15 14 12 12 11 11 9 6 4 6 8
35 41 43 44 42 40 34 34 34 37 40 42 42 43 41 37 32 29 28 29 29 29 27 26 28 36 43 40 37 33 31 31 28 27 24 23 20 18 17 16 14 14 13 12 11 9 7 5 8
30 35 41 44 41 37 37 38 39 39 42 44 42 44 42 41 35 32 33 32 32 32 30 26 26 36 35 43 41 39 35 34 33 30 27 26 24 22 20 18 17 16 15 13 12 11 10 7 8
30 30 36 39 38 40 39 41 42 42 45 44 45 44 45 43 39 38 36 36 34 35 32 28 25 27 36 35 39 43 40 37 36 35 32 28 28 26 24 21 20 18 17 17 14 13 12 11 9
34 34 31 32 34 38 39 43 44 43 46 46 47 46 48 46 41 41 40 38 37 36 34 29 26 27 27 35 38 42 44 41 39 38 36 33 30 29 27 24 22 21 20 19 17 16 14 14 12
38 38 36 34 34 36 37 42 49 46 45 49 49 50 49 49 43 43 44 41 40 36 39 36 30 31 31 30 35 41 45 46 44 41 40 38 33 31 30 27 25 24 23 22 20 18 17 16 15
41 41 39 40 40 39 39 42 47 50 49 49 52 52 50 51 49 44 45 45 43 42 37 38 36 35 35 34 32 35 43 47 47 45 41 42 37 32 32 30 28 28 26 24 22 21 20 20 19
42 43 42 42 44 43 41 40 45 49 51 51 53 53 53 54 55 48 45 46 46 45 43 39 38 35 33 33 34 32 34 42 49 48 46 44 41 38 35 34 32 30 28 26 26 24 24 23 21
43 45 44 44 46 46 44 43 41 46 49 51 54 55 56 56 57 57 48 49 48 48 47 45 40 33 32 30 30 32 32 36 41 48 49 48 44 43 40 36 34 32 31 28 30 27 27 25 24
43 45 47 46 45 47 48 47 47 45 43 49 54 56 58 58 58 59 55 51 52 51 50 48 48 47 39 38 37 36 34 33 40 45 51 52 47 47 44 39 37 35 35 32 31 30 30 28 25
44 45 46 47 45 47 49 49 49 46 51 44 49 58 61 63 63 63 62 58 55 53 51 49 46 47 43 40 40 39 38 35 29 41 49 55 52 48 48 44 40 39 38 37 34 35 34 30 28
43 44 44 44 43 44 47 47 50 49 50 49 48 53 60 65 66 66 64 63 61 57 53 52 48 47 44 42 42 40 40 39 38 31 41 51 55 54 52 48 43 43 43 39 39 38 36 33 31
43 45 44 43 42 44 46 44 45 50 51 49 48 51 57 61 68 69 67 66 64 63 61 58 55 49 46 47 46 43 43 42 38 38 36 45 50 59 55 51 47 46 48 43 44 41 39 37 35
40 42 41 41 41 45 46 43 47 54 54 52 52 51 53 61 61 67 69 69 68 66 66 63 60 51 49 49 46 45 45 41 40 41 39 39 46 52 58 56 50 51 48 45 45 46 43 40 38
38 38 38 40 43 45 48 45 47 54 55 53 54 54 57 58 63 64 65 68 69 69 67 67 64 57 51 51 47 46 46 45 43 42 40 39 46 49 53 59 59 56 55 49 52 52 48 43 41
35 36 37 39 44 43 42 42 52 59 58 57 56 57 57 59 61 65 64 65 68 67 67 69 68 61 54 55 49 47 47 48 45 43 42 44 52 55 52 58 66 64 48 50 57 49 49 44 43
35 37 38 42 45 44 47 48 45 44 51 48 51 55 58 57 61 67 67 66 67 67 66 65 62 60 53 57 53 51 50 50 47 44 45 45 54 61 63 57 56 58 62 51 57 54 47 43 46
36 38 40 40 41 43 36 30 22 27 28 38 41 42 52 60 64 65 67 69 69 67 65 64 60 57 55 59 52 50 50 51 47 46 47 47 49 53 67 46 55 68 62 71 64 49 49 47 48
35 37 33 33 34 18 15 13 17 22 24 28 28 27 28 31 44 62 70 69 69 66 66 64 62 59 60 54 50 48 47 48 44 46 44 50 59 56 61 48 53 55 62 55 56 53 50 50 55
25 25 21 14 11 13 18 13 16 28 26 26 23 27 30 28 33 41 59 68 72 71 69 67 63 62 58 53 48 46 43 44 41 40 42 53 59 56 55 50 51 72 68 65 65 66 65 57 60
10 7 5 9 13 12 16 21 9 25 30 28 22 14 15 12 18 25 40 50 56 65 64 62 58 54 50 41 35 37 36 35 28 24 36 39 51 64 62 59 55 67 63 65 67 60 58 64 62
7 4 5 8 11 10 13 16 9 11 11 10 12 11 9 8 5 5 8 16 27 38 43 50 53 32 33 33 32 28 29 32 29 29 29 33 38 47 51 61 43 56 72 81 48 41 45 37 39
5 1 2 6 7 8 8 6 4 4 5 16 19 17 13 13 15 14 9 13 20 22 24 31 36 33 32 23 29 22 21 29 33 31 36 33 32 36 46 38 32 30 27 30 33 41 37 36 36
1 4 4 3 3 2 8 3 5 16 23 25 27 22 12 8 4 4 11 10 17 30 29 35 30 30 31 30 25 25 18 24 24 24 33 31 30 39 43 35 32 36 37 39 38 30 31 33 35
2 1 2 2 2 3 3 2 5 4 10 9 11 11 15 7 3 7 9 18 18 24 29 22 26 26 28 28 26 30 24 24 27 29 30 31 27 22 27 29 29 32 31 31 31 37 40 44 42
3 4 3 6 3 3 10 15 12 17 21 15 7 12 8 12 15 3 10 19 25 24 27 24 25 23 19 23 25 18 29 21 17 22 16 20 27 24 26 26 27 34 32 34 38 39 40 39 38
5 6 8 6 8 17 19 20 22 24 19 21 22 23 23 28 25 22 18 22 18 20 22 27 27 20 23 21 23 19 9 12 16 20 19 15 14 16 18 21 22 26 31 33 23 22 29 28 34
5 10 7 10 15 15 18 17 20 20 23 20 20 24 25 29 34 34 33 28 22 20 21 19 17 15 15 24 16 15 11 11 13 1 5 6 7 6 9 8 12 17 21 28 30 32 33 37 40

GFSSGP_500_spd_114.txt.gz
Wind_Speed
39 38 38 37 38 38 36 34 28 30 31 32 33 33 31 29 25 25 24 19 19 19 20 25 33 37 37 33 30 28 25 22 18 17 14 13 11 8 7 8 7 6 5 6 6 4 4 6 6
38 39 39 39 39 36 34 33 32 34 33 36 36 36 34 32 28 27 25 22 22 22 21 21 27 34 39 39 34 30 28 24 22 20 18 16 14 12 10 9 8 8 7 7 7 7 3 4 6
36 39 39 41 39 36 34 34 35 36 38 39 39 39 37 36 33 29 28 27 27 26 25 24 22 30 36 41 40 35 31 28 25 23 22 19 17 16 13 11 10 10 9 9 8 9 6 3 6
30 33 37 39 38 37 36 35 38 39 40 42 41 43 41 38 36 32 31 30 30 29 28 27 24 22 32 39 43 40 36 32 28 26 25 23 21 20 19 14 13 12 10 11 10 10 9 6 5
23 22 25 28 34 34 37 38 38 40 41 43 44 45 44 42 39 35 32 33 34 32 30 28 26 23 24 34 40 42 38 36 31 29 27 27 25 23 23 18 16 15 14 13 12 12 12 9 6
28 26 23 20 24 31 35 39 40 41 42 43 45 45 45 43 43 38 36 37 36 35 33 31 27 26 24 27 34 42 40 38 35 32 30 29 28 27 25 21 18 18 17 16 15 14 13 13 10
34 32 29 26 26 28 31 35 40 43 42 45 45 46 47 46 44 41 40 40 39 38 37 34 31 29 28 25 29 34 39 42 39 36 35 31 29 30 29 25 22 20 20 19 17 17 16 16 14
39 37 33 31 32 32 31 32 33 38 44 46 47 49 48 49 47 45 43 44 45 40 38 36 33 34 28 28 26 31 36 38 41 42 40 37 33 31 32 29 26 23 22 22 20 20 20 19 18
41 39 37 36 37 37 36 34 33 33 37 44 49 51 50 51 51 49 46 47 47 46 40 37 36 36 34 36 33 30 29 34 40 42 42 40 37 35 33 33 30 27 25 24 24 23 23 23 21
43 42 41 41 41 41 41 39 39 38 38 40 46 50 53 52 52 53 50 49 49 48 47 44 41 39 38 38 36 34 34 31 35 40 43 43 41 39 38 36 34 32 29 26 26 26 25 25 24
45 43 43 43 44 44 43 42 42 43 42 43 45 49 53 55 55 55 54 53 52 50 49 48 45 40 39 40 39 38 36 37 32 33 40 43 43 41 40 40 37 35 33 31 29 28 27 28 27
45 45 44 44 46 46 46 45 46 46 45 46 46 47 52 56 58 59 59 58 55 54 52 51 50 45 41 38 38 35 33 36 35 32 31 35 41 45 45 43 40 39 37 36 32 30 30 31 30
45 46 46 47 46 49 49 48 48 47 52 51 50 51 51 54 59 60 61 63 60 57 56 54 53 51 47 43 40 38 37 36 34 32 31 30 34 40 46 46 45 44 40 39 37 33 33 34 33
41 41 44 46 49 50 50 48 48 51 53 54 55 53 56 57 58 62 62 64 64 61 59 59 56 55 51 49 47 44 41 40 39 37 33 31 34 36 45 46 48 47 44 42 41 38 36 37 36
40 41 43 47 48 50 49 47 48 53 54 57 58 56 56 56 58 58 62 64 65 64 62 60 59 56 55 51 50 47 45 43 41 38 38 36 37 33 37 46 50 49 49 48 47 43 39 41 39
38 40 39 44 45 48 49 47 49 54 55 58 60 59 57 58 57 57 60 63 67 68 64 63 61 59 57 55 52 50 48 48 44 42 41 40 39 41 36 40 48 53 53 54 52 47 44 44 43
33 36 36 39 44 46 47 46 45 51 55 54 57 58 56 54 57 58 60 62 65 68 68 66 64 61 61 60 57 55 54 53 48 45 44 44 43 42 40 39 45 51 52 58 54 51 48 47 48
30 32 35 38 43 46 44 41 42 49 53 51 56 59 58 59 60 61 60 62 63 67 69 70 69 66 64 61 58 55 57 54 52 48 45 46 45 44 43 38 43 41 48 60 56 52 50 52 51
29 31 34 38 44 42 42 38 43 50 52 56 57 59 61 61 64 65 63 62 65 64 68 69 70 70 68 63 59 56 54 54 53 51 48 48 46 49 43 42 39 44 55 57 59 61 62 57 50
30 32 35 35 42 42 44 43 46 47 52 52 53 54 57 59 63 65 63 62 63 67 67 68 67 68 68 65 58 57 55 57 55 53 50 50 49 48 48 46 49 53 51 61 61 56 55 52 53
30 31 35 37 40 42 45 43 40 38 40 35 35 35 32 36 44 50 53 60 64 66 69 70 67 66 64 62 59 55 54 55 49 52 53 53 52 51 51 48 52 55 51 51 58 59 56 67 69
29 31 32 33 37 36 27 29 16 25 33 37 35 31 28 28 31 35 40 47 60 65 66 67 67 66 63 60 56 53 50 49 47 51 52 51 49 51 50 48 50 51 53 60 67 64 67 60 62
26 25 24 18 16 16 20 26 21 25 29 35 37 32 30 30 33 35 37 44 51 59 64 63 63 62 61 57 52 51 49 47 44 44 48 44 46 47 46 47 46 49 43 38 45 45 54 58 57
15 10 10 11 15 18 19 24 18 18 16 22 23 21 21 24 20 20 20 29 40 45 50 58 58 55 52 50 46 46 45 43 41 41 41 37 40 37 28 37 47 51 57 50 40 46 48 55 59
2 5 9 10 11 12 15 14 9 11 10 6 5 8 10 8 6 6 2 2 8 24 35 38 50 52 45 41 36 37 35 34 34 37 36 33 27 23 21 27 27 38 51 40 41 45 48 51 44
3 7 8 6 9 8 6 14 11 3 10 11 9 7 6 7 2 4 5 13 11 15 16 22 27 34 30 23 27 29 31 26 26 29 29 29 26 30 29 27 30 31 32 30 34 34 31 28 28
3 3 6 5 5 11 13 9 7 4 4 6 9 16 7 9 11 14 12 9 24 26 25 22 25 25 26 25 23 19 22 23 22 27 29 28 29 30 31 35 36 34 31 29 34 32 30 30 31
5 6 4 4 8 9 10 11 13 12 12 12 11 11 16 19 7 16 19 19 19 22 21 29 27 26 24 23 18 21 20 18 22 25 26 28 29 26 23 17 20 25 23 25 30 32 33 31 35
8 7 5 8 9 11 14 18 19 23 18 19 16 18 14 19 16 15 12 20 24 24 27 22 24 24 24 24 23 17 25 17 11 11 15 13 18 24 18 16 20 20 19 24 30 29 33 30 27
7 10 10 11 10 12 18 17 16 16 21 22 21 22 24 24 17 13 17 20 20 22 15 20 18 20 19 16 26 16 7 8 8 11 14 18 10 12 13 7 2 4 8 11 17 18 27 30 35

GFSSGP_500_spd_117.txt.gz
Wind_Speed
40 39 38 37 38 37 33 30 30 32 33 34 34 34 30 28 25 26 23 19 18 19 17 15 18 29 36 33 30 27 24 22 19 17 15 13 13 11 10 7 4 6 4 4 2 1 1 5 7
40 39 39 39 38 35 34 31 31 31 33 35 35 36 35 33 29 28 27 22 21 21 20 18 18 18 28 37 36 33 30 27 24 21 18 16 15 15 12 11 7 6 7 6 5 3 2 1 4
36 40 40 40 38 34 36 33 33 33 34 36 37 38 38 36 33 30 28 26 25 24 23 23 21 19 19 27 36 36 33 30 28 25 22 20 18 17 16 13 10 8 7 9 8 6 4 3 2
28 33 36 37 37 37 36 35 36 36 35 35 39 41 40 38 37 33 32 30 29 28 27 25 23 20 20 19 25 35 37 36 32 28 25 23 22 20 17 14 14 12 9 9 10 8 7 6 4
23 23 24 26 32 35 38 38 38 39 38 37 39 41 42 41 40 39 37 35 33 32 30 28 27 23 21 20 20 26 35 39 36 33 29 26 24 22 19 18 15 16 14 12 11 11 10 10 9
26 23 19 18 24 28 32 35 38 40 40 40 40 41 42 43 43 42 41 39 36 36 33 30 29 27 24 23 22 23 26 35 38 35 32 29 27 25 22 19 19 17 18 16 15 13 13 13 13
32 28 25 24 26 24 25 25 29 36 40 41 40 42 44 43 44 44 43 43 41 40 36 33 32 31 28 26 26 25 25 27 36 36 34 32 29 28 26 24 22 21 19 19 18 17 15 15 16
35 33 31 31 30 29 28 27 27 27 31 37 40 41 43 45 45 46 46 44 45 43 41 38 34 34 31 31 28 27 27 27 28 34 38 35 33 31 29 27 25 24 24 22 20 19 20 18 18
39 35 35 35 35 33 33 32 30 28 28 28 32 38 42 44 45 47 47 47 47 47 45 43 37 37 35 32 30 28 33 30 31 32 34 36 38 37 35 32 30 27 26 25 24 22 23 23 20
39 38 39 39 39 39 37 36 33 32 33 33 33 34 38 43 47 47 48 49 49 50 48 47 45 41 37 38 34 35 36 33 31 31 32 35 37 38 40 37 34 32 29 28 27 26 25 24 25
40 41 42 43 43 42 41 40 38 37 36 38 38 39 38 37 41 46 49 49 52 51 52 51 50 46 43 39 39 39 39 37 36 33 31 30 34 39 40 40 37 35 35 32 30 29 28 26 26
43 44 45 45 45 45 45 43 42 40 39 42 40 41 41 41 40 43 48 52 53 54 54 54 54 51 48 48 43 43 42 40 37 36 33 31 31 33 37 39 40 39 38 37 35 33 31 29 28
44 43 44 45 47 46 47 45 45 42 46 44 44 43 43 44 45 46 48 51 54 55 57 55 55 55 51 49 46 45 42 40 40 35 32 32 33 29 31 36 41 43 42 40 39 38 36 34 31
42 42 43 43 46 46 48 48 47 45 47 47 47 47 48 47 48 49 52 53 53 57 59 59 56 58 57 55 51 48 46 41 39 35 33 33 31 31 32 33 37 38 43 44 43 41 41 38 35
40 41 42 43 44 45 47 47 48 50 50 50 50 49 50 51 52 53 55 57 57 56 60 61 62 60 60 58 58 53 51 46 45 41 40 40 37 35 33 32 33 37 40 45 44 46 44 42 40
40 40 40 39 41 43 45 44 46 48 50 51 50 52 53 54 56 57 59 62 62 61 59 62 65 64 62 62 60 59 57 54 51 47 44 43 40 39 39 36 36 35 37 41 47 47 48 47 46
36 37 37 39 39 41 44 43 41 47 50 51 54 56 58 58 62 64 66 67 69 65 62 61 65 67 66 63 63 63 62 59 57 53 51 48 46 45 42 41 40 41 39 42 42 46 47 55 54
31 31 32 34 36 39 40 42 44 46 50 54 56 59 62 63 64 70 71 70 69 66 63 62 64 67 70 67 65 65 64 62 59 56 55 52 51 50 47 45 44 45 43 43 44 48 49 46 41
25 26 28 31 35 37 41 44 45 50 53 53 52 54 58 62 63 64 64 66 65 63 63 63 64 64 67 71 67 64 63 62 61 59 58 54 53 52 50 49 48 46 46 44 44 42 44 47 49
21 22 28 31 36 41 44 44 46 50 51 48 52 58 59 56 56 59 61 64 65 66 64 65 64 65 66 68 71 66 64 64 62 58 58 57 54 52 50 48 48 48 47 49 45 43 46 51 55
22 25 29 33 36 38 43 39 42 45 42 47 52 53 53 55 58 59 59 59 60 61 64 66 67 64 66 66 66 68 67 64 61 59 57 56 55 52 49 51 52 51 51 53 50 47 48 49 53
25 26 28 31 32 35 35 35 26 27 31 37 43 44 38 34 36 39 40 40 43 54 58 60 62 62 63 64 65 64 63 62 59 59 58 57 57 53 53 53 54 56 55 53 54 54 56 59 51
20 22 24 26 29 30 26 29 26 28 28 29 33 38 41 38 33 38 41 40 38 40 45 53 59 58 61 61 59 59 55 53 54 55 55 58 55 51 51 54 56 55 53 55 53 53 53 58 54
20 21 22 21 18 18 22 24 17 18 18 19 21 21 17 17 24 29 31 30 32 36 42 43 48 50 53 54 53 52 50 49 48 48 48 49 49 47 49 50 48 48 50 50 52 50 48 41 38
9 7 6 10 12 17 17 18 22 16 5 6 5 2 5 12 16 18 22 24 21 23 33 39 38 39 39 41 42 42 44 43 42 42 42 43 45 46 45 43 44 42 38 40 44 46 47 39 35
2 6 8 8 10 12 18 21 15 13 13 18 17 10 10 14 14 13 7 5 3 7 13 24 30 29 30 31 34 32 29 33 35 35 37 40 41 42 40 39 28 26 24 27 27 33 48 33 32
6 6 6 9 12 12 9 7 8 8 7 6 11 12 8 13 12 8 5 3 9 23 24 19 21 23 22 24 25 26 27 22 27 31 33 38 36 33 32 31 29 29 29 32 37 30 27 33 35
7 8 7 5 7 9 11 16 14 8 7 6 11 11 7 13 17 11 14 22 18 20 22 22 25 21 21 18 17 17 13 19 17 16 18 23 24 26 28 28 29 33 36 38 35 37 34 31 28
11 10 11 12 12 13 13 19 20 19 13 13 7 9 4 9 15 16 18 19 21 26 29 29 27 26 26 23 16 13 13 15 19 19 17 23 28 28 24 26 20 20 16 22 33 28 22 21 22
13 11 13 16 15 15 16 16 17 15 17 15 14 13 9 3 3 13 15 16 22 21 26 27 26 21 22 18 19 17 16 17 15 12 15 13 10 12 24 19 13 10 8 8 4 6 10 11 12